[[{"header":{"parameterUnit":"m.s-1","parameterCategory":1,"la1":30.6,"la2":29.2853,"lo1":-89.7004,"lo2":-87.6739,"dy":0.0162,"dx":0.0183,"nx":112,"ny":82,"refTime":"2023-08-09T12:00:00:Z","depth":0,"parameterNumber":2,"parameterNumberName":"U-component_of_WINDS"},"data":[0.0,0.0,0.0,0.0,0.0,0.0,0.0,0.0,0.0,0.0,0.0,0.0,0.0,0.0,0.0,0.0,0.0,0.0,0.0,0.0,0.0,0.0,0.0,0.0,0.0,0.0,0.0,0.0,0.0,0.0,0.0,0.0,0.0,0.0,0.0,0.0,0.0,0.0,0.0,0.0,0.0,0.0,0.0,0.0,0.0,0.0,0.0,0.0,0.0,0.0,0.0,0.0,0.0,0.0,0.0,0.0,0.0,0.0,0.0,0.0,0.0,0.0,0.0,0.0,0.0,0.0,0.0,0.0,0.0,0.0,0.0,0.0,0.0,0.0,0.0,0.0,0.0,0.0,0.0,0.0,0.0,0.0,0.0,0.0,0.0,0.0,0.0,0.0,0.0,0.0,-2.4473,-2.4609,-2.5293,-2.5918,-2.6348,-2.6328,-2.5781,-2.459,0.0,0.0,0.0,0.0,0.0,0.0,0.0,0.0,0.0,0.0,0.0,0.0,0.0,0.0,0.0,0.0,0.0,0.0,0.0,0.0,0.0,0.0,0.0,0.0,0.0,0.0,0.0,0.0,0.0,0.0,0.0,0.0,0.0,0.0,0.0,0.0,0.0,0.0,0.0,0.0,0.0,0.0,0.0,0.0,0.0,0.0,0.0,0.0,0.0,0.0,0.0,0.0,0.0,0.0,0.0,0.0,0.0,0.0,0.0,0.0,0.0,0.0,0.0,0.0,0.0,0.0,0.0,0.0,0.0,0.0,0.0,0.0,0.0,0.0,0.0,0.0,0.0,0.0,0.0,0.0,0.0,0.0,0.0,0.0,0.0,0.0,0.0,0.0,0.0,0.0,0.0,0.0,0.0,0.0,0.0,0.0,0.0,0.0,0.0,0.0,0.0,0.0,0.0,0.0,-2.4707,-2.5449,-2.5664,-2.5918,-2.6348,-2.6055,-2.5586,-2.5,0.0,0.0,0.0,0.0,0.0,0.0,0.0,0.0,0.0,0.0,0.0,0.0,0.0,0.0,0.0,0.0,0.0,0.0,0.0,0.0,0.0,0.0,0.0,0.0,0.0,0.0,0.0,0.0,0.0,0.0,0.0,0.0,0.0,0.0,0.0,0.0,0.0,0.0,0.0,0.0,0.0,0.0,0.0,0.0,0.0,0.0,0.0,0.0,0.0,0.0,0.0,0.0,0.0,0.0,0.0,0.0,0.0,0.0,0.0,0.0,0.0,0.0,0.0,0.0,0.0,0.0,0.0,0.0,0.0,0.0,0.0,0.0,0.0,0.0,0.0,0.0,0.0,0.0,0.0,0.0,0.0,0.0,0.0,0.0,0.0,0.0,0.0,0.0,0.0,0.0,0.0,0.0,0.0,0.0,0.0,0.0,0.0,0.0,0.0,0.0,0.0,0.0,0.0,-2.4922,-2.5019,-2.5664,-2.5742,-2.5918,-2.6348,-2.5996,-2.5547,-2.5098,-2.5059,0.0,0.0,0.0,0.0,0.0,0.0,0.0,0.0,0.0,0.0,0.0,0.0,0.0,0.0,0.0,0.0,0.0,0.0,0.0,0.0,0.0,0.0,0.0,0.0,0.0,0.0,0.0,0.0,0.0,0.0,0.0,0.0,0.0,0.0,0.0,0.0,0.0,0.0,0.0,0.0,0.0,0.0,0.0,0.0,0.0,0.0,0.0,0.0,0.0,0.0,0.0,0.0,0.0,0.0,0.0,0.0,0.0,0.0,0.0,0.0,0.0,0.0,0.0,0.0,0.0,0.0,0.0,0.0,0.0,0.0,0.0,0.0,0.0,0.0,0.0,0.0,0.0,0.0,0.0,0.0,0.0,0.0,0.0,0.0,0.0,0.0,0.0,0.0,0.0,0.0,0.0,0.0,0.0,0.0,0.0,0.0,0.0,0.0,0.0,0.0,0.0,0.0,-2.5352,-2.5234,-2.5684,-2.5742,-2.5879,-2.6211,-2.584,-2.5391,-2.4941,-2.4922,0.0,0.0,0.0,0.0,0.0,0.0,0.0,0.0,0.0,0.0,0.0,0.0,0.0,0.0,0.0,0.0,0.0,0.0,0.0,0.0,0.0,0.0,0.0,0.0,0.0,0.0,0.0,0.0,0.0,0.0,0.0,0.0,0.0,0.0,0.0,0.0,0.0,0.0,0.0,0.0,0.0,0.0,0.0,0.0,0.0,0.0,0.0,0.0,0.0,0.0,0.0,0.0,0.0,0.0,0.0,0.0,0.0,0.0,0.0,0.0,0.0,0.0,0.0,0.0,0.0,0.0,0.0,0.0,0.0,0.0,0.0,0.0,0.0,0.0,0.0,0.0,0.0,0.0,0.0,0.0,0.0,0.0,0.0,0.0,0.0,0.0,0.0,0.0,0.0,0.0,0.0,0.0,0.0,0.0,0.0,0.0,0.0,0.0,0.0,0.0,0.0,0.0,-2.5352,-2.5234,-2.5684,-2.5742,-2.5742,-2.5781,-2.5371,-2.4922,-2.4492,-2.4473,0.0,0.0,0.0,0.0,0.0,0.0,0.0,0.0,0.0,0.0,0.0,0.0,0.0,0.0,0.0,0.0,0.0,0.0,0.0,0.0,0.0,0.0,0.0,0.0,0.0,0.0,0.0,0.0,0.0,0.0,0.0,0.0,0.0,0.0,0.0,0.0,0.0,0.0,0.0,0.0,0.0,0.0,0.0,0.0,0.0,0.0,0.0,0.0,0.0,0.0,0.0,0.0,0.0,0.0,0.0,0.0,0.0,0.0,0.0,0.0,0.0,0.0,0.0,0.0,0.0,0.0,0.0,0.0,0.0,0.0,0.0,0.0,0.0,0.0,0.0,0.0,0.0,0.0,0.0,0.0,0.0,0.0,0.0,0.0,0.0,0.0,0.0,0.0,0.0,0.0,0.0,0.0,0.0,0.0,0.0,0.0,0.0,0.0,0.0,0.0,0.0,0.0,-2.582,-2.5859,-2.5742,-2.5977,-2.625,-2.6504,-2.5879,-2.541,-2.5254,0.0,0.0,0.0,0.0,0.0,0.0,0.0,0.0,0.0,0.0,0.0,0.0,0.0,0.0,0.0,0.0,0.0,0.0,0.0,0.0,0.0,0.0,0.0,0.0,0.0,0.0,0.0,0.0,0.0,0.0,0.0,0.0,0.0,0.0,0.0,0.0,0.0,0.0,0.0,0.0,0.0,0.0,0.0,0.0,0.0,0.0,0.0,0.0,0.0,0.0,0.0,0.0,0.0,0.0,0.0,0.0,0.0,0.0,0.0,0.0,0.0,0.0,0.0,0.0,0.0,0.0,0.0,0.0,0.0,0.0,0.0,0.0,0.0,0.0,0.0,0.0,0.0,0.0,0.0,0.0,0.0,0.0,0.0,0.0,0.0,0.0,0.0,0.0,0.0,0.0,0.0,0.0,0.0,0.0,0.0,0.0,0.0,0.0,0.0,0.0,0.0,0.0,-2.5742,-2.6113,-2.6269,-2.5977,-2.6328,-2.6699,-2.6992,-2.6094,-2.5586,-2.5723,0.0,0.0,0.0,0.0,0.0,0.0,0.0,0.0,0.0,0.0,0.0,0.0,0.0,0.0,0.0,0.0,0.0,0.0,0.0,0.0,0.0,0.0,0.0,0.0,0.0,0.0,0.0,0.0,0.0,0.0,0.0,0.0,0.0,0.0,0.0,0.0,0.0,0.0,0.0,0.0,0.0,0.0,0.0,0.0,0.0,0.0,0.0,0.0,0.0,0.0,0.0,0.0,0.0,0.0,0.0,0.0,0.0,0.0,0.0,0.0,0.0,0.0,0.0,0.0,0.0,0.0,0.0,0.0,0.0,0.0,0.0,0.0,0.0,0.0,0.0,0.0,0.0,0.0,0.0,0.0,0.0,0.0,0.0,0.0,0.0,0.0,0.0,0.0,0.0,0.0,0.0,0.0,0.0,0.0,0.0,0.0,0.0,0.0,0.0,0.0,0.0,0.0,-2.5742,-2.6133,-2.6387,-2.6387,-2.6777,-2.7031,-2.7031,-2.582,-2.5273,0.0,0.0,0.0,0.0,0.0,0.0,0.0,0.0,0.0,0.0,0.0,0.0,0.0,0.0,0.0,0.0,0.0,0.0,0.0,0.0,0.0,0.0,0.0,0.0,0.0,0.0,0.0,0.0,0.0,0.0,0.0,0.0,0.0,0.0,0.0,0.0,0.0,0.0,0.0,0.0,0.0,0.0,0.0,0.0,0.0,0.0,0.0,0.0,0.0,0.0,0.0,0.0,0.0,0.0,0.0,0.0,0.0,0.0,0.0,0.0,0.0,0.0,0.0,0.0,0.0,0.0,0.0,0.0,0.0,0.0,0.0,0.0,0.0,0.0,0.0,0.0,0.0,0.0,0.0,0.0,0.0,0.0,0.0,0.0,0.0,0.0,0.0,0.0,0.0,0.0,0.0,0.0,0.0,0.0,0.0,0.0,0.0,0.0,0.0,0.0,0.0,0.0,0.0,-2.6152,-2.6562,-2.6836,-2.6836,-2.7226,-2.748,-2.748,-2.6289,-2.5723,-2.6172,0.0,0.0,0.0,0.0,0.0,0.0,0.0,0.0,0.0,0.0,0.0,0.0,0.0,0.0,0.0,0.0,0.0,0.0,0.0,0.0,0.0,0.0,0.0,0.0,0.0,0.0,0.0,0.0,0.0,0.0,0.0,0.0,0.0,0.0,0.0,0.0,0.0,0.0,0.0,0.0,0.0,0.0,0.0,0.0,0.0,0.0,0.0,0.0,0.0,0.0,0.0,0.0,0.0,0.0,0.0,0.0,0.0,0.0,0.0,0.0,0.0,0.0,0.0,0.0,0.0,0.0,0.0,0.0,0.0,0.0,0.0,0.0,0.0,0.0,0.0,0.0,0.0,0.0,0.0,0.0,0.0,0.0,0.0,0.0,0.0,0.0,0.0,0.0,0.0,0.0,0.0,0.0,0.0,0.0,0.0,0.0,0.0,0.0,0.0,0.0,0.0,0.0,-2.6328,-2.6758,-2.709,-2.7266,-2.7656,-2.791,-2.791,-2.6738,-2.6113,-2.6367,0.0,0.0,0.0,0.0,0.0,0.0,0.0,0.0,0.0,0.0,0.0,0.0,0.0,0.0,0.0,0.0,0.0,0.0,0.0,0.0,0.0,0.0,0.0,0.0,0.0,0.0,0.0,0.0,0.0,0.0,0.0,0.0,0.0,0.0,0.0,0.0,0.0,0.0,0.0,0.0,0.0,0.0,0.0,0.0,0.0,0.0,0.0,0.0,0.0,0.0,0.0,0.0,0.0,0.0,0.0,0.0,0.0,0.0,0.0,0.0,0.0,0.0,0.0,0.0,0.0,0.0,0.0,0.0,0.0,0.0,0.0,0.0,0.0,0.0,0.0,0.0,0.0,0.0,0.0,0.0,0.0,0.0,0.0,0.0,0.0,0.0,0.0,0.0,0.0,0.0,0.0,0.0,0.0,0.0,0.0,0.0,0.0,0.0,0.0,0.0,0.0,0.0,-2.6504,-2.6855,-2.7266,-2.7734,-2.8086,-2.8301,-2.8301,-2.7148,-2.6426,-2.6387,0.0,0.0,0.0,0.0,0.0,0.0,0.0,0.0,0.0,0.0,0.0,0.0,0.0,0.0,0.0,0.0,0.0,0.0,0.0,0.0,0.0,0.0,0.0,0.0,0.0,0.0,0.0,0.0,0.0,0.0,0.0,0.0,0.0,0.0,0.0,0.0,0.0,0.0,0.0,0.0,0.0,0.0,0.0,0.0,0.0,0.0,0.0,0.0,0.0,0.0,0.0,0.0,0.0,0.0,0.0,0.0,0.0,0.0,0.0,0.0,-2.8301,-2.918,0.0,0.0,0.0,0.0,0.0,0.0,0.0,0.0,0.0,0.0,0.0,0.0,0.0,0.0,0.0,0.0,0.0,0.0,0.0,0.0,0.0,0.0,0.0,0.0,0.0,0.0,0.0,0.0,0.0,0.0,0.0,0.0,0.0,0.0,0.0,0.0,0.0,0.0,0.0,0.0,-2.7734,-2.7676,-2.7812,-2.8574,-2.8437,-2.8301,-2.8301,-2.7422,-2.6738,-2.6406,-2.5547,0.0,0.0,0.0,0.0,0.0,0.0,0.0,0.0,0.0,0.0,0.0,0.0,0.0,0.0,0.0,0.0,0.0,0.0,0.0,0.0,0.0,0.0,0.0,0.0,0.0,0.0,0.0,0.0,0.0,0.0,0.0,0.0,0.0,0.0,0.0,0.0,0.0,0.0,0.0,0.0,0.0,0.0,0.0,0.0,0.0,0.0,0.0,0.0,0.0,0.0,0.0,0.0,0.0,0.0,0.0,0.0,0.0,0.0,0.0,-2.9531,-2.9857,0.0,0.0,0.0,0.0,0.0,0.0,0.0,0.0,0.0,0.0,0.0,0.0,0.0,0.0,0.0,0.0,0.0,0.0,0.0,0.0,0.0,0.0,0.0,0.0,0.0,0.0,0.0,0.0,0.0,0.0,0.0,0.0,0.0,0.0,0.0,0.0,0.0,0.0,0.0,0.0,-2.8144,-2.8105,-2.8203,-2.8848,-2.873,-2.8516,-2.832,-2.7027,-2.5966,-2.5465,-2.4299,0.0,0.0,0.0,0.0,0.0,0.0,0.0,0.0,0.0,0.0,0.0,0.0,0.0,0.0,0.0,0.0,0.0,0.0,0.0,0.0,0.0,0.0,0.0,0.0,0.0,0.0,0.0,0.0,0.0,0.0,0.0,0.0,0.0,0.0,0.0,0.0,0.0,0.0,0.0,0.0,0.0,0.0,0.0,0.0,0.0,0.0,0.0,0.0,0.0,0.0,0.0,0.0,0.0,-3.455,-3.3983,-3.3567,-3.2336,-3.1621,-3.123,-3.0934,-3.0509,-2.9883,-3.0626,0.0,0.0,0.0,0.0,0.0,0.0,0.0,0.0,0.0,0.0,0.0,0.0,0.0,0.0,0.0,0.0,0.0,0.0,0.0,0.0,0.0,0.0,0.0,0.0,-2.9258,-2.9375,-2.8672,0.0,0.0,0.0,0.0,0.0,0.0,0.0,0.0,0.0,0.0,0.0,-2.8203,-2.8301,-2.8457,-2.8867,-2.8629,-2.8327,-2.7979,-2.6188,-2.4757,-2.4008,-2.2722,-2.1673,0.0,0.0,0.0,0.0,0.0,0.0,0.0,0.0,0.0,0.0,0.0,0.0,0.0,0.0,0.0,0.0,0.0,0.0,0.0,0.0,0.0,0.0,0.0,0.0,0.0,0.0,0.0,0.0,0.0,0.0,0.0,0.0,-2.7051,-2.7383,0.0,0.0,0.0,0.0,0.0,0.0,0.0,0.0,0.0,0.0,0.0,0.0,0.0,-3.5825,-3.6413,-3.7736,-3.7653,-3.6039,-3.6436,-3.5701,-3.3965,-3.3466,-3.2949,-3.2435,-3.1369,0.0,-3.0587,-2.904,0.0,0.0,0.0,0.0,0.0,0.0,0.0,0.0,0.0,0.0,0.0,0.0,0.0,0.0,0.0,0.0,0.0,0.0,0.0,0.0,0.0,0.0,-2.9394,-2.9004,-2.9258,-2.9551,0.0,-2.9453,-2.9258,-2.8457,-2.7949,-2.7519,0.0,0.0,0.0,0.0,0.0,0.0,-2.8223,-2.8301,-2.8457,-2.8867,-2.745,-2.6427,-2.6391,-2.4896,-2.3528,-2.2478,-2.222,-2.1903,-2.1527,-2.0109,0.0,0.0,0.0,0.0,0.0,0.0,0.0,0.0,0.0,0.0,0.0,0.0,0.0,0.0,0.0,0.0,0.0,0.0,0.0,0.0,0.0,0.0,0.0,0.0,0.0,0.0,0.0,0.0,0.0,-2.6836,-2.7363,-2.7305,-2.7715,-2.7754,0.0,0.0,0.0,0.0,0.0,0.0,0.0,0.0,0.0,-3.6699,-3.7613,-3.7724,-3.7167,-3.8423,-3.8005,-3.6062,-3.6374,-3.5289,-3.314,-3.2954,-3.1983,-3.0361,-2.9848,-2.931,-2.8906,-2.7887,-2.7452,-2.7105,0.0,0.0,0.0,0.0,-2.561,-2.7056,-2.6884,-2.7309,-2.7718,-2.7332,0.0,0.0,0.0,0.0,0.0,0.0,0.0,0.0,0.0,0.0,-3.0195,-2.9746,-2.998,-3.0312,-3.0312,-2.9394,-2.8691,-2.9011,-2.8672,-2.8009,-2.6699,-2.633,0.0,0.0,0.0,-2.586,-2.6149,-2.6346,-2.6359,-2.6417,-2.5698,-2.5061,-2.4837,-2.3487,-2.2323,-2.1557,-2.0617,-1.9861,-1.9435,-1.875,-1.8352,0.0,0.0,0.0,0.0,0.0,0.0,0.0,0.0,0.0,0.0,0.0,0.0,0.0,0.0,0.0,0.0,0.0,0.0,0.0,0.0,0.0,0.0,0.0,0.0,0.0,0.0,0.0,0.0,-2.748,-2.7988,-2.7559,-2.8965,-2.9479,0.0,0.0,0.0,0.0,0.0,0.0,-3.5545,-3.675,-3.7714,-3.8287,-3.9389,-3.9125,-3.7554,-3.7779,-3.7272,-3.5774,-3.4991,-3.3863,-3.2155,-3.1961,-3.0668,-2.8689,-2.8202,-2.7547,-2.6953,-2.6632,-2.6294,-2.5737,-2.3723,-2.3728,-2.4749,-2.3375,-2.3978,-2.5375,-2.5375,-2.5619,-2.6001,-2.6199,-2.5831,-2.5242,-2.3855,0.0,0.0,0.0,0.0,-2.7388,-2.727,-2.87,-3.0081,-2.9367,-2.9732,-3.0138,-2.9785,-2.8446,-2.7714,0.0,-2.8293,-2.7234,-2.5803,-2.5283,0.0,-2.3574,-2.3924,-2.4334,-2.4234,-2.4466,-2.4515,-2.4364,-2.4007,-2.3667,-2.3279,-2.1926,-2.09,-2.0565,-1.9361,-1.833,-1.7729,-1.7849,-1.7609,-1.6941,0.0,0.0,0.0,0.0,0.0,0.0,0.0,0.0,0.0,0.0,0.0,0.0,0.0,0.0,0.0,0.0,0.0,0.0,0.0,0.0,0.0,0.0,0.0,0.0,0.0,0.0,0.0,0.0,0.0,-2.8867,-3.1983,0.0,0.0,0.0,0.0,-3.3633,-3.4043,-3.4993,-3.6771,-3.859,-3.9432,-3.8833,-3.975,-3.9552,-3.7936,-3.6174,-3.5285,-3.5121,-3.2474,-3.1253,-3.1059,-3.0376,-2.9705,-2.905,-2.709,-2.6073,-2.5576,-2.493,-2.466,-2.4327,-2.2074,-2.1538,-2.1713,-2.1146,-2.2086,-2.3698,-2.3698,-2.4655,-2.5978,-2.6684,-2.5676,-2.4044,-2.329,-2.332,0.0,0.0,-2.4139,-2.5951,-2.5951,-2.7056,-2.802,-2.6873,-2.7557,-2.8051,-2.6591,-2.6211,-2.6354,0.0,-2.5663,-2.4367,-2.4236,0.0,-2.4089,-2.4089,-2.4236,-2.4137,-2.368,-2.376,-2.3871,-2.3855,-2.262,-2.1714,-2.1699,-2.0371,-1.9354,-1.9058,-1.8905,-1.8637,-1.805,-1.7756,-1.7582,-1.7542,-1.7021,0.0,0.0,0.0,0.0,0.0,0.0,0.0,0.0,0.0,0.0,0.0,0.0,0.0,0.0,0.0,0.0,0.0,0.0,0.0,0.0,0.0,0.0,0.0,0.0,0.0,0.0,0.0,0.0,-3.354,-3.4818,0.0,-3.5184,-3.5486,-3.5558,-3.5432,-3.7369,-3.8401,-3.8228,-3.9516,-3.995,-3.9086,-3.8205,-3.7345,-3.6532,-3.4574,-3.3135,-3.2398,-3.1404,-3.0162,-2.88,-2.8317,-2.7226,-2.5664,-2.4665,-2.408,-2.376,-2.3342,-2.3175,-2.3001,-2.2078,-2.2249,-2.3148,-2.2932,-2.3758,-2.513,-2.513,-2.5497,-2.6067,-2.6579,-2.6433,-2.6087,-2.5846,-2.4953,-2.3998,-2.3858,-2.4082,-2.4518,-2.4826,-2.5837,-2.6675,-2.643,-2.66,-2.6712,-2.6106,-2.5146,-2.4593,-2.4827,-2.4833,-2.459,-2.366,-2.3253,-2.2761,-2.1698,-2.1594,-2.1597,-2.1162,-2.1235,-2.1162,-2.096,-2.0486,-2.0141,-2.0141,-1.9516,-1.9038,-1.8931,-1.8571,-1.8263,-1.805,-1.7569,-1.7301,-1.7301,-1.6727,-1.7158,0.0,0.0,0.0,0.0,0.0,0.0,0.0,0.0,0.0,0.0,0.0,0.0,0.0,0.0,0.0,0.0,0.0,0.0,0.0,0.0,0.0,0.0,0.0,0.0,0.0,-3.168,-3.3803,-3.5438,-3.6699,-3.7449,-3.7487,-3.7775,-3.7978,-3.7686,-3.9157,-3.971,-3.9106,-3.9698,-3.9425,-3.8269,-3.6901,-3.5575,-3.4443,-3.2342,-3.082,-2.9986,-2.9148,-2.7931,-2.633,-2.5999,-2.513,-2.3594,-2.3193,-2.3174,-2.3486,-2.3181,-2.344,-2.3794,-2.2972,-2.3607,-2.4779,-2.4671,-2.5214,-2.6001,-2.6116,-2.66,-2.7241,-2.7514,-2.777,-2.81,-2.81,-2.6783,-2.5138,-2.4728,-2.4306,-2.4015,-2.3695,-2.4456,-2.5389,-2.4874,-2.5014,-2.5008,-2.4517,-2.3559,-2.2716,-2.2716,-2.338,-2.3581,-2.2631,-2.2227,-2.1732,-2.0644,-2.0361,-2.016,-1.9973,-1.9773,-1.9586,-1.9386,-1.9372,-1.9332,-1.9225,-1.9132,-1.8945,-1.8637,-1.8357,-1.8063,-1.7756,-1.7355,-1.7154,-1.7154,-1.7059,-1.8101,-2.0183,0.0,0.0,0.0,0.0,0.0,0.0,0.0,0.0,0.0,0.0,0.0,0.0,0.0,0.0,0.0,0.0,0.0,0.0,0.0,0.0,0.0,0.0,0.0,-3.0976,-3.2812,-3.418,-3.4348,-3.7888,-3.9799,-3.8737,-3.9667,-4.0277,-4.0256,-3.9166,-3.8603,-3.9012,-3.9031,-3.8101,-3.6128,-3.5959,-3.4644,-3.1944,-2.9663,-2.8298,-2.7969,-2.5631,-2.4489,-2.4195,-2.3901,-2.3607,-2.3273,-2.2672,-2.3462,-2.4994,-2.4665,-2.5417,-2.6788,-2.4822,-2.5046,-2.6463,-2.6239,-2.6106,-2.6156,-2.6504,-2.7865,-2.9581,-2.9599,-2.9723,-2.9723,-2.9741,-2.8619,-2.698,-2.5077,-2.4785,-2.4569,-2.2586,-2.3131,-2.381,-2.2005,-2.2567,-2.3076,-2.1475,-2.1109,-2.1109,-2.1109,-2.1109,-2.1109,-2.1109,-2.1109,-2.1109,-2.1096,-2.0601,0.0,-2.0227,-1.972,-1.9372,-1.9372,-1.9386,-1.9265,-1.8958,-1.9185,-1.8958,-1.8063,-1.8277,-1.805,-1.7168,-1.723,-1.7217,-1.7203,-1.8124,-1.9734,-2.2025,0.0,0.0,0.0,0.0,0.0,0.0,0.0,0.0,0.0,0.0,0.0,0.0,0.0,0.0,0.0,0.0,0.0,0.0,0.0,0.0,0.0,-3.1074,-3.2383,-3.2676,-3.4844,-3.7292,-3.9729,-4.0242,-4.0949,-4.1979,-4.0878,-3.9917,-3.9579,-3.7568,-3.646,-3.6571,-3.5078,-3.4022,-3.3568,-3.1934,-3.0536,-2.9498,-2.7265,-2.5921,-2.5617,-2.4958,-2.4489,-2.4195,-2.3901,-2.4162,-2.4703,-2.4434,-2.502,-2.6312,-2.5945,-2.6802,-2.8201,-2.675,-2.7027,-2.8254,-2.8149,-2.8679,-2.9549,-2.9661,-3.0219,-3.0997,-3.1302,-3.152,-3.137,-3.0664,-2.9101,-2.7149,-2.5703,-2.4228,-2.3048,-2.2445,-2.2372,-2.2277,-2.1692,-2.1706,-2.1601,-2.1235,-2.1109,-2.1109,-2.1109,-2.1109,-2.1109,-2.1109,-2.1109,-2.1042,-2.0828,-2.0481,0.0,-1.9947,-1.9599,-1.9452,-1.9653,-1.9679,-1.9559,-1.9265,-1.8931,-1.8437,-1.7742,-1.7382,-1.7088,-1.6834,-1.662,-1.6897,-1.7529,-2.0085,-2.156,0.0,0.0,0.0,0.0,0.0,0.0,0.0,0.0,0.0,0.0,0.0,0.0,0.0,0.0,0.0,0.0,0.0,0.0,0.0,0.0,0.0,0.0,-3.2871,-3.4219,-3.5176,-3.6758,-3.8596,-4.0654,-4.0873,-4.1085,-4.1875,-4.0912,-3.9581,-3.8027,-3.6662,-3.5324,-3.4075,-3.3011,-3.1983,-3.1061,-2.9656,-2.8502,-2.7301,-2.5814,-2.4877,-2.4449,-2.4449,-2.4235,-2.3821,-2.4203,-2.4739,-2.516,-2.5451,-2.6407,-2.7702,-2.7432,-2.7765,0.0,0.0,0.0,0.0,0.0,-3.023,-3.0898,-3.0898,-3.1172,-3.1562,-3.1816,-3.1507,-3.1087,-3.0518,-2.9084,-2.7279,-2.5779,-2.4477,-2.3468,-2.2432,-2.1991,-2.167,-2.143,-2.1229,-2.1109,-2.1109,-2.1109,-2.1109,-2.1109,-2.1109,0.0,-2.1109,-2.1002,-2.0869,-2.0695,-2.0321,-1.9987,-1.9826,-1.9546,-1.9439,-1.9599,-1.9506,-1.9319,-1.9025,-1.8691,0.0,0.0,0.0,-1.678,-1.654,-1.6842,0.0,0.0,0.0,-2.2353,-2.2775,0.0,0.0,0.0,-2.4523,-2.5059,0.0,0.0,0.0,0.0,0.0,0.0,0.0,0.0,0.0,0.0,0.0,0.0,0.0,0.0,0.0,0.0,-3.4707,-3.6172,-3.7773,-3.8379,-3.8789,-3.916,-4.0234,-4.0684,-3.9961,-4.0024,-3.8937,-3.6279,-3.5718,-3.4307,-3.1778,0.0,0.0,0.0,0.0,-2.753,-2.5518,-2.5197,-2.477,-2.4249,-2.4354,-2.4188,-2.3633,-2.5062,-2.5635,-2.5504,-2.6372,-2.7675,-2.9107,-2.8589,-2.8426,-2.8426,-2.8426,-2.9412,-3.0898,-3.0898,-3.0898,-3.0898,-3.0898,0.0,0.0,-3.1246,-3.0475,-2.9472,-2.919,-2.8289,-2.6987,-2.5227,-2.4923,-2.4611,-2.2467,-2.1937,-2.179,-2.1243,-2.1109,-2.1109,-2.1109,-2.1109,-2.1109,-2.1109,-2.1109,-2.1096,-2.1069,-2.0842,-2.0668,-2.0628,-2.016,-1.9786,-1.976,-1.9533,-1.9372,-1.9412,0.0,0.0,-1.8557,-1.8477,-1.7956,-1.682,-1.6967,-1.686,-1.6339,-1.7616,-1.8845,-1.9997,-2.1235,-2.2537,-2.3789,-2.3359,-2.3028,-2.2919,-2.4203,-2.4967,0.0,0.0,0.0,0.0,0.0,0.0,0.0,0.0,0.0,0.0,0.0,0.0,0.0,0.0,0.0,-3.4199,-3.584,-3.7285,-3.8301,-3.8809,-3.9101,-3.9199,-3.9434,-3.9668,-3.9883,-3.8084,-3.6636,-3.5845,-3.2475,-3.0035,-2.9333,-2.7734,-2.6808,-2.6553,-2.6088,-2.5772,-2.5504,-2.4983,-2.4663,-2.4543,0.0,0.0,-2.5842,-2.727,-2.8362,-2.9142,-2.8922,-2.9678,-3.0849,-2.9067,-2.8426,-2.8426,-2.8426,-2.9412,-3.0898,-3.0898,-3.0898,-3.0898,-3.0898,-3.0937,-3.082,-2.9916,-2.9101,-2.8268,-2.6262,-2.5149,0.0,-2.3028,-2.2627,-2.2454,-2.1854,-2.163,-2.155,-2.1189,-2.1109,-2.1109,-2.1109,-2.1109,-2.1109,-2.1109,-2.1109,-2.1029,-2.0802,-2.0708,-2.0601,-2.0361,-2.0027,-1.972,-1.9479,-1.9399,-1.9452,-1.9693,-1.9452,-1.9158,-1.8865,-1.841,-1.7822,-1.7114,-1.6887,-1.674,-1.662,-1.8474,-1.989,-2.0454,-2.2026,-2.3171,-2.3789,-2.3359,-2.2877,-2.2524,-2.2826,-2.2804,0.0,0.0,0.0,0.0,0.0,0.0,0.0,0.0,0.0,0.0,0.0,-3.0488,-3.1348,0.0,-3.4375,-3.6328,-3.7363,-3.7933,-3.7708,-3.7671,-3.7596,-3.737,-3.7709,-3.7502,-3.6026,-3.5069,-3.3768,-3.2293,-3.0,-2.828,-2.6937,-2.6033,-2.5518,-2.5518,-2.5237,-2.5077,-2.5077,-2.4636,-2.4698,-2.5356,-2.6018,-2.674,-2.7343,-2.8726,-2.9655,-3.0158,-3.0445,-3.0456,-3.0111,-2.7245,-2.697,-2.8307,-2.7572,-2.8664,-3.0898,-3.0898,-3.0898,-3.0898,-3.0898,-3.0392,-2.9568,-2.8901,-2.7488,-2.57,-2.4451,-2.3432,-2.2708,-2.1984,-2.1871,-2.1924,-2.163,-2.155,-2.1483,-2.1176,-2.1109,-2.1109,-2.1109,-2.1109,-2.1109,-2.1109,-2.1109,-2.1069,-2.0922,-2.0775,-2.0521,-2.008,-1.9893,-1.9693,-1.9399,-1.9372,-1.9426,-1.9573,-1.9319,-1.9025,-1.8731,-1.8023,-1.7475,-1.7271,-1.6874,-1.67,-1.67,-1.8793,-2.0013,-2.0289,-2.2168,-2.3359,-2.3789,-2.3359,-2.2662,-2.1707,-2.1535,-2.1553,0.0,0.0,0.0,0.0,0.0,0.0,0.0,-2.7936,-2.9434,-3.0371,-3.1269,-3.2324,-3.3789,-3.4746,-3.5918,-3.774,-3.8086,-3.7705,-3.6201,-3.5645,-3.5122,-3.4486,-3.5316,-3.4842,-3.2193,-3.1923,-3.1038,-2.8731,-2.8088,-2.7072,-2.516,-2.5211,-2.5264,-2.509,-2.497,-2.4972,-2.5065,-2.4856,-2.5257,-2.6649,-2.6846,-2.7605,-2.879,-3.0227,-3.0827,-3.0791,-3.1001,-3.0204,-2.8376,-2.529,-2.5635,-2.7811,-2.6832,-2.8307,-3.0898,-3.0898,-3.0645,-3.0392,-3.0392,-2.9294,-2.7931,-2.7572,-2.5757,-2.3574,-2.3201,-2.2398,-2.147,-2.147,-2.163,-2.1764,-2.1523,-2.147,-2.1403,-2.1162,-2.1109,-2.1109,-2.1109,-2.1109,-2.1096,-2.1042,-2.1029,-2.1002,-2.0949,-2.0788,-2.0494,-1.996,-1.984,-1.9693,-1.9399,-1.9372,-1.9372,-1.9372,-1.9052,-1.8718,-1.8437,-1.7796,-1.7408,-1.7408,-1.7128,-1.6967,-1.6967,-1.8746,-1.9797,-1.9861,-2.1808,-2.3102,-2.3544,-2.3299,-2.2428,-2.0901,-2.067,-2.0637,-1.5997,-1.8268,-2.0626,-2.175,-2.4036,-2.6691,0.0,-3.1351,-3.2637,-3.3867,-3.4824,-3.5625,-3.6191,-3.6992,-3.7316,-3.6381,-3.6376,-3.5789,-3.3701,-3.3092,-3.2233,-3.0361,-3.1807,-3.2742,-3.1993,-3.0489,-2.9049,-2.8236,-2.6439,-2.5296,-2.4703,-2.4716,-2.4836,-2.5077,-2.4569,-2.5112,-2.7041,-2.6437,-2.7061,-2.8623,-2.9932,-3.069,-3.0918,-3.2369,-3.3087,-3.2903,-3.0779,-2.8712,-2.676,-2.6011,-2.5984,-2.6349,-2.7692,-2.9275,-3.0898,-3.0898,-3.002,-2.8664,-2.8664,-2.7572,-2.5984,-2.4532,-2.3946,-2.3325,-2.1853,-2.1249,-2.1162,-2.1162,-2.1189,-2.1203,-2.1162,-2.1162,-2.1149,-2.1122,-2.1109,-2.1109,-2.1109,-2.1109,-2.1029,-2.0775,-2.0722,-2.0641,-2.0374,-2.0521,-2.0561,-2.0227,-1.996,-1.9693,-1.9399,-1.9372,-1.9372,-1.9372,-1.8865,-1.8424,-1.8116,-1.825,-1.8343,-1.8343,-1.8063,-1.7903,-1.7903,-1.8671,-1.9265,-1.9653,-2.1173,-2.2152,-2.2532,-2.3362,-2.2557,-2.0442,-2.0818,-1.9861,-1.7122,-1.9759,-2.2253,-2.4912,-2.6906,-2.8846,-3.1678,-3.295,-3.3906,-3.5195,-3.6348,-3.7266,-3.7695,-3.7416,-3.7015,-3.6587,-3.5379,-3.3903,-3.1512,-3.1027,-2.9915,-2.7423,-2.7827,-2.8379,-2.8232,-2.7316,-2.6594,-2.6143,-2.5255,-2.477,-2.4649,-2.4636,-2.469,-2.4823,-2.573,-2.6402,-2.7176,-2.7695,-2.8848,-3.0403,-3.0829,-3.1431,-3.2501,-3.3116,-3.3281,-3.2902,-3.0742,-2.9118,-2.7992,-2.6621,-2.6591,-2.7434,-2.817,-2.8783,-2.9412,-2.9412,-2.9039,-2.8289,-2.7314,-2.5984,-2.4532,-2.3822,-2.2952,-2.1978,-2.1362,-2.1109,-2.1109,-2.1109,-2.1109,-2.1109,-2.1109,-2.1109,-2.1109,-2.1109,-2.1109,-2.1109,-2.1109,-2.0975,-2.0815,-2.0695,-2.0535,-2.0428,-2.0481,-2.0454,-2.0374,-2.0254,-2.0134,-1.988,-1.9426,-1.9372,-1.9372,-1.9372,-1.8998,-1.8691,-1.8571,-1.8517,-1.8424,-1.8237,-1.8116,-1.7969,-1.7782,-1.8597,-1.9123,-1.9241,-2.1185,-2.2254,-2.2416,-2.2815,-2.2173,-2.0688,-2.0158,-1.8585,-1.859,-2.1491,-2.4282,-2.732,-2.9185,-3.0997,-3.3146,-3.4219,-3.5098,-3.6152,-3.6842,-3.7334,-3.7901,-3.6636,-3.5502,-3.5124,-3.3569,-3.1622,-2.9365,-2.8599,-2.7631,-2.5483,-2.513,-2.5037,-2.5037,-2.5064,-2.4957,-2.4663,-2.4636,-2.4636,-2.4636,-2.4636,-2.4784,-2.5359,-2.6692,-2.7605,-2.8379,-2.927,-3.0537,-3.1893,-3.1709,-3.2218,-3.3418,-3.3418,-3.3184,-3.2649,-3.0668,-2.9505,-2.8985,-2.6864,-2.6712,-2.7692,-2.7692,-2.7692,-2.7692,-2.7211,-2.7091,-2.697,-2.5741,-2.4286,-2.2952,-2.2952,-2.209,-2.1109,-2.1109,-2.1109,-2.1109,-2.1109,-2.1109,-2.1109,-2.1109,-2.1109,-2.1109,-2.1109,-2.1109,-2.1109,-2.1109,-2.0949,-2.0775,-2.0695,-2.0508,-2.0428,-2.0641,-2.0494,-2.0334,-2.0241,-2.0227,-2.0027,-1.9439,-1.9372,-1.9332,-1.9252,-1.9132,-1.9011,-1.8931,-1.8811,-1.8637,-1.8424,-1.833,-1.8156,-1.7849,-1.8366,-1.8671,-1.8585,-2.0524,-2.1411,-2.1411,-2.1796,-2.1451,-2.042,-1.9209,-1.7418,-2.0602,-2.3601,-2.6857,-2.7882,-3.0509,-3.2988,-3.3867,-3.5371,-3.6719,-3.7168,-3.6286,-3.5772,-3.6189,-3.4588,-3.2699,-3.0999,-3.0197,-2.9012,-2.686,-2.5805,-2.516,-2.4703,-2.4168,-2.3821,-2.3821,-2.4583,-2.4957,-2.4663,-2.4636,-2.4636,-2.4636,-2.4636,-2.5492,-2.736,-2.7161,-2.8503,-3.1729,-3.1468,-3.2004,-3.3311,-3.3292,-3.3292,-3.3418,-3.3418,-3.3184,-3.2649,-3.0668,-2.9505,-2.8985,-2.6864,-2.5984,-2.6106,-2.6106,-2.6106,-2.5863,-2.4301,-2.3698,-2.3698,-2.3698,-2.2591,-2.1235,-2.1235,-2.1109,-2.1109,-2.1109,-2.1109,-2.1109,-2.1109,-2.1109,-2.1109,-2.1109,-2.1109,-2.1109,-2.1109,-2.1109,-2.1109,-2.1109,-2.1096,-2.1015,-2.0735,-2.0668,-2.0668,-2.0681,-2.0668,-2.0561,-2.0281,-2.0227,-2.0027,-1.9439,-1.9372,-1.9252,-1.8971,-1.9185,-1.9239,-1.8945,-1.9185,-1.9332,-1.9332,-1.9052,-1.8771,-1.8477,-1.8183,-1.7876,-1.7674,-1.8599,-1.9134,-1.9134,-2.0404,-2.0404,-1.9063,-1.7977,-1.6753,-2.3657,-2.6408,-2.9336,-3.06,-3.1996,-3.3594,-3.5039,-3.582,-3.615,-3.5538,-3.5078,-3.4379,-3.3214,-3.1514,-2.9973,-2.9109,-2.8081,-2.6876,-2.5725,-2.509,-2.4529,-2.3848,-2.3768,-2.3607,-2.3207,-2.3794,-2.4249,-2.4342,-2.4529,-2.5212,-2.6502,-2.6502,-2.7346,-2.9329,-3.0493,-3.1635,-3.2773,-3.3348,-3.3873,-3.4258,-3.3691,-3.3418,-3.3418,-3.3125,-3.293,-3.263,-3.0389,-2.9878,-3.049,-2.8469,-2.7572,-2.7572,-2.7572,-2.6227,-2.4301,-2.3822,-2.2966,-2.1978,-2.1978,-2.1601,-2.1109,-2.1109,-2.1109,-2.1069,-2.0882,-2.0962,-2.1069,-2.0869,-2.0962,-2.1109,-2.1109,-2.1109,-2.1109,-2.1109,-2.1109,-2.1109,-2.1109,-2.0962,-2.0788,-2.0695,-2.0521,-2.0441,-2.0641,-2.0508,-2.0281,-1.9987,-1.9786,-1.9586,-1.9399,-1.9372,-1.9332,-1.9225,-1.9305,-1.9332,-1.9225,-1.9305,-1.9279,-1.9092,-1.8985,-1.8798,-1.8504,-1.821,-1.7996,-1.7889,-1.8826,-1.936,-1.936,-1.9857,-1.9331,-1.7977,-1.6727,-1.4854,-2.6754,-2.8783,-3.0762,-3.207,-3.3027,-3.3945,-3.5078,-3.5008,-3.4614,-3.386,-3.2579,-3.123,-2.9846,-2.8023,-2.6823,-2.6605,-2.5534,-2.4796,-2.4636,-2.4638,-2.4385,-2.415,-2.463,-2.4897,-2.4578,-2.5042,-2.5254,-2.4985,-2.5855,-2.7038,-2.8172,-2.8423,-2.9329,-3.1316,-3.2595,-3.3393,-3.3954,-3.4508,-3.4551,-3.4238,-3.3691,-3.334,-3.3184,-3.293,-3.2637,-3.2305,-3.0615,-3.0433,-3.1151,-2.8535,-2.7554,-2.7452,-2.6227,-2.4532,-2.2716,-2.2716,-2.1964,-2.1109,-2.1109,-2.1109,-2.1109,-2.1109,-2.1109,-2.1069,-2.0895,-2.0962,-2.1069,-2.0882,-2.0962,-2.1082,-2.0989,-2.0949,-2.0949,-2.0949,-2.0949,-2.0989,-2.1082,-2.0962,-2.0828,-2.0828,-2.0681,-2.0601,-2.0802,-2.0494,-2.0174,-1.9987,-1.9626,-1.9372,-1.9372,-1.9372,-1.9372,-1.9372,-1.9372,-1.9372,-1.9372,-1.9372,-1.9292,-1.9092,-1.9078,-1.8958,-1.8651,-1.8464,-1.8263,-1.8036,-1.8674,-1.8926,-1.8916,-1.838,-1.762,-1.6647,-1.4748,-1.2832,-2.9648,-3.0586,-3.1269,-3.25,-3.3418,-3.4043,-3.4062,-3.3445,-3.2648,-3.2284,-2.941,-2.6802,-2.6481,-2.4701,-2.3512,-2.3525,-2.3309,-2.3349,-2.3944,-2.4352,-2.483,-2.5546,-2.6517,-2.7289,-2.7748,-2.8113,-2.7959,-2.6737,0.0,-2.9781,-2.9814,-3.0269,-3.1299,-3.3309,-3.3309,-3.3972,-3.5391,-3.4902,-3.4238,-3.3379,-3.3379,-3.3164,-3.2754,-3.2734,-3.2285,-3.1523,-3.1365,-3.1132,-3.0528,-2.7331,-2.5984,-2.5619,-2.2438,-2.1222,-2.1109,-2.1096,-2.1096,-2.1109,-2.1109,-2.1109,-2.1109,-2.1109,-2.1109,-2.1109,-2.1096,-2.1096,-2.1109,-2.1096,-2.1096,-2.1042,-2.0775,-2.0681,-2.0681,-2.0681,-2.0681,-2.0748,-2.1029,-2.1096,-2.1109,-2.1109,-2.1109,-2.1109,-2.1096,-2.0628,-2.0241,-2.0214,-1.9746,-1.9386,-1.9372,-1.9372,-1.9372,-1.9372,-1.9372,-1.9372,-1.9372,-1.9372,-1.9372,-1.9372,-1.9372,-1.9239,-1.8958,-1.8931,-1.8637,-1.805,-1.805,-1.7889,-1.7582,-1.6168,-1.5304,-1.5198,-1.2398,-1.1109,-3.0039,-3.123,-3.2383,-3.2715,-3.3203,-3.3672,-3.4004,-3.3598,-3.2819,-3.1374,-2.9736,-2.7991,-2.6117,-2.5644,-2.551,-2.5919,-2.6526,-2.716,-2.7332,-2.7455,-2.7487,-2.7148,-2.7573,-2.8063,-2.8146,-2.9682,-3.0751,0.0,-3.0287,-3.0455,-3.2157,-3.2402,-3.3309,-3.5158,-3.5314,-3.5258,-3.5391,-3.4629,-3.3809,-3.2949,-3.2949,-3.2734,-3.2324,-3.1992,-3.1719,-3.1385,-2.9811,-2.9131,-2.8902,-2.6832,-2.5253,-2.4147,-2.3059,-2.2018,-2.1082,-2.0869,-2.0922,-2.1109,-2.1109,-2.1109,-2.1109,-2.1109,-2.1109,-2.1069,-2.0855,-2.0935,-2.1069,-2.0842,-2.0949,-2.1096,-2.1015,-2.0842,-2.0681,-2.0681,-2.0681,-2.0695,-2.0775,-2.0962,-2.1109,-2.1109,-2.1109,-2.1042,-2.0828,-2.0668,-2.0414,-1.9973,-1.9786,-1.9613,-1.9399,-1.9372,-1.9372,-1.9372,-1.9372,-1.9372,-1.9372,-1.9372,-1.9372,-1.9372,-1.9372,-1.9332,-1.9252,-1.9038,-1.8744,-1.8384,-1.8156,-1.7889,-1.7582,-1.6168,-1.4877,-1.3804,-1.1973,-1.0453,-3.1191,-3.2051,-3.2832,-3.3027,-3.3105,-3.3164,-3.3223,-3.2373,-3.1009,-2.9328,-2.8076,-2.661,-2.5008,-2.5218,-2.5813,-2.6315,-2.7008,-2.7539,-2.8163,-2.8601,-2.8948,-2.9017,-2.9731,-3.0406,-3.0894,-3.193,-3.2936,-3.3778,-3.2866,-3.2892,-3.4296,-3.4452,-3.4883,-3.6016,-3.584,-3.5449,-3.4824,-3.4316,-3.3633,-3.2793,-3.2793,-3.248,-3.1875,-3.1621,-3.1406,-3.123,0.0,-2.9039,-2.8289,-2.6712,-2.5008,-2.3559,-2.2639,-2.1742,-2.0895,-2.0735,-2.0775,-2.0922,-2.0922,-2.1002,-2.1109,-2.1109,-2.1109,-2.1082,-2.0909,-2.0975,-2.1082,-2.0909,-2.0989,-2.1082,-2.0949,-2.0708,-2.0508,-2.0641,-2.0575,-2.0548,-2.0815,-2.0989,-2.1109,-2.1109,-2.1109,-2.1015,-2.0722,-2.0575,-2.0334,-1.9867,-1.9693,-1.9546,-1.9386,-1.9372,-1.9372,-1.9372,-1.9372,-1.9372,-1.9372,-1.9372,-1.9372,-1.9372,-1.9372,-1.9372,-1.9372,-1.9078,-1.8851,-1.8691,-1.825,-1.7956,-1.7782,-1.6123,-1.4984,-1.4234,-1.2724,-1.1647,-3.2578,-3.2871,-3.2969,-3.332,-3.3105,-3.2676,-3.2266,-3.0596,-2.8792,-2.77,-2.6214,-2.5023,-2.4384,-2.4952,-2.556,-2.6152,-2.6628,-2.7241,-2.8307,-2.9262,-3.0075,-3.1048,-3.2226,-3.3281,-3.4082,-3.4219,-3.4609,-3.5508,-3.5508,-3.5644,-3.5996,-3.6016,-3.5996,-3.5937,-3.5527,-3.4902,-3.4082,-3.4023,-3.3594,-3.2793,-3.2734,-3.2285,-3.1523,-3.1465,-3.123,-3.0898,-3.0645,-2.9648,-2.7931,-2.6349,-2.4778,-2.3076,-2.1685,-2.0922,-2.0722,-2.0641,-2.0668,-2.0722,-2.0695,-2.0869,-2.1109,-2.1109,-2.1109,-2.1109,-2.1109,-2.1109,-2.1109,-2.1109,-2.1109,-2.1056,-2.0802,-2.0508,-2.0361,-2.0615,-2.0481,-2.0428,-2.0935,-2.1082,-2.1096,-2.1056,-2.1056,-2.0949,-2.0615,-2.0347,-2.008,-1.9786,-1.9533,-1.9372,-1.9372,-1.9372,-1.9372,-1.9372,-1.9372,-1.9372,-1.9372,-1.9372,-1.9372,-1.9372,-1.9372,-1.9345,-1.9319,-1.9065,-1.8891,-1.8811,-1.829,-1.8009,-1.7983,-1.6147,-1.5364,-1.5258,-1.3869,-1.3224,-3.3242,-3.332,-3.332,-3.3398,-3.3105,-3.2676,-3.2266,-3.1013,-2.9776,-2.9331,-2.8325,-2.7682,-2.753,-2.791,-2.8595,-2.9735,-2.9982,-3.0572,-3.2169,-3.2229,-3.2401,-3.2835,-3.3544,-3.4043,-3.4551,-3.4941,-3.5527,-3.6387,-3.6113,-3.5937,-3.6016,-3.6016,-3.5859,-3.5508,-3.5059,-3.459,-3.4082,-3.3711,-3.3281,-3.2793,-3.2441,-3.2012,-3.1504,-3.1152,-3.0957,-3.0762,-2.9412,0.0,-2.6349,-2.4655,-2.3076,-2.1461,-2.0967,-2.0869,-2.0975,-2.0494,-2.0615,-2.1002,-2.0762,-2.0869,-2.1109,-2.1109,-2.1109,-2.1109,-2.1109,-2.1109,-2.1109,-2.1109,-2.1109,-2.1096,-2.1042,-2.0815,-2.0615,-2.0668,-2.0641,-2.0628,-2.0735,-2.0935,-2.1042,-2.0802,-2.0748,-2.0588,-2.004,-1.9907,-1.9773,-1.9492,-1.9399,-1.9372,-1.9372,-1.9372,-1.9372,-1.9372,-1.9372,-1.9372,-1.9372,-1.9372,-1.9372,-1.9372,-1.9372,-1.9252,-1.9011,-1.8945,-1.8691,-1.821,-1.809,-1.7916,-1.7662,-1.5866,-1.5106,-1.5001,-1.352,-1.2886,-3.3418,-3.3418,-3.3379,-3.3144,-3.2773,-3.2168,-3.1074,-3.0156,-2.9277,-2.8418,-2.8086,-2.7891,-2.7676,-2.8164,-2.8867,-2.9726,-3.0059,-3.0801,-3.2519,-3.2598,-3.2793,-3.3652,-3.3945,-3.4336,-3.5,-3.5254,-3.5644,-3.6289,-3.6133,-3.6113,-3.6348,-3.6152,-3.5723,-3.5059,-3.5059,-3.4629,-3.375,-3.375,-3.3437,-3.2793,-3.2363,-3.1934,-3.1504,-3.0211,-2.9648,-2.953,-2.7811,-2.6227,-2.4655,-2.3931,-2.2591,-2.1096,-2.0962,-2.0895,-2.0855,-2.0575,-2.0548,-2.0655,-2.0668,-2.0762,-2.0909,-2.1056,-2.1109,-2.1109,-2.1109,-2.1109,-2.1109,-2.1109,-2.1109,-2.1109,-2.1109,-2.0895,-2.0722,-2.0869,-2.0895,-2.0895,-2.0895,-2.1015,-2.1029,-2.0735,-2.0802,-2.0708,-2.012,-2.0147,-2.0107,-1.9653,-1.972,-1.9706,-1.9412,-1.9506,-1.9533,-1.9386,-1.9372,-1.9372,-1.9372,-1.9372,-1.9372,-1.9372,-1.9372,-1.9239,-1.8931,-1.8784,-1.8571,-1.829,-1.7969,-1.7809,-1.7822,-1.6871,-1.6235,-1.6097,-1.5596,-1.5269,-3.3535,-3.3496,-3.332,-3.2891,-3.248,-3.1719,-2.9961,-2.916,-2.8476,-2.7383,-2.7344,-2.7461,-2.7207,-2.7773,-2.8437,0.0,-2.9277,-3.0176,-3.1934,-3.2246,-3.2754,-3.3926,-3.4316,-3.4766,-3.5469,-3.5703,-3.6073,-3.6796,-3.6737,-3.666,-3.6523,-3.6211,-3.5605,-3.4726,-3.5059,-3.4648,-3.3437,-3.3769,-3.3594,-3.293,-3.25,-3.1949,-3.1003,-2.9711,-2.8874,-2.8289,-2.7073,-2.5619,-2.4054,-2.3698,-2.2591,-2.1109,-2.1109,-2.0962,-2.0762,-2.0695,-2.0575,-2.0441,-2.0615,-2.0722,-2.0802,-2.1029,-2.1109,-2.1109,-2.1109,-2.1109,-2.1109,-2.1109,-2.1109,-2.1109,-2.1109,-2.0935,-2.0828,-2.1056,-2.1109,-2.1109,-2.1109,-2.1109,-2.1029,-2.0735,-2.0855,-2.0855,-2.0321,-2.0428,-2.0428,-1.996,-2.004,-1.9973,-1.9519,-1.9599,-1.9626,-1.9399,-1.9372,-1.9372,-1.9372,-1.9372,-1.9372,-1.9372,-1.9372,-1.9239,-1.8931,-1.8651,-1.8464,-1.8397,-1.7862,-1.7808,-1.8372,-1.7741,-1.7576,-1.7654,-1.759,-1.7368,-3.3906,-3.373,-3.332,-3.2891,-3.248,-3.1719,-2.9961,-2.8945,-2.8203,-2.7715,-2.7324,-2.7187,-2.7539,-2.7988,0.0,0.0,0.0,-3.0176,-3.1934,-3.25,-3.3066,-3.3965,-3.5117,-3.5879,-3.5957,-3.666,-3.7808,-3.9583,-3.9344,-3.8159,-3.623,-3.6035,-3.5605,-3.4726,-3.4746,-3.4336,-3.3437,-3.3457,-3.3437,-3.3359,-3.293,-3.1722,-2.9915,-3.0762,-3.0244,-2.8408,-2.8289,-2.7314,0.0,-2.4178,-2.2591,-2.1109,-2.1109,-2.1096,-2.1042,-2.0775,-2.0828,-2.1002,-2.0762,-2.0855,-2.1069,-2.1096,-2.1109,-2.1109,-2.1109,-2.1109,-2.1109,-2.1109,-2.1109,-2.1109,-2.1109,-2.1096,-2.1082,-2.1096,-2.1109,-2.1109,-2.1109,-2.1109,-2.1029,-2.0735,-2.0695,-2.0615,-2.0294,-2.0254,-2.0254,-2.0201,-1.9987,-1.9826,-1.9773,-1.9559,-1.9399,-1.9372,-1.9372,-1.9372,-1.9372,-1.9372,-1.9372,-1.9372,-1.9372,-1.9239,-1.8931,-1.8651,-1.837,-1.809,-1.7756,-1.8213,-1.9465,-1.7936,-1.7872,-1.8947,-1.7784,-1.7181,-3.3184,-3.3359,-3.332,-3.2891,-3.2285,-3.1387,-2.9902,-2.8906,-2.8184,-2.7754,-2.7519,-2.7461,-2.7637,-2.7812,0.0,0.0,0.0,0.0,-3.0742,-3.1912,-3.3074,-3.4328,-3.667,-3.8329,-3.8405,-3.8835,-3.8783,-3.8366,-3.7964,-3.7388,-3.6426,-3.6152,-3.5742,-3.5137,-3.5117,-3.4687,-3.3828,-3.3809,-3.3691,-3.3418,-3.2988,-3.2324,-3.1475,-3.0569,-2.9554,-2.8769,-2.7539,-2.6591,0.0,-2.5253,-2.4054,-2.2591,-2.2591,-2.1978,-2.1096,-2.0975,-2.0895,-2.0855,-2.0922,-2.0895,-2.0882,-2.1056,-2.1109,-2.1109,-2.1109,-2.1109,-2.1109,-2.1109,-2.1109,-2.1069,-2.0895,-2.0855,-2.0855,-2.0855,-2.0989,-2.1109,-2.1109,-2.1109,-2.1029,-2.0735,-2.0815,-2.0842,-2.0548,-2.0641,-2.0641,-2.0281,-2.0281,-2.0134,-1.9613,-1.9586,-1.9559,-1.9386,-1.9372,-1.9372,-1.9372,-1.9372,-1.9372,-1.9372,-1.9372,-1.9239,-1.8931,-1.8651,-1.8769,-1.9299,-1.8969,-1.9524,-2.0845,-1.939,-1.8833,-1.9149,-1.8039,-1.7315,-3.3194,-3.359,-3.3888,-3.2858,-3.2051,-3.1152,-2.9707,-2.8809,-2.8184,-2.7754,-2.7676,-2.7676,-2.7676,-2.7773,0.0,0.0,0.0,-2.8908,-3.0545,-3.2066,-3.3663,-3.5204,-3.7691,-3.9567,-4.0335,-4.0865,-4.052,-3.8628,-3.8087,-3.7788,-3.7668,-3.6701,-3.5957,-3.541,-3.5254,-3.4824,-3.4082,-3.3945,-3.373,-3.3418,-3.2988,-3.2525,-3.1989,-3.0635,-2.9635,-2.9004,-2.8094,-2.7297,0.0,-2.6712,-2.5741,-2.4301,-2.3822,-2.2841,-2.1727,-2.1235,-2.0975,-2.0842,-2.1042,-2.0975,-2.0842,-2.1042,-2.1109,-2.1109,-2.1109,-2.1042,-2.0989,-2.0989,-2.1284,-2.1438,-2.1437,-2.1396,-2.13,-2.0899,-2.0962,-2.1109,-2.1109,-2.1109,-2.1042,-2.0842,-2.0895,-2.0922,-2.0708,-2.0775,-2.0708,-2.0294,-2.0334,-2.0201,-1.9573,-1.9599,-1.9599,-1.9386,-1.9372,-1.9372,-1.9372,-1.9372,-1.9372,-1.9372,-1.9372,-1.9279,-1.9065,-1.9207,-1.9538,-2.0163,-1.9941,-2.0442,-2.1744,-1.9922,-1.9111,-1.9299,-1.8102,-1.7475,-3.4454,-3.5014,-3.523,-3.2851,-3.1836,-3.1055,-2.9316,-2.8594,-2.8184,-2.7754,-2.7676,-2.7676,-2.7676,-2.8008,0.0,0.0,0.0,0.0,-3.21,-3.356,-3.5061,0.0,-3.7998,-3.9153,-4.0768,-4.2817,-4.3266,-4.1467,-4.0906,0.0,-4.014,-3.7964,-3.6269,-3.543,-3.4941,-3.4492,-3.4082,-3.3652,-3.3418,-3.3418,-3.2988,-3.2008,-3.0429,-3.1589,-3.1047,-2.9143,-3.0768,-3.0282,0.0,-2.8426,-2.7452,-2.5863,-2.4178,-2.3574,-2.3325,-2.1727,-2.1109,-2.1109,-2.1109,-2.1109,-2.1109,-2.1109,-2.1109,-2.1109,-2.1109,-2.0909,-2.0681,-2.0681,-2.154,-2.2557,-2.2763,-2.2837,-2.2559,-2.1407,-2.1109,-2.1109,-2.1109,-2.1109,-2.1109,-2.1109,-2.0869,-2.0681,-2.0681,-2.0441,-2.0241,-2.0227,-1.9987,-1.9813,-1.98,-1.9546,-1.9372,-1.9372,-1.9372,-1.9372,-1.9372,-1.9372,-1.9372,-1.9372,-1.9372,-1.9372,-1.9359,-2.0499,-2.0928,-2.0505,-2.0392,-2.0779,-2.1643,-1.8902,-1.8304,-1.9524,-1.8199,-1.7582,-3.4229,-3.4026,-3.3622,-3.2909,-3.1377,-3.0039,-2.9492,-2.8809,-2.8262,-2.8125,-2.8805,-2.9497,-2.9497,-3.0326,0.0,0.0,0.0,0.0,0.0,0.0,0.0,-3.7443,-4.0276,-4.2527,0.0,0.0,-4.1488,-3.953,-3.8986,-3.8567,-3.8267,-3.7312,-3.6406,-3.584,-3.5098,-3.4629,-3.4492,-3.3789,-3.3418,-3.3418,-3.2988,-3.268,-3.2409,-3.2235,-3.2002,-3.1589,-3.1517,-3.1188,-3.0539,-3.0252,-2.9157,-2.7434,-2.5863,-2.4532,-2.345,-2.1727,-2.1109,-2.1109,-2.1109,-2.1109,-2.1109,-2.1109,-2.1853,-2.2841,-2.2841,-2.2486,-2.2428,-2.3141,-2.3834,-2.4125,-2.422,-2.3607,-2.2929,-2.234,-2.1672,-2.1056,-2.0855,-2.0962,-2.1109,-2.1109,-2.0869,-2.0681,-2.0681,-2.0428,-2.016,-1.996,-1.9853,-1.9733,-1.9533,-1.9426,-1.9372,-1.9372,-1.9372,-1.9372,-1.9372,-1.9372,-1.9372,-1.9372,-1.9372,-1.9372,-1.9372,-1.9521,-1.9962,-2.0722,-2.0505,-2.0924,-2.1936,-2.0181,-1.8921,-1.8199,-1.7793,-1.7582,0.0,-3.4316,-3.3578,-3.2847,-3.1167,-2.9531,0.0,0.0,0.0,-2.9006,-3.012,-3.103,-3.103,0.0,0.0,0.0,0.0,0.0,0.0,0.0,0.0,-3.9187,-4.2198,0.0,0.0,-4.1571,-4.0514,-3.872,-3.8164,-3.7812,-3.7539,-3.6992,-3.6543,-3.6269,-3.541,-3.4883,-3.4707,-3.4004,-3.3516,-3.3184,-3.293,-3.293,-3.3164,-3.2637,-3.2559,-3.2754,-3.207,-3.168,0.0,-3.1055,-3.0274,-2.9157,-2.7572,-2.6227,-2.5269,-2.3559,-2.2577,-2.209,-2.209,-2.209,-2.195,-2.1839,-2.2886,-2.4345,-2.4955,-2.4474,-2.3873,-2.516,-2.54,-2.5366,-2.5639,-2.4724,-2.3607,-2.3187,-2.1973,-2.0922,-2.0855,-2.0802,-2.0815,-2.0922,-2.0708,-2.0508,-2.0508,-2.0267,-2.0013,-1.9826,-1.9706,-1.9573,-1.9386,-1.9372,-1.9372,-1.9372,-1.9372,-1.9372,-1.9372,-1.9372,-1.9372,-1.9372,-1.9372,-1.9372,-1.9372,-1.9745,-2.0231,-2.087,-2.0788,-2.0954,-2.147,-1.9983,-1.8716,-1.7582,-1.7582,-1.7582,0.0,-3.5432,-3.4756,-3.2873,-3.1044,-2.9688,-2.9273,0.0,0.0,0.0,0.0,0.0,0.0,0.0,0.0,0.0,0.0,0.0,0.0,-3.8594,0.0,0.0,-4.3458,-4.2921,-3.929,-4.0229,-4.031,-3.8622,-3.8105,-3.7871,-3.7832,-3.709,-3.6641,-3.6582,-3.5801,-3.5176,-3.4707,-3.4258,-3.3613,-3.2793,-3.2793,-3.2793,-3.2793,-3.2793,-3.2812,0.0,-3.2363,-3.1934,0.0,-3.1074,-3.0898,-3.0762,-2.9039,-2.8426,-2.817,-2.6591,-2.5024,-2.3574,-2.3698,-2.3698,-2.3514,-2.3307,-2.4259,-2.5796,-2.7481,-2.6632,-2.5326,-2.6578,-2.6645,-2.6536,-2.7187,-2.599,-2.4521,-2.3871,-2.2224,-2.0775,-2.1029,-2.0655,-2.0347,-2.0615,-2.0441,-2.0227,-2.0227,-2.0013,-1.9826,-1.98,-1.9573,-1.9386,-1.9372,-1.9372,-1.9372,-1.9372,-1.9372,-1.9372,-1.9372,-1.9372,-1.9372,-1.9372,-1.9372,-1.9372,-1.9372,-2.0702,-2.1225,-2.0803,-2.0996,-2.0847,-2.0426,-1.8836,-1.7903,-1.7609,-1.7595,-1.7595,-3.6276,0.0,-3.4474,-3.4032,-3.2779,-3.162,0.0,0.0,0.0,0.0,0.0,-3.3988,-3.4463,-3.4796,-3.5308,0.0,0.0,-3.6176,-3.5101,-3.8022,0.0,-4.3731,-4.4132,-4.2883,-3.9643,-3.8867,-3.8359,-3.7617,-3.75,-3.7305,-3.6992,-3.6777,-3.6367,-3.5723,-3.5508,-3.5176,-3.4707,-3.3945,-3.332,-3.2793,-3.2793,-3.2793,-3.2793,-3.2793,-3.2969,-3.3242,-3.25,0.0,-3.1953,-3.1211,-3.0898,-3.0762,-2.9039,-2.8426,-2.817,-2.6591,-2.5024,-2.3822,-2.5024,-2.4655,-2.3885,-2.593,-2.6876,-2.7481,-2.9125,-2.8473,-2.7383,-2.8615,-2.8872,-2.8911,-2.9316,-2.732,-2.512,-2.518,-2.3074,-2.0962,-2.0815,-2.0668,-2.0588,-2.0655,-2.0441,-2.0227,-2.0227,-2.0174,-2.0054,-1.9826,-1.9746,-1.9626,-1.9399,-1.9372,-1.9372,-1.9372,-1.9372,-1.9372,-1.9372,-1.9372,-1.9372,-1.9372,-1.9372,-1.9372,-1.9372,-1.9693,-1.9897,-1.9713,-1.9594,-1.9443,-1.9248,-1.84,-1.8009,-1.7929,-1.7689,-1.7716,-3.6358,-3.5475,-3.4385,-3.4385,-3.3353,-3.2331,-3.2331,0.0,0.0,0.0,0.0,0.0,0.0,-3.5843,-3.6015,0.0,-3.6681,0.0,0.0,0.0,-4.0434,-4.2379,-4.2215,-4.1079,0.0,-3.8026,-3.7539,-3.7324,-3.7129,-3.6992,-3.6953,-3.6582,-3.6152,-3.5703,-3.5293,-3.4863,-3.4414,-3.3945,-3.3398,-3.2793,-3.2793,-3.2695,-3.25,-3.1722,-3.1464,-3.1634,-3.0236,0.0,-2.9678,-2.9673,-2.9766,-2.9766,-2.9648,-2.953,-2.9394,-2.7692,-2.6106,-2.4778,-2.5741,-2.5649,-2.5625,-2.8082,-2.8651,-2.8483,-2.9618,-2.8993,-2.8028,-2.9449,-2.9726,-2.9497,-2.9032,-2.6964,-2.4989,-2.4572,-2.2384,-2.0535,-2.0655,-2.0361,-2.016,-2.0428,-2.0241,-2.008,-2.0214,-2.0695,-2.1019,-2.085,-2.0695,-2.0554,-2.0385,-1.9809,-1.9372,-1.9372,-1.9372,-1.9372,-1.9372,-1.9372,-1.9372,-1.9372,-1.9372,-1.9372,-1.9372,-1.9372,-1.9372,-1.9372,-1.9212,-1.9065,-1.8918,-1.8477,-1.825,-1.8237,-1.7943,-1.7956,-3.6358,-3.562,-3.4774,-3.4702,-3.3848,-3.2932,-3.2932,0.0,0.0,0.0,0.0,0.0,0.0,-3.5795,-3.527,-3.5561,0.0,0.0,-3.894,-3.9221,-3.944,-4.0002,-3.9825,0.0,-3.772,-3.7363,-3.7168,-3.7109,-3.6777,-3.6719,-3.709,-3.6348,-3.5898,-3.582,-3.5019,-3.4394,-3.3984,-3.3965,-3.3574,-3.2793,-3.2851,-3.2513,-3.1783,-3.0433,-2.9653,-2.919,0.0,0.0,-2.7008,-2.797,-2.8545,-2.892,-3.0392,-3.0898,-3.0645,-2.9039,-2.7314,-2.5968,-2.5918,-2.6422,-2.7404,-2.9316,-2.9512,-2.8875,-2.9133,-2.8539,-2.8082,-2.9125,-2.9222,-2.8634,-2.7398,-2.5809,-2.4306,-2.3414,-2.1506,-2.0067,-2.0575,-2.0321,-2.0033,-2.0441,-2.0585,-2.0621,-2.0828,-2.1729,-2.2357,-2.2311,-2.194,-2.1645,-2.1586,-2.0256,-1.9372,-1.9372,-1.9372,-1.9372,-1.9372,-1.9372,-1.9372,-1.9372,-1.9372,-1.9372,-1.9372,-1.9372,-1.9372,-1.9372,-1.9372,-1.9239,-1.8985,-1.8704,-1.8531,-1.8477,-1.8237,-1.825,-3.6358,-3.6589,-3.6646,-3.6173,-3.5953,-3.5763,-3.5763,-3.5953,0.0,0.0,0.0,0.0,0.0,-3.6307,-3.5733,-3.7915,-3.7115,-3.7295,0.0,0.0,-3.9544,-4.0035,0.0,-3.9378,-3.6524,-3.6582,-3.6621,-3.625,-3.6152,-3.6152,-3.6211,-3.5762,-3.5312,-3.4902,-3.4434,-3.3965,-3.3535,-3.3516,-3.3281,-3.2793,-3.3164,-3.2123,-3.0112,-3.021,-2.9277,-2.758,0.0,-2.7395,-2.8742,-2.8469,-2.9275,-3.0528,-3.0762,-3.0898,-3.0645,-2.9039,-2.7314,-2.5935,-2.5501,-2.6199,-2.7314,-2.8646,-2.9023,-2.8707,-2.753,-2.75,-2.7598,-2.6641,-2.6118,-2.6016,-2.6217,-2.454,-2.2976,-2.3473,-2.2001,-2.0561,-2.0655,-2.1652,-2.2362,-2.1774,-2.3022,-2.4049,-2.3693,-2.3969,-2.425,-2.3958,-2.2828,-2.19,-2.1616,-2.0256,-1.9372,-1.9372,-1.9372,-1.9372,-1.9372,-1.9372,-1.9372,-1.9372,-1.9372,-1.9372,-1.9372,-1.9372,-1.9372,-1.9372,-1.9372,-1.9345,-1.9292,-1.8998,-1.8731,-1.849,-1.8437,-1.845,-3.6358,-3.6533,-3.6759,-3.6784,-3.6279,-3.5697,-3.5428,-3.4751,0.0,0.0,0.0,0.0,0.0,0.0,-3.8218,-3.9108,0.0,-3.5915,-3.8062,-3.7442,-3.7327,0.0,0.0,-3.7525,-3.6838,-3.6465,-3.6133,-3.5723,-3.5684,-3.5566,-3.5312,-3.5117,-3.4824,-3.4375,-3.418,-3.3867,-3.3418,-3.3418,-3.332,-3.3125,-3.2169,-3.1043,-2.9905,-2.7899,-2.6437,-2.5391,0.0,-2.4642,-2.6232,-2.6779,-2.8051,-2.9648,-3.0528,-3.0898,-3.0645,-2.8051,-2.6106,-2.4731,-2.5212,-2.6148,-2.7296,-2.8492,-2.8186,-2.7213,-2.6555,-2.5743,-2.4822,-2.4111,-2.4723,-2.543,-2.4515,-2.3411,-2.2393,-2.1683,-2.135,-2.127,-2.1322,-2.2646,-2.3731,-2.3284,-2.4185,-2.4961,-2.468,-2.549,-2.595,-2.5683,-2.4367,-2.3209,-2.2862,-2.0816,-1.9372,-1.9372,-1.9372,-1.9372,-1.9372,-1.9372,-1.9372,-1.9372,-1.9372,-1.9372,-1.9372,-1.9372,-1.9372,-1.9372,-1.9372,-1.9372,-1.9372,-1.9065,-1.8931,-1.8958,-1.8798,-1.8811,-3.6358,-3.6243,-3.6202,-3.6814,-3.6259,-3.5304,-3.4865,-3.383,-3.3095,-3.3708,0.0,0.0,0.0,-3.724,0.0,-3.8253,-3.6325,-3.5277,-3.6016,-3.5762,-3.5918,-3.7148,-3.6348,-3.6074,-3.7051,-3.6465,-3.584,-3.543,-3.5391,-3.5195,-3.4726,-3.4609,-3.4394,-3.4082,-3.3965,-3.375,-3.3418,-3.3418,-3.3165,-3.2746,-3.1119,-2.9849,-2.8749,-2.5659,-2.4082,-2.3806,-2.2314,-2.2827,-2.4778,-2.6106,-2.7572,-2.9157,-3.0392,-3.0392,-2.9412,-2.6953,-2.4778,-2.3281,-2.4731,-2.5965,-2.6946,-2.8401,-2.791,-2.6628,-2.5842,-2.44,-2.284,-2.2213,-2.3475,-2.4408,-2.2825,-2.2527,-2.2408,-2.0879,-2.1554,-2.2521,-2.2513,-2.4039,-2.5155,-2.4855,-2.5583,-2.6036,-2.5374,-2.6364,-2.6996,-2.6264,-2.4906,-2.3942,-2.3553,-2.1148,-1.9546,-1.9479,-1.9466,-1.9439,-1.9372,-1.9372,-1.9372,-1.9372,-1.9372,-1.9372,-1.9372,-1.9372,-1.9372,-1.9372,-1.9372,-1.9372,-1.9372,-1.9132,-1.9105,-1.9265,-1.9105,-1.9118,-3.6358,-3.5819,-3.5451,-3.6223,-3.6408,-3.618,-3.58,-3.523,-3.5159,-3.6256,-3.6573,-3.674,-3.7133,-3.7008,-3.6246,-3.4198,-3.6071,-3.7575,-3.6819,0.0,-3.7598,-3.7324,-3.6875,-3.6621,-3.6699,-3.6289,-3.584,-3.543,-3.5391,-3.5195,-3.4726,-3.4336,-3.4101,-3.4082,-3.3691,-3.3457,-3.3418,-3.3418,-3.2619,-3.1029,-3.0882,-2.8785,-2.4948,-2.4645,-2.4172,-2.3604,-2.3464,-2.5146,-2.8051,-2.817,-2.9157,-3.0762,-3.0879,-2.9039,-2.6349,-2.6106,-2.4039,-2.1672,-2.4369,-2.5423,-2.5864,-2.8144,-2.8777,-2.8191,-2.5353,-2.4483,-2.4039,-2.1516,-2.1118,-2.1461,-2.1308,-2.2181,-2.3036,-2.2778,-2.4061,-2.5159,-2.4285,-2.5955,-2.7409,-2.6691,-2.8015,-2.8745,-2.6879,-2.6888,-2.6522,-2.4775,-2.3403,-2.2676,-2.2646,-2.111,-2.0067,-1.98,-1.9773,-1.9653,-1.9386,-1.9372,-1.9372,-1.9372,-1.9372,-1.9372,-1.9372,-1.9372,-1.9372,-1.9372,-1.9372,-1.9372,-1.9372,-1.9345,-1.9199,-1.8958,-1.9212,-1.9199,-3.6358,-3.6447,-3.6504,-3.6814,-3.6406,-3.5961,-3.5509,-3.5128,-3.512,-3.5833,-3.7496,-3.9029,-3.9443,0.0,-3.6082,-3.5913,-3.6365,-3.6813,-3.674,-3.6953,-3.7187,-3.7285,-3.668,-3.6367,-3.6641,-3.6269,-3.5723,-3.5019,-3.4961,-3.4648,-3.3945,-3.3496,-3.3398,-3.3652,-3.3262,-3.3164,-3.3418,-3.3164,-3.1589,-2.8854,-2.8854,-2.7409,-2.496,-2.4426,-2.4112,-2.3858,-2.4749,-2.6349,-2.8426,-2.8426,-2.9412,-3.0898,-3.0898,-2.892,-2.5984,-2.5984,-2.4532,-2.2908,-2.4731,-2.6033,-2.714,-2.8821,-2.8742,-2.7697,-2.6548,-2.5775,-2.5038,-2.3987,-2.3902,-2.387,-2.2704,-2.2681,-2.3203,-2.3724,-2.5127,-2.6136,-2.5482,-2.7048,-2.8388,-2.8085,-2.9138,-2.943,-2.7646,-2.7723,-2.7246,-2.5194,-2.3754,-2.2826,-2.2513,-2.118,-2.0187,-2.008,-1.9907,-1.9679,-1.9399,-1.9372,-1.9372,-1.9372,-1.9372,-1.9372,-1.9372,-1.9372,-1.9372,-1.9372,-1.9372,-1.9372,-1.9372,-1.9372,-1.9305,-1.9199,-1.9319,-1.9305,-3.5259,-3.5113,-3.5131,-3.5695,0.0,0.0,-3.5734,-3.5584,-3.5504,-3.6714,-3.8265,-3.9518,-3.9919,-3.7254,-3.5129,0.0,-3.591,-3.5918,-3.623,-3.6269,-3.6367,-3.666,-3.6055,-3.5723,-3.6016,-3.5918,-3.5449,-3.457,-3.4629,-3.4336,-3.3476,-3.3027,-3.293,-3.3223,-3.2812,-3.2734,-3.3027,-3.2734,-3.1177,-2.8222,-2.823,-2.6889,-2.471,-2.4756,-2.4984,-2.5482,-2.6344,-2.7692,-2.9157,-2.9157,-2.9903,-3.0898,-3.0898,-2.892,-2.6106,-2.6591,-2.5391,-2.39,-2.5704,-2.7051,-2.8191,-2.943,-2.9069,-2.8122,-2.7664,-2.69,-2.6185,-2.5827,-2.5907,-2.5797,-2.4964,-2.4779,-2.4843,-2.5175,-2.659,-2.7642,-2.6974,-2.7488,-2.8248,-2.8248,-2.8333,-2.7998,-2.6468,-2.6525,-2.6231,-2.4186,-2.3033,-2.2422,-2.2097,-2.1107,-2.0441,-2.0254,-2.0054,-1.9813,-1.9533,-1.9506,-1.9506,-1.9506,-1.9863,-2.0141,-2.0141,-2.0486,-2.0601,-2.0155,-2.0141,-1.9809,-1.9372,-1.9372,-1.9372,-1.9372,-1.9372,-1.9372,-3.2632,-3.1316,-3.0724,-3.2546,0.0,0.0,-3.6567,-3.6772,-3.6883,-3.9528,-3.8919,-3.7992,-3.8349,-3.5328,-3.293,-3.334,-3.4531,-3.5391,-3.5391,-3.5391,-3.5391,-3.5391,-3.498,-3.4707,-3.4707,-3.5117,-3.5019,-3.4141,-3.4453,-3.4316,-3.3476,-3.3008,-3.2793,-3.2793,-3.2383,-3.2168,-3.2168,-3.2168,-3.1256,-2.9457,-2.9202,-2.7272,-2.4052,-2.5641,-2.7173,-2.8426,-2.8426,-2.9412,-3.0898,-3.0898,-3.0898,-3.0898,-3.0898,-2.892,-2.6227,-2.7811,-2.6365,-2.4054,-2.7331,-2.8426,-2.8592,-2.9872,-3.0195,-2.9967,-2.8315,-2.7849,-2.757,-2.6369,-2.6106,-2.647,-2.8051,-2.8408,-2.821,-2.7319,-2.8709,-2.9844,-2.8574,-2.7506,-2.6659,-2.6659,-2.5697,-2.4444,-2.2944,-2.314,-2.2974,-2.097,-2.0922,-2.1109,-2.1109,-2.1109,-2.0882,-2.0294,-2.0241,-2.012,-1.9826,-1.98,-1.98,-1.98,-2.0989,-2.1586,-2.1586,-2.3039,-2.3039,-2.1586,-2.1586,-2.0802,-1.9372,-1.9372,-1.9372,-1.9372,-1.9372,-1.9372,-3.2544,-3.2129,-3.2037,-3.2855,-3.3376,-3.4499,0.0,-3.7793,0.0,-4.0903,-4.1117,-4.0071,-3.7667,-3.6205,-3.4879,-3.3296,-3.3809,-3.4473,-3.4473,-3.4726,-3.4902,-3.4902,-3.4785,-3.4707,-3.4707,-3.4824,-3.4668,-3.4121,-3.418,-3.4023,-3.3457,-3.2734,-3.248,-3.2793,-3.209,-3.1855,-3.2168,-3.1875,-3.0838,-2.9184,-3.0024,-2.8751,-2.5766,-2.7122,-2.8037,-2.8426,-2.9648,-3.0392,-3.0898,-3.0898,-3.0898,-3.0898,-3.0898,-2.892,-2.6106,-2.6591,-2.6106,-2.5375,-2.6349,-2.817,-3.0255,-3.0606,-3.0684,-3.0568,-3.0083,-2.9966,-2.9868,-2.9512,-2.9412,-2.9456,-2.964,-2.9661,-2.9527,-2.8993,-2.9312,-2.9492,-2.8496,-2.7262,-2.6388,-2.6852,-2.5887,-2.4606,-2.3566,-2.3439,-2.3047,-2.124,-2.1056,-2.1109,-2.1109,-2.1109,-2.0962,-2.0588,-2.0548,-2.0428,-2.0134,-2.0107,-2.0013,-1.9813,-2.1074,-2.1379,-2.004,-2.1472,-2.1586,-2.004,-2.004,-1.9809,-1.9372,-1.9372,-1.9372,-1.9372,-1.9573,-1.9666,-3.1358,-3.1125,-3.1294,-3.1954,-3.2827,-3.4043,-3.6477,-3.8431,-4.0307,-4.2114,-4.115,-3.9299,-3.7061,-3.5749,-3.4548,-3.323,-3.334,-3.3633,-3.3789,-3.375,-3.375,-3.3926,-3.3789,-3.3769,-3.3926,-3.4101,-3.4082,-3.3828,-3.3965,-3.3887,-3.3437,-3.2617,-3.2285,-3.2539,-3.1719,-3.1406,-3.166,-3.1406,-3.0776,-2.9785,-3.0526,-2.9917,-2.8268,-2.903,-2.9394,-2.9412,-3.0509,-3.0898,-3.0898,-3.0898,-3.0509,-2.9903,-2.9903,-2.7949,-2.5253,-2.647,-2.6591,-2.6227,-2.7452,-2.9275,-3.0898,-3.0898,-3.0898,-3.0898,-3.0898,-3.0392,-2.9903,-2.9903,-2.9789,-2.96,-2.9316,-2.9603,-2.9844,-2.9414,-2.9453,-2.9336,-2.8476,-2.6866,-2.5656,-2.5813,-2.4363,-2.2977,-2.2407,-2.242,-2.2215,-2.1235,-2.1109,-2.1109,-2.1109,-2.1109,-2.1002,-2.0708,-2.0775,-2.0735,-2.0441,-2.0414,-2.0281,-1.9987,-2.1231,-2.1249,-1.9488,-2.1373,-2.1813,-2.0256,-2.0256,-2.004,-1.9372,-1.9372,-1.9372,-1.9372,-1.9546,-1.9693,-2.9928,-2.9388,-2.9258,-3.0664,-3.1525,-3.2595,-3.4914,-3.8618,-4.1774,-4.2296,-3.9422,-3.6623,-3.6478,-3.4427,-3.291,-3.3242,-3.2988,-3.2871,-3.3262,-3.2656,-3.2305,-3.2695,-3.2402,-3.2324,-3.2695,-3.3086,-3.3301,-3.3301,-3.3672,-3.373,-3.332,-3.2539,-3.2109,-3.2109,-3.1309,-3.0898,-3.0898,-3.0898,-3.0898,-3.0898,-3.0898,-3.0762,-3.0645,-3.0879,-3.0898,-3.0898,-3.0898,-3.0762,-3.0645,-3.0645,-2.9648,-2.817,-2.817,-2.6365,-2.3931,-2.6849,-2.7073,-2.647,-2.9412,-3.0645,-3.0898,-3.0898,-3.0898,-3.0879,-3.0762,-2.9648,-2.8408,-2.817,-2.802,-2.7831,-2.7795,-2.869,-2.9453,-2.9023,-2.9219,-2.9297,-2.83,-2.6435,-2.4548,-2.3811,-2.2068,-2.0561,-2.0307,-2.0722,-2.1082,-2.1109,-2.1109,-2.1109,-2.1109,-2.1109,-2.1002,-2.0748,-2.0949,-2.1002,-2.0735,-2.0722,-2.0575,-2.0254,-2.1242,-2.1045,-1.9502,-2.204,-2.2927,-2.1472,-2.1358,-2.0702,-1.9372,-1.9372,-1.9372,-1.9372,-1.9399,-1.9546,-3.1761,-3.0359,0.0,-3.1387,-3.4023,-3.6519,-3.8328,-3.8466,-3.8135,-3.7385,-3.6891,-3.6165,-3.4478,-3.3375,-3.2715,-3.248,-3.2363,-3.2344,-3.2422,-3.2285,-3.2207,-3.2285,-3.2226,-3.2207,-3.2285,-3.2383,-3.2441,-3.2441,-3.2519,-3.2539,-3.2441,-3.1934,-3.166,-3.166,-3.1152,-3.0898,-3.0898,-3.0898,-3.0898,0.0,-3.0898,-3.0274,-2.9039,-3.0274,-3.0898,-3.0898,-3.0898,-3.0138,-2.892,-2.892,-2.7931,-2.647,-2.647,-2.5253,-2.3698,-2.4425,-2.5269,-2.6106,-2.6832,-2.8801,-3.0898,-3.0898,-3.0898,-3.0645,-2.9294,-2.8664,-2.817,-2.6832,-2.7173,-2.7777,-2.7337,-2.8465,-2.9453,-2.9023,-2.8984,-2.8674,-2.7253,-2.5631,-2.4072,-2.2935,-2.1498,-2.0374,-2.0548,-2.0681,-2.0842,-2.1069,-2.1109,-2.1109,-2.1109,-2.1109,-2.1082,-2.1029,-2.1069,-2.1082,-2.1029,-2.1015,-2.0788,-2.0267,-2.0402,-2.0251,-1.9386,-2.1145,-2.1373,-1.9924,-1.9924,-1.9707,-1.9372,-1.9372,-1.9372,-1.9372,-1.9599,-1.9733,-3.2175,0.0,0.0,-3.2539,0.0,-3.6603,-3.7126,-3.6535,-3.5509,-3.449,-3.4614,-3.4407,-3.3015,-3.2637,-3.2422,-3.2207,-3.1992,-3.1855,-3.1855,-3.168,-3.1562,-3.1562,-3.1562,-3.1641,-3.1836,-3.1855,-3.1953,-3.2148,-3.2168,-3.2168,-3.2168,-3.1758,-3.1523,-3.1523,-3.1113,-3.0898,-3.0898,-3.0898,-3.0898,-3.0898,-3.0138,-2.8783,-2.7314,-2.8718,-2.8997,-2.8373,-2.8909,-2.8217,-2.6776,-2.6776,-2.593,-2.4648,-2.4648,-2.4147,-2.3698,-2.4409,-2.5741,-2.7314,-2.8068,-2.9412,-3.0762,-3.002,-2.9648,-2.9412,-2.7811,-2.6712,-2.5879,-2.5146,-2.5605,-2.6248,-2.6231,-2.7691,-2.9199,-2.8965,-2.9238,-2.925,-2.8238,-2.639,-2.4662,-2.3858,-2.1881,-2.0494,-2.0655,-2.0788,-2.0935,-2.1082,-2.1109,-2.1109,-2.1109,-2.1109,-2.1109,-2.1109,-2.1109,-2.1109,-2.1109,-2.1109,-2.0855,-2.0267,-2.0227,-1.9973,-1.9399,-2.0141,-2.0141,-1.9372,-1.9372,-1.9372,-1.9372,-1.9372,-1.9372,-1.9372,-1.9519,-1.9666,-3.2653,0.0,-3.1855,-3.3633,-3.4805,0.0,-3.4824,-3.4375,-3.3809,-3.2871,-3.2637,-3.2461,-3.2129,-3.1992,-3.1953,-3.1953,-3.1641,-3.1406,-3.1406,-3.1113,-3.0898,-3.0898,-3.0898,-3.1035,-3.1367,-3.1406,-3.1562,-3.1914,-3.1953,-3.1953,-3.1953,-3.1601,-3.1406,-3.1406,-3.1074,-3.0898,-3.0898,-3.0898,-3.0859,-3.0762,-2.8737,-2.7004,-2.5424,-2.6388,-2.6403,-2.5661,-2.6545,-2.6123,-2.4678,-2.4678,-2.3913,-2.2642,-2.2929,-2.3245,-2.3731,-2.5359,-2.7073,-2.8545,-3.002,-3.0645,-3.0645,-2.892,-2.8426,-2.8051,-2.6106,-2.4655,-2.3574,-2.3201,-2.396,-2.4825,-2.5238,-2.7211,-2.9141,-2.9141,-2.9746,-3.0042,-2.9234,-2.715,-2.5192,-2.4594,-2.2495,-2.0655,-2.0615,-2.0882,-2.1109,-2.1109,-2.1109,-2.1109,-2.1109,-2.1109,-2.1109,-2.1109,-2.1109,-2.1109,-2.1109,-2.1109,-2.0882,-2.0347,-2.0267,-2.0,-1.9466,-1.9399,-1.9372,-1.9372,-1.9372,-1.9372,-1.9372,-1.9372,-1.9372,-1.9372,-1.9372,-1.9492,-3.5423,0.0,-3.3711,0.0,-3.5019,-3.5723,0.0,0.0,-3.373,0.0,-3.1953,-3.168,-3.1621,-3.1309,-3.1055,-3.1055,-3.1016,-3.0976,-3.0976,-3.0918,-3.0898,-3.0898,-3.0898,-3.0918,-3.0976,-3.0976,-3.0996,-3.1055,-3.1055,-3.1055,-3.1055,-3.0996,-3.0976,-3.0976,-3.0918,-3.0898,-3.0898,-3.0898,-3.0684,-3.0273,-2.6964,-2.459,-2.3184,-2.2935,-2.3794,-2.5559,-2.5746,-2.4736,-2.3062,-2.3062,-2.202,-2.0794,-2.2491,-2.311,-2.3414,-2.5262,-2.7073,-2.8426,-2.8664,-2.9648,-3.0645,-2.892,-2.8426,-2.7811,-2.4778,-2.3822,-2.3325,-2.1853,-2.3275,-2.5255,-2.5304,-2.7607,-3.0019,-3.0019,-3.043,-3.0103,-2.7435,-2.5639,-2.4136,-2.3016,-2.1675,-2.0601,-2.0334,-2.0748,-2.1109,-2.1109,-2.1109,-2.1109,-2.1109,-2.1109,-2.1109,-2.1109,-2.1109,-2.1109,-2.1109,-2.1109,-2.0962,-2.0641,-2.0374,-2.008,-1.976,-1.9506,-1.9372,-1.9372,-1.9372,-1.9372,-1.9372,-1.9372,-1.9372,-1.9372,-1.9372,-1.9386,-3.4843,-3.3669,-3.2871,0.0,-3.4512,-3.4824,-3.4434,-3.4023,-3.3476,-3.2676,-3.1992,-3.1445,-3.1211,-3.1016,-3.0898,-3.0898,-3.0898,-3.0898,-3.0898,-3.0898,-3.0898,-3.0898,-3.0898,-3.0898,-3.0898,-3.0898,-3.0898,-3.0898,-3.0898,-3.0898,-3.0898,-3.0898,-3.0898,-3.0898,-3.0644,-3.0508,-3.0508,-2.9431,-2.7919,-2.5963,-2.4408,-2.281,-2.1286,-2.1964,-2.2305,-2.2394,-2.3123,-2.2387,-2.0897,-2.1686,-2.1788,-2.1403,-2.3361,-2.4801,-2.5863,-2.6936,-2.8426,-2.9747,-2.9483,-3.0064,-3.0606,-2.8663,-2.8246,-2.7931,-2.5635,-2.4301,-2.345,-2.2716,-2.3795,-2.5353,-2.5567,-2.7975,-3.0195,-3.0195,-2.9642,-2.8737,-2.7146,-2.5887,-2.4322,-2.2011,-2.1067,-2.0681,-2.0722,-2.0935,-2.1109,-2.1109,-2.1109,-2.1109,-2.1109,-2.1109,-2.1109,-2.1109,-2.1109,-2.1109,-2.1109,-2.1109,-2.0989,-2.0695,-2.0548,-2.0281,-1.9813,-1.9679,-1.9533,-1.9372,-1.9372,-1.9372,-1.9372,-1.9372,-1.9372,-1.9372,-1.9533,-1.9519,0.0,0.0,-3.2852,-3.3689,-3.4366,-3.4536,0.0,0.0,-3.3281,0.0,-3.2051,-3.1387,-3.0976,-3.0898,-3.0898,-3.0898,-3.1228,-3.1441,-3.1441,-3.1441,-3.1441,-3.1441,-3.1112,-3.0898,-3.0898,-3.0898,-3.0898,-3.0898,-3.0898,-3.0898,-3.0898,-3.0781,-3.0723,-3.0723,-3.0273,-2.9925,-2.9451,-2.7518,-2.5242,-2.2571,-2.2496,-2.1758,-2.0585,-2.1758,-2.1745,-2.0812,-2.1895,-2.1561,-2.0601,-2.1699,-2.2291,-2.2667,-2.4614,-2.629,-2.7741,-2.8608,-2.9672,-3.084,-3.0488,-3.0605,-3.0587,-2.8572,-2.8174,-2.8051,-2.647,-2.513,-2.4178,-2.4178,-2.5076,-2.6116,-2.6523,-2.8428,-3.0256,-2.9872,-2.8811,-2.7615,-2.6192,-2.5427,-2.3987,-2.1176,-2.0681,-2.0828,-2.0975,-2.1434,-2.1727,-2.1727,-2.1727,-2.1727,-2.1727,-2.1348,-2.1109,-2.1109,-2.1109,-2.1109,-2.1109,-2.1109,-2.1015,-2.0802,-2.0722,-2.0481,-2.004,-1.988,-1.9693,-1.9479,-1.9399,-1.9372,-1.9372,-1.9372,-1.9372,-1.9372,-1.9586,-1.9834,0.0,-3.5237,0.0,-3.3896,-3.4876,0.0,0.0,0.0,-3.3184,-3.2363,-3.1836,-3.1387,-3.0976,-3.0898,-3.0898,-3.0898,-3.2092,-3.2964,-3.2964,-3.2964,-3.2964,-3.2964,-3.1767,-3.0898,-3.0898,-3.0898,-3.0898,-3.0898,-3.0898,-3.0898,-3.0898,-3.0469,-3.0234,-3.0234,-2.9824,-2.8897,-2.75,-2.5611,-2.3811,-2.2195,-2.1895,-2.1631,-2.1517,-2.1631,-2.241,-2.3648,-2.3975,-2.3926,-2.3599,-2.3599,-2.3727,-2.3888,-2.5845,-2.6929,-2.7555,-2.9374,-3.0392,-3.0879,-3.0859,-3.0859,-3.0645,-2.8883,-2.8408,-2.8051,-2.647,-2.5984,-2.5863,-2.5863,-2.7056,-2.8271,-2.8289,-2.9512,-3.047,-2.8883,-2.839,-2.7327,-2.3557,-2.2841,-2.2506,-2.0551,-2.0708,-2.1002,-2.0748,-2.2281,-2.345,-2.345,-2.345,-2.345,-2.345,-2.209,-2.1109,-2.1109,-2.1109,-2.1109,-2.1109,-2.1109,-2.1096,-2.1082,-2.0828,-2.0668,-2.0628,-2.0094,-1.9786,-1.9773,-1.9506,-1.9372,-1.9372,-1.9372,-1.9372,-1.9372,-1.9386,-2.0308,-3.4456,0.0,0.0,-3.3591,-3.3809,-3.385,-3.2868,-3.2617,-3.2539,-3.2226,-3.1816,-3.1465,-3.1328,-3.1852,-3.2301,-3.2301,-3.3529,-3.4515,-3.4515,-3.3733,-3.3077,-3.3077,-3.1767,-3.0898,-3.0898,-3.0898,-3.0898,-3.0898,-3.0898,-3.0898,-3.0898,-3.0449,-3.0195,-3.0195,-2.9512,-2.7882,-2.5121,-2.3408,-2.2322,-2.1865,-2.1645,-2.2138,-2.3039,-2.4044,-2.482,-2.5388,-2.6427,-2.5732,-2.3933,-2.482,-2.5261,-2.5423,-2.7399,-2.8385,-2.8916,-2.9812,-3.0488,-3.0859,-3.0547,-3.0644,-3.0723,-2.9813,-2.9792,-2.9903,-2.9294,-2.8426,-2.7554,-2.7554,-2.7931,-2.8426,-2.8426,-2.9648,-3.0274,-2.7452,-2.6106,-2.4593,-2.2181,-2.1575,-2.13,-2.0899,-2.0815,-2.123,-2.2405,-2.227,-2.2341,-2.345,-2.2716,-2.1978,-2.1978,-2.1475,-2.1109,-2.1109,-2.1109,-2.1109,-2.1109,-2.1109,-2.1109,-2.1109,-2.1015,-2.0869,-2.0681,-2.0481,-2.0643,-2.116,-2.1378,-2.0779,-1.9372,-1.9372,-1.9466,-1.9653,-2.0996,-2.1832,-3.3448,-3.3347,0.0,0.0,0.0,-3.2851,-3.3341,0.0,-3.2693,-3.3289,-3.2727,-3.2093,-3.2093,-3.2621,-3.2964,-3.2416,-3.3642,-3.4515,-3.4515,-3.3733,-3.3077,-3.3077,-3.1767,-3.0898,-3.0898,-3.0898,-3.0898,-3.0898,-3.0742,0.0,-3.0664,-3.0098,-2.9463,-2.8859,-2.7734,-2.6095,-2.3822,-2.2363,-2.1813,-2.2363,-2.2255,-2.3039,-2.4599,-2.5466,-2.6245,-2.6933,-2.7833,-2.7168,-2.5388,-2.6391,-2.6825,-2.6971,-2.825,-2.8965,-2.9394,-2.9668,-3.0059,-3.043,-3.0254,-3.0391,-3.0625,-3.0488,-3.0527,-3.0684,-3.084,-3.0043,-2.909,-2.9238,-2.9275,-2.9275,-2.9275,-2.9275,-2.8545,-2.5863,-2.3931,-2.2466,-2.1348,-2.0962,-2.0882,-2.1069,-2.0949,-2.1243,-2.2548,-2.2341,-2.2341,-2.345,-2.2591,-2.1978,-2.1978,-2.1475,-2.1109,-2.1109,-2.1109,-2.1109,-2.1109,-2.1109,-2.1109,-2.1109,-2.1109,-2.1029,-2.0828,-2.1218,-2.1797,-2.2423,-2.3104,-2.2833,-2.1365,-2.0798,-2.0559,-2.0767,-2.2142,-2.3361,0.0,0.0,0.0,-3.3675,0.0,0.0,-3.5268,0.0,-3.3614,-3.5422,-3.4372,-3.3056,-3.3077,-3.3077,-3.253,-3.1112,-3.2207,-3.3191,-3.3191,-3.3077,-3.3077,-3.3077,-3.1767,-3.0898,-3.0898,-3.0898,-3.0898,-3.0898,-3.0449,-3.0195,-3.0195,-2.9375,-2.8038,-2.6173,-2.4582,-2.3805,-2.3805,-2.2348,-2.2332,-2.3789,-2.3459,-2.4241,-2.61,-2.5631,-2.6561,-2.8281,-2.8281,-2.8301,-2.8301,-2.8301,-2.8301,-2.8301,-2.8301,-2.8555,-2.8926,-2.8926,-2.9199,-2.9629,-3.0039,-3.0176,-3.0254,-3.0703,-3.0547,-3.0254,-3.0723,-3.0547,-3.0293,-3.0742,-3.0879,-3.0898,-3.0898,-2.8426,-2.5619,-2.3931,-2.2341,-2.1109,-2.1109,-2.1109,-2.1109,-2.1109,-2.1109,-2.1109,-2.1109,-2.2466,-2.3574,-2.3574,-2.3574,-2.3574,-2.3574,-2.2104,-2.1109,-2.1109,-2.1109,-2.1109,-2.1109,-2.1109,-2.1109,-2.1109,-2.1109,-2.1109,-2.1109,-2.2414,-2.3081,-2.3202,-2.4521,-2.5161,-2.5144,-2.352,-2.284,-2.284,-2.2736,-2.4671,-3.1274,0.0,0.0,0.0,0.0,0.0,-3.2769,0.0,-3.3378,-3.3304,-3.286,-3.223,-3.1592,-3.1556,-3.1325,-3.0995,-3.2985,-3.4736,-3.4736,-3.3733,-3.3077,-3.3077,-3.1767,-3.0898,-3.0898,-3.0898,-3.0898,0.0,-3.0449,-3.0195,-3.0195,-2.8351,-2.6921,-2.6173,-2.4343,-2.3332,-2.3332,-2.2634,-2.3046,-2.4544,-2.472,-2.5466,-2.674,-2.7218,-2.767,-2.7851,-2.8164,-2.8301,-2.8301,-2.8301,-2.8301,-2.8301,-2.8301,-2.8555,-2.8926,-2.8926,-2.9199,-2.959,-2.9707,-2.9746,-2.9766,-2.9902,-2.9844,-2.9766,-2.9902,-3.0059,-3.0234,-3.0351,-3.0625,-3.0645,-2.9412,-2.7572,-2.5619,-2.3931,-2.2341,-2.1475,-2.2591,-2.2952,-2.2591,-2.1362,-2.209,-2.2952,-2.2952,-2.2341,-2.2215,-2.345,-2.2591,-2.1853,-2.1853,-2.1348,-2.1109,-2.1109,-2.1109,-2.1109,-2.1109,-2.1109,-2.1109,-2.1109,-2.1109,-2.1109,-2.1109,-2.263,-2.3795,-2.4739,-2.6559,-2.7352,-2.707,-2.5277,-2.4574,-2.4833,-2.4972,-2.6217,-2.9962,-3.0223,-3.0745,-3.1,0.0,0.0,-3.3104,-3.342,-3.3525,0.0,-3.3247,-3.2505,-3.1503,-3.0928,-3.0605,-3.0605,-3.2014,-3.3183,-3.3395,-3.2758,-3.2207,-3.2207,-3.1441,-3.0898,-3.0898,-3.0898,-3.082,-3.0605,-3.0195,-2.954,-2.8482,-2.6529,-2.5395,-2.5168,-2.3913,-2.3511,-2.4145,-2.3679,-2.4228,-2.5722,-2.5796,-2.6229,-2.7031,-2.7344,-2.7559,-2.7676,-2.793,-2.8125,-2.8301,-2.8301,-2.8301,-2.8301,-2.8301,-2.8437,-2.8652,-2.8652,-2.8809,-2.9062,-2.9238,-2.9297,-2.9336,-2.9512,-2.9453,-2.9375,-2.9726,-2.9883,-3.0019,-3.0391,-3.0684,-3.0392,-2.8051,-2.6712,-2.5375,-2.3076,-2.2341,-2.2466,-2.345,-2.4655,-2.5146,-2.3435,-2.3435,-2.3574,-2.3574,-2.2215,-2.1475,-2.2466,-2.1727,-2.1109,-2.1109,-2.1109,-2.1109,-2.1109,-2.1109,-2.1109,-2.1109,-2.1109,-2.1109,-2.1109,-2.1109,-2.1348,-2.209,-2.3683,-2.5278,-2.6628,-2.8437,-2.8928,-2.8084,-2.7011,-2.6168,-2.5791,-2.661,-2.7194,-2.8398,-2.832,-2.8759,-3.0429,-2.9667,0.0,-3.4485,-3.4495,-3.3823,0.0,-3.4659,-3.3215,-3.1801,-3.0741,-3.0137,-3.0137,-3.0176,-3.0351,-3.082,-3.084,-3.084,-3.0879,-3.0898,-3.0898,-3.0898,-3.084,-3.0644,-3.0234,-2.9653,-2.8217,-2.5972,-2.4378,-2.3582,-2.3772,-2.3316,-2.386,-2.52,-2.5032,-2.5591,-2.6875,-2.6543,-2.6562,-2.6855,-2.6582,-2.6855,-2.7519,-2.7578,-2.7832,-2.8223,-2.8223,-2.8262,-2.8301,-2.8301,-2.8301,-2.8301,-2.8301,-2.8301,-2.834,-2.8711,-2.8848,-2.8906,-2.9297,-2.916,-2.8984,-2.9746,-2.9785,-2.9746,-3.0644,-3.0762,-2.9903,-2.6832,-2.5863,-2.5008,-2.1839,-2.2341,-2.3698,-2.3822,-2.6244,-2.8051,-2.6832,-2.5146,-2.3822,-2.3574,-2.2215,-2.1109,-2.1109,-2.1109,-2.1109,-2.1109,-2.1109,-2.1109,-2.1109,-2.1109,-2.1109,-2.1109,-2.1109,-2.1109,-2.1109,-2.1109,-2.1853,-2.3574,-2.5146,-2.6712,-2.8051,-2.9648,-2.9648,-2.817,-2.817,-2.7434,-2.5984,-2.7314,-2.7073,-2.832,-2.8535,-2.8839,-2.8886,-2.991,0.0,-3.2757,-3.3885,-3.4443,0.0,-3.333,-3.2503,-3.0469,-2.9852,-2.9687,-2.9687,-2.998,-3.0351,-3.082,-3.0566,-3.0469,-3.084,-3.0898,-3.0898,-3.0898,-3.0547,-3.0293,-3.0195,-2.8333,-2.6328,-2.4411,-2.2814,-2.2464,-2.3299,-2.283,-2.3246,-2.4289,-2.5158,-2.5681,-2.5996,-2.6269,-2.625,-2.5996,-2.6621,-2.6797,-2.666,-2.6992,-2.7383,-2.7793,-2.7793,-2.7988,-2.8301,-2.8301,-2.8301,-2.8301,-2.8301,-2.8301,-2.8301,-2.8379,-2.8418,-2.8437,-2.8516,-2.8476,-2.8437,-2.8613,-2.9082,-2.9746,-3.0644,-2.9903,-2.8426,-2.647,-2.5024,-2.3559,-2.1601,-2.2341,-2.3931,-2.5253,-2.7073,-2.8664,-2.9785,-2.7572,-2.513,-2.3822,-2.2215,-2.1109,-2.1109,-2.1109,-2.1109,-2.1109,-2.1109,-2.1109,-2.1109,-2.1109,-2.1109,-2.1109,-2.1109,-2.1109,-2.1109,-2.1109,-2.1853,-2.3574,-2.5146,-2.6106,-2.647,-2.6832,-2.6832,-2.647,-2.647,-2.6349,-2.5984,-2.5024,-2.4425,-2.8984,-2.9082,-2.9199,-2.8984,-2.961,0.0,0.0,-3.2712,-3.332,-3.1891,-3.2002,-3.1607,-2.9092,-2.8789,-2.8926,-2.8926,-2.9277,-2.9726,-3.0176,-3.041,-3.0625,-3.0859,-3.0898,-3.0898,-3.0898,-3.0469,-3.0019,-2.959,-2.7604,-2.5931,-2.5058,-2.3487,-2.3213,-2.427,-2.3891,-2.4156,-2.5226,-2.5544,-2.5742,-2.5742,-2.5957,-2.5957,-2.5762,-2.6191,-2.6387,-2.6406,-2.6602,-2.707,-2.7676,-2.7676,-2.791,-2.8301,-2.8301,-2.8301,-2.8301,-2.8301,-2.8301,-2.8301,-2.8301,-2.8301,-2.8301,-2.8301,-2.8301,-2.8379,-2.8809,-2.9531,-3.0198,-2.9789,-2.9039,-2.7811,-2.5375,-2.4178,-2.345,-2.2591,-2.3559,-2.5269,-2.6832,-2.7811,-2.8664,-2.953,-2.697,-2.4778,-2.4778,-2.2702,-2.1109,-2.1109,-2.1109,-2.1109,-2.1109,-2.1109,-2.1109,-2.1109,-2.1109,-2.1109,-2.1109,-2.1109,-2.1109,-2.1109,-2.1109,-2.1853,-2.3574,-2.4409,-2.513,-2.5984,-2.5253,-2.4778,-2.4778,-2.3915,-2.4039,-2.4778,-2.3931,-2.3201,-2.9668,-2.9629,-2.9648,-2.9492,-2.9297,-2.9411,0.0,0.0,0.0,-3.0535,-3.0932,-3.0673,-2.8296,0.0,0.0,0.0,0.0,0.0,0.0,-3.0137,0.0,-3.0742,-3.0684,-3.0703,-3.0879,-3.0391,-2.9595,-2.841,-2.7011,-2.5936,-2.57,-2.4488,-2.4319,-2.5344,-2.4966,-2.5311,-2.6387,-2.5957,-2.5742,-2.5742,-2.5742,-2.5742,-2.5742,-2.5742,-2.5937,-2.6269,-2.6269,-2.6758,-2.7539,-2.7539,-2.7832,-2.8301,-2.8301,-2.8301,-2.8301,-2.8301,-2.8301,-2.8301,-2.8301,-2.8301,-2.8301,-2.8301,-2.834,-2.8574,-2.9434,-3.0195,-3.0412,-2.8883,-2.817,-2.7331,-2.4301,-2.3574,-2.3574,-2.3201,-2.4532,-2.6227,-2.7211,-2.7692,-2.7931,-2.7931,-2.5635,-2.4054,-2.5253,-2.3062,-2.1109,-2.1109,-2.1109,-2.1109,-2.1109,-2.1109,-2.1109,-2.1109,-2.1109,-2.1109,-2.1109,-2.1109,-2.1109,-2.1109,-2.1109,-2.1853,-2.3574,-2.3574,-2.4178,-2.5497,-2.3931,-2.3076,-2.3076,-2.1727,-2.1853,-2.3076,-2.3076,-2.2341,-2.959,-2.9844,-2.9941,-2.918,-2.9531,-3.0083,-3.0369,0.0,-3.1021,-3.0412,0.0,-3.0037,-2.8522,0.0,0.0,-2.8223,0.0,0.0,-2.8926,-2.9414,-2.9863,-3.0234,-2.9941,-3.0019,-3.082,-3.0137,-2.8814,-2.6609,-2.6173,-2.548,-2.4156,-2.3933,-2.4319,-2.5344,-2.4966,-2.5311,-2.6387,-2.5957,-2.5742,-2.5742,-2.5742,-2.5742,-2.5742,-2.5742,-2.5762,-2.5801,-2.5801,-2.6289,-2.709,-2.709,-2.7559,-2.8301,-2.8301,-2.8301,-2.8301,-2.8301,-2.8301,-2.8301,-2.8301,-2.8301,-2.8301,-2.8301,-2.8535,-2.9004,-2.9863,-3.0195,-3.0007,-2.8792,-2.7314,-2.5863,-2.4054,-2.3574,-2.3201,-2.1727,-2.3792,-2.5619,-2.4425,-2.5269,-2.6227,-2.6227,-2.4778,-2.3698,-2.3807,-2.2341,-2.1109,-2.1109,-2.1109,-2.1109,-2.1109,-2.1109,-2.1109,-2.1109,-2.1109,-2.1109,-2.1109,-2.1109,-2.1109,-2.1109,-2.1109,-2.1853,-2.3574,-2.3574,-2.3698,-2.3822,-2.2215,-2.1362,-2.1362,-2.1235,-2.1235,-2.1362,-2.1362,-2.1235,-3.2065,-3.1462,-3.06,-3.0469,-3.0198,-2.9833,-2.9567,-3.0052,-3.0349,-2.9343,0.0,0.0,0.0,0.0,0.0,0.0,-2.8125,-2.8262,0.0,0.0,-2.8809,-2.9726,0.0,0.0,-2.9375,-2.9258,-2.8707,-2.7441,-2.7384,-2.706,-2.6499,-2.6391,-2.6532,-2.6673,-2.6608,-2.6416,-2.6387,-2.6211,-2.5996,-2.5742,-2.5742,-2.5742,-2.5742,-2.5742,-2.5742,-2.5742,-2.5742,-2.623,-2.7012,-2.7012,-2.7656,-2.8633,-2.8398,-2.8437,-2.8652,-2.8652,-2.8652,-2.8652,-2.8652,-2.8496,-2.834,-2.8574,-2.8945,-2.9414,-3.0019,-3.0391,-3.0277,-2.8865,-2.7931,-2.7073,-2.5375,-2.5024,-2.5008,-2.5253,-2.6349,-2.7194,-2.6486,-2.6227,-2.5741,-2.4778,-2.3311,-2.209,-2.209,-2.1601,-2.1109,-2.1109,-2.1109,-2.1109,-2.1109,-2.1109,-2.1109,-2.1109,-2.1109,-2.1109,-2.1109,-2.1109,-2.1109,-2.1109,-2.1978,-2.2466,-2.2215,-2.3076,-2.3076,-2.2215,-2.2466,-2.2591,-2.2591,-2.3435,-2.3915,-2.3915,-2.1964,-2.1109,-3.2721,-3.2114,-3.0997,-3.086,-3.0128,-2.9277,-2.8848,-2.9226,-2.9513,-2.8495,-2.885,0.0,0.0,0.0,-2.7715,-2.7812,0.0,-2.8047,-2.7871,-2.7734,-2.8008,-2.8945,-2.8965,0.0,0.0,-2.8672,-2.8691,-2.8164,-2.8223,-2.8242,-2.8125,-2.8223,-2.8144,-2.7851,-2.7734,-2.7363,-2.6738,-2.6504,-2.623,-2.5918,-2.5801,-2.5742,-2.5742,-2.5742,-2.5742,-2.5742,-2.5742,-2.623,-2.7012,-2.7012,-2.7773,-2.8887,-2.8457,-2.8613,-2.9082,-2.8965,-2.8926,-2.8945,-2.9062,-2.8906,-2.8711,-2.9141,-2.9492,-2.9824,-3.0254,-3.0625,-3.0528,-2.8902,-2.8426,-2.8051,-2.647,-2.6349,-2.6832,-2.7572,-2.8051,-2.8289,-2.7811,-2.6832,-2.5619,-2.4532,-2.3311,-2.2452,-2.2452,-2.209,-2.1601,-2.1109,-2.1475,-2.1601,-2.1109,-2.1109,-2.1109,-2.1109,-2.1109,-2.1109,-2.1109,-2.1109,-2.1362,-2.1727,-2.3325,-2.3683,-2.2452,-2.3559,-2.3683,-2.2452,-2.3683,-2.4301,-2.4301,-2.5375,-2.5984,-2.5984,-2.3062,-2.1853,-3.0127,-3.066,-3.1195,-2.9461,-2.8945,-2.8828,-2.8398,-2.8301,-2.8388,-2.8281,-2.8281,-2.8368,-2.8281,-2.793,-2.7793,-2.8203,-2.7949,0.0,0.0,-2.793,-2.7676,-2.7734,-2.8437,-2.875,0.0,-2.8672,-2.8574,-2.7754,-2.8066,-2.8125,-2.7715,-2.8066,-2.8281,-2.8281,-2.7871,-2.7656,-2.7617,-2.6797,-2.6387,-2.6367,-2.5937,-2.5742,-2.5742,-2.5742,-2.5742,-2.5742,-2.5742,-2.623,-2.7012,-2.7012,-2.7773,-2.8887,-2.8457,-2.8809,-2.9492,-2.9082,-2.8926,-2.8984,-2.9394,-2.9551,-2.959,-3.0019,-3.0176,-3.0254,-3.0723,-3.0879,-3.0528,-2.8902,-2.8426,-2.8051,-2.647,-2.7194,-2.7931,-2.647,-2.7314,-2.7931,-2.647,-2.6106,-2.5984,-2.5984,-2.5863,-2.5863,-2.5863,-2.4532,-2.2966,-2.1348,-2.2466,-2.2952,-2.1362,-2.1109,-2.1109,-2.1109,-2.1109,-2.1109,-2.1109,-2.1109,-2.1853,-2.345,-2.5008,-2.5863,-2.5863,-2.5863,-2.5863,-2.5863,-2.5863,-2.5984,-2.5984,-2.5984,-2.5984,-2.5984,-2.4301,-2.3574,0.0,0.0,-3.0238,-2.9921,-2.9319,-2.8809,-2.8398,-2.8301,-2.8301,-2.8301,-2.8301,-2.8301,-2.8301,-2.8184,-2.8125,-2.8262,-2.8184,-2.793,0.0,-2.6836,-2.6602,-2.7168,-2.7734,-2.791,-2.748,0.0,0.0,-2.7285,-2.7363,-2.7383,-2.7246,-2.7637,-2.7871,-2.7871,-2.8008,-2.7949,-2.7676,-2.709,-2.666,-2.6387,-2.5937,-2.5742,-2.5742,-2.5742,-2.5742,-2.5762,-2.6055,-2.6484,-2.7031,-2.7324,-2.8203,-2.9277,-2.8574,-2.8809,-2.9551,-2.9394,-2.9355,-2.9375,-2.9512,-2.957,-2.9648,-3.0059,-3.0195,-3.0293,-3.0762,-3.0898,-3.0762,-3.0274,-3.002,-2.9903,-2.9412,-2.9648,-2.9903,-2.9412,-2.9648,-2.9648,-2.7931,-2.7572,-2.7314,-2.6227,-2.5984,-2.5984,-2.5984,-2.647,-2.6227,-2.464,-2.4778,-2.5008,-2.4409,-2.4394,-2.3915,-2.2841,-2.2716,-2.2341,-2.1235,-2.209,-2.3435,-2.5146,-2.6712,-2.7073,-2.6106,-2.7073,-2.7073,-2.5984,-2.7073,-2.7572,-2.7572,-2.8664,-2.9275,-2.9157,-2.647,-2.4655,-3.1358,-3.068,0.0,-2.9656,-2.91,-2.8633,-2.8359,-2.8301,-2.8301,-2.8301,-2.8301,-2.8301,-2.8301,-2.8301,-2.8242,-2.8086,-2.8066,-2.7773,0.0,-2.6309,-2.6172,-2.6719,-2.7168,-2.7383,-2.7266,-2.75,-2.7422,-2.6836,-2.6934,-2.7012,0.0,0.0,-2.7734,-2.7891,-2.8144,-2.8164,-2.7891,-2.7461,-2.7031,-2.6602,-2.6172,-2.5879,-2.5742,-2.5898,-2.5977,-2.5996,-2.6426,-2.6855,-2.7266,-2.7559,-2.832,-2.9277,-2.8574,-2.8809,-2.957,-2.957,-2.9766,-3.0039,-3.0039,-3.0039,-3.0078,-3.0351,-3.0449,-3.0508,-3.0801,-3.0898,-3.0918,-3.1074,-3.0996,-3.0918,-3.1074,-3.0996,-3.0898,-3.0898,-3.0898,-3.0645,-2.953,-2.9275,-2.9039,-2.7931,-2.7692,-2.7692,-2.7692,-2.8545,-2.8545,-2.6349,-2.647,-2.6712,-2.6106,-2.5984,-2.5668,-2.4704,-2.4487,-2.4054,-2.2937,-2.3807,-2.5146,-2.6712,-2.8426,-2.8783,-2.7811,-2.8783,-2.8929,-2.8217,-2.8929,-2.9424,-2.9721,-3.0546,-3.0898,-3.0879,-2.817,-2.5984]},{"header":{"parameterUnit":"m.s-1","parameterCategory":1,"la1":30.6,"la2":29.2853,"lo1":-89.7004,"lo2":-87.6739,"dy":0.0162,"dx":0.0183,"nx":112,"ny":82,"refTime":"2023-08-09T12:00:00:Z","depth":0,"parameterNumber":3,"parameterNumberName":"V-component_of_WINDS"},"data":[0.0,0.0,0.0,0.0,0.0,0.0,0.0,0.0,0.0,0.0,0.0,0.0,0.0,0.0,0.0,0.0,0.0,0.0,0.0,0.0,0.0,0.0,0.0,0.0,0.0,0.0,0.0,0.0,0.0,0.0,0.0,0.0,0.0,0.0,0.0,0.0,0.0,0.0,0.0,0.0,0.0,0.0,0.0,0.0,0.0,0.0,0.0,0.0,0.0,0.0,0.0,0.0,0.0,0.0,0.0,0.0,0.0,0.0,0.0,0.0,0.0,0.0,0.0,0.0,0.0,0.0,0.0,0.0,0.0,0.0,0.0,0.0,0.0,0.0,0.0,0.0,0.0,0.0,0.0,0.0,0.0,0.0,0.0,0.0,0.0,0.0,0.0,0.0,0.0,0.0,-4.2388,-4.2625,-4.3809,-4.4891,-4.5635,-4.5602,-4.4654,-4.2591,0.0,0.0,0.0,0.0,0.0,0.0,0.0,0.0,0.0,0.0,0.0,0.0,0.0,0.0,0.0,0.0,0.0,0.0,0.0,0.0,0.0,0.0,0.0,0.0,0.0,0.0,0.0,0.0,0.0,0.0,0.0,0.0,0.0,0.0,0.0,0.0,0.0,0.0,0.0,0.0,0.0,0.0,0.0,0.0,0.0,0.0,0.0,0.0,0.0,0.0,0.0,0.0,0.0,0.0,0.0,0.0,0.0,0.0,0.0,0.0,0.0,0.0,0.0,0.0,0.0,0.0,0.0,0.0,0.0,0.0,0.0,0.0,0.0,0.0,0.0,0.0,0.0,0.0,0.0,0.0,0.0,0.0,0.0,0.0,0.0,0.0,0.0,0.0,0.0,0.0,0.0,0.0,0.0,0.0,0.0,0.0,0.0,0.0,0.0,0.0,0.0,0.0,0.0,0.0,-4.2794,-4.4079,-4.4451,-4.4891,-4.5635,-4.5128,-4.4316,-4.3301,0.0,0.0,0.0,0.0,0.0,0.0,0.0,0.0,0.0,0.0,0.0,0.0,0.0,0.0,0.0,0.0,0.0,0.0,0.0,0.0,0.0,0.0,0.0,0.0,0.0,0.0,0.0,0.0,0.0,0.0,0.0,0.0,0.0,0.0,0.0,0.0,0.0,0.0,0.0,0.0,0.0,0.0,0.0,0.0,0.0,0.0,0.0,0.0,0.0,0.0,0.0,0.0,0.0,0.0,0.0,0.0,0.0,0.0,0.0,0.0,0.0,0.0,0.0,0.0,0.0,0.0,0.0,0.0,0.0,0.0,0.0,0.0,0.0,0.0,0.0,0.0,0.0,0.0,0.0,0.0,0.0,0.0,0.0,0.0,0.0,0.0,0.0,0.0,0.0,0.0,0.0,0.0,0.0,0.0,0.0,0.0,0.0,0.0,0.0,0.0,0.0,0.0,0.0,-4.3166,-4.3335,-4.4451,-4.4587,-4.4891,-4.5635,-4.5026,-4.4248,-4.347,-4.3403,0.0,0.0,0.0,0.0,0.0,0.0,0.0,0.0,0.0,0.0,0.0,0.0,0.0,0.0,0.0,0.0,0.0,0.0,0.0,0.0,0.0,0.0,0.0,0.0,0.0,0.0,0.0,0.0,0.0,0.0,0.0,0.0,0.0,0.0,0.0,0.0,0.0,0.0,0.0,0.0,0.0,0.0,0.0,0.0,0.0,0.0,0.0,0.0,0.0,0.0,0.0,0.0,0.0,0.0,0.0,0.0,0.0,0.0,0.0,0.0,0.0,0.0,0.0,0.0,0.0,0.0,0.0,0.0,0.0,0.0,0.0,0.0,0.0,0.0,0.0,0.0,0.0,0.0,0.0,0.0,0.0,0.0,0.0,0.0,0.0,0.0,0.0,0.0,0.0,0.0,0.0,0.0,0.0,0.0,0.0,0.0,0.0,0.0,0.0,0.0,0.0,0.0,-4.391,-4.3707,-4.4485,-4.4587,-4.4823,-4.5399,-4.4756,-4.3978,-4.32,-4.3166,0.0,0.0,0.0,0.0,0.0,0.0,0.0,0.0,0.0,0.0,0.0,0.0,0.0,0.0,0.0,0.0,0.0,0.0,0.0,0.0,0.0,0.0,0.0,0.0,0.0,0.0,0.0,0.0,0.0,0.0,0.0,0.0,0.0,0.0,0.0,0.0,0.0,0.0,0.0,0.0,0.0,0.0,0.0,0.0,0.0,0.0,0.0,0.0,0.0,0.0,0.0,0.0,0.0,0.0,0.0,0.0,0.0,0.0,0.0,0.0,0.0,0.0,0.0,0.0,0.0,0.0,0.0,0.0,0.0,0.0,0.0,0.0,0.0,0.0,0.0,0.0,0.0,0.0,0.0,0.0,0.0,0.0,0.0,0.0,0.0,0.0,0.0,0.0,0.0,0.0,0.0,0.0,0.0,0.0,0.0,0.0,0.0,0.0,0.0,0.0,0.0,0.0,-4.391,-4.3707,-4.4485,-4.4587,-4.4587,-4.4654,-4.3944,-4.3166,-4.2422,-4.2388,0.0,0.0,0.0,0.0,0.0,0.0,0.0,0.0,0.0,0.0,0.0,0.0,0.0,0.0,0.0,0.0,0.0,0.0,0.0,0.0,0.0,0.0,0.0,0.0,0.0,0.0,0.0,0.0,0.0,0.0,0.0,0.0,0.0,0.0,0.0,0.0,0.0,0.0,0.0,0.0,0.0,0.0,0.0,0.0,0.0,0.0,0.0,0.0,0.0,0.0,0.0,0.0,0.0,0.0,0.0,0.0,0.0,0.0,0.0,0.0,0.0,0.0,0.0,0.0,0.0,0.0,0.0,0.0,0.0,0.0,0.0,0.0,0.0,0.0,0.0,0.0,0.0,0.0,0.0,0.0,0.0,0.0,0.0,0.0,0.0,0.0,0.0,0.0,0.0,0.0,0.0,0.0,0.0,0.0,0.0,0.0,0.0,0.0,0.0,0.0,0.0,0.0,-4.4722,-4.479,-4.4587,-4.4993,-4.5466,-4.5906,-4.4823,-4.4012,-4.3741,0.0,0.0,0.0,0.0,0.0,0.0,0.0,0.0,0.0,0.0,0.0,0.0,0.0,0.0,0.0,0.0,0.0,0.0,0.0,0.0,0.0,0.0,0.0,0.0,0.0,0.0,0.0,0.0,0.0,0.0,0.0,0.0,0.0,0.0,0.0,0.0,0.0,0.0,0.0,0.0,0.0,0.0,0.0,0.0,0.0,0.0,0.0,0.0,0.0,0.0,0.0,0.0,0.0,0.0,0.0,0.0,0.0,0.0,0.0,0.0,0.0,0.0,0.0,0.0,0.0,0.0,0.0,0.0,0.0,0.0,0.0,0.0,0.0,0.0,0.0,0.0,0.0,0.0,0.0,0.0,0.0,0.0,0.0,0.0,0.0,0.0,0.0,0.0,0.0,0.0,0.0,0.0,0.0,0.0,0.0,0.0,0.0,0.0,0.0,0.0,0.0,0.0,-4.4587,-4.5229,-4.55,-4.4993,-4.5602,-4.6244,-4.6752,-4.5196,-4.4316,-4.4553,0.0,0.0,0.0,0.0,0.0,0.0,0.0,0.0,0.0,0.0,0.0,0.0,0.0,0.0,0.0,0.0,0.0,0.0,0.0,0.0,0.0,0.0,0.0,0.0,0.0,0.0,0.0,0.0,0.0,0.0,0.0,0.0,0.0,0.0,0.0,0.0,0.0,0.0,0.0,0.0,0.0,0.0,0.0,0.0,0.0,0.0,0.0,0.0,0.0,0.0,0.0,0.0,0.0,0.0,0.0,0.0,0.0,0.0,0.0,0.0,0.0,0.0,0.0,0.0,0.0,0.0,0.0,0.0,0.0,0.0,0.0,0.0,0.0,0.0,0.0,0.0,0.0,0.0,0.0,0.0,0.0,0.0,0.0,0.0,0.0,0.0,0.0,0.0,0.0,0.0,0.0,0.0,0.0,0.0,0.0,0.0,0.0,0.0,0.0,0.0,0.0,0.0,-4.4587,-4.5263,-4.5703,-4.5703,-4.638,-4.6819,-4.6819,-4.4722,-4.3775,0.0,0.0,0.0,0.0,0.0,0.0,0.0,0.0,0.0,0.0,0.0,0.0,0.0,0.0,0.0,0.0,0.0,0.0,0.0,0.0,0.0,0.0,0.0,0.0,0.0,0.0,0.0,0.0,0.0,0.0,0.0,0.0,0.0,0.0,0.0,0.0,0.0,0.0,0.0,0.0,0.0,0.0,0.0,0.0,0.0,0.0,0.0,0.0,0.0,0.0,0.0,0.0,0.0,0.0,0.0,0.0,0.0,0.0,0.0,0.0,0.0,0.0,0.0,0.0,0.0,0.0,0.0,0.0,0.0,0.0,0.0,0.0,0.0,0.0,0.0,0.0,0.0,0.0,0.0,0.0,0.0,0.0,0.0,0.0,0.0,0.0,0.0,0.0,0.0,0.0,0.0,0.0,0.0,0.0,0.0,0.0,0.0,0.0,0.0,0.0,0.0,0.0,0.0,-4.5297,-4.6007,-4.6481,-4.6481,-4.7158,-4.7597,-4.7597,-4.5534,-4.4553,-4.5331,0.0,0.0,0.0,0.0,0.0,0.0,0.0,0.0,0.0,0.0,0.0,0.0,0.0,0.0,0.0,0.0,0.0,0.0,0.0,0.0,0.0,0.0,0.0,0.0,0.0,0.0,0.0,0.0,0.0,0.0,0.0,0.0,0.0,0.0,0.0,0.0,0.0,0.0,0.0,0.0,0.0,0.0,0.0,0.0,0.0,0.0,0.0,0.0,0.0,0.0,0.0,0.0,0.0,0.0,0.0,0.0,0.0,0.0,0.0,0.0,0.0,0.0,0.0,0.0,0.0,0.0,0.0,0.0,0.0,0.0,0.0,0.0,0.0,0.0,0.0,0.0,0.0,0.0,0.0,0.0,0.0,0.0,0.0,0.0,0.0,0.0,0.0,0.0,0.0,0.0,0.0,0.0,0.0,0.0,0.0,0.0,0.0,0.0,0.0,0.0,0.0,0.0,-4.5602,-4.6346,-4.6921,-4.7225,-4.7902,-4.8342,-4.8342,-4.6312,-4.5229,-4.5669,0.0,0.0,0.0,0.0,0.0,0.0,0.0,0.0,0.0,0.0,0.0,0.0,0.0,0.0,0.0,0.0,0.0,0.0,0.0,0.0,0.0,0.0,0.0,0.0,0.0,0.0,0.0,0.0,0.0,0.0,0.0,0.0,0.0,0.0,0.0,0.0,0.0,0.0,0.0,0.0,0.0,0.0,0.0,0.0,0.0,0.0,0.0,0.0,0.0,0.0,0.0,0.0,0.0,0.0,0.0,0.0,0.0,0.0,0.0,0.0,0.0,0.0,0.0,0.0,0.0,0.0,0.0,0.0,0.0,0.0,0.0,0.0,0.0,0.0,0.0,0.0,0.0,0.0,0.0,0.0,0.0,0.0,0.0,0.0,0.0,0.0,0.0,0.0,0.0,0.0,0.0,0.0,0.0,0.0,0.0,0.0,0.0,0.0,0.0,0.0,0.0,0.0,-4.5906,-4.6515,-4.7225,-4.8037,-4.8646,-4.9018,-4.9018,-4.7022,-4.5771,-4.5703,0.0,0.0,0.0,0.0,0.0,0.0,0.0,0.0,0.0,0.0,0.0,0.0,0.0,0.0,0.0,0.0,0.0,0.0,0.0,0.0,0.0,0.0,0.0,0.0,0.0,0.0,0.0,0.0,0.0,0.0,0.0,0.0,0.0,0.0,0.0,0.0,0.0,0.0,0.0,0.0,0.0,0.0,0.0,0.0,0.0,0.0,0.0,0.0,0.0,0.0,0.0,0.0,0.0,0.0,0.0,0.0,0.0,0.0,0.0,0.0,-4.9018,-4.9046,0.0,0.0,0.0,0.0,0.0,0.0,0.0,0.0,0.0,0.0,0.0,0.0,0.0,0.0,0.0,0.0,0.0,0.0,0.0,0.0,0.0,0.0,0.0,0.0,0.0,0.0,0.0,0.0,0.0,0.0,0.0,0.0,0.0,0.0,0.0,0.0,0.0,0.0,0.0,0.0,-4.8037,-4.7936,-4.8173,-4.9492,-4.9255,-4.9018,-4.9018,-4.7496,-4.6312,-4.5737,-4.4248,0.0,0.0,0.0,0.0,0.0,0.0,0.0,0.0,0.0,0.0,0.0,0.0,0.0,0.0,0.0,0.0,0.0,0.0,0.0,0.0,0.0,0.0,0.0,0.0,0.0,0.0,0.0,0.0,0.0,0.0,0.0,0.0,0.0,0.0,0.0,0.0,0.0,0.0,0.0,0.0,0.0,0.0,0.0,0.0,0.0,0.0,0.0,0.0,0.0,0.0,0.0,0.0,0.0,0.0,0.0,0.0,0.0,0.0,0.0,-5.115,-5.0688,0.0,0.0,0.0,0.0,0.0,0.0,0.0,0.0,0.0,0.0,0.0,0.0,0.0,0.0,0.0,0.0,0.0,0.0,0.0,0.0,0.0,0.0,0.0,0.0,0.0,0.0,0.0,0.0,0.0,0.0,0.0,0.0,0.0,0.0,0.0,0.0,0.0,0.0,0.0,0.0,-4.8748,-4.868,-4.8849,-4.9965,-4.9763,-4.939,-4.9052,-4.826,-4.7329,-4.6178,-4.5699,0.0,0.0,0.0,0.0,0.0,0.0,0.0,0.0,0.0,0.0,0.0,0.0,0.0,0.0,0.0,0.0,0.0,0.0,0.0,0.0,0.0,0.0,0.0,0.0,0.0,0.0,0.0,0.0,0.0,0.0,0.0,0.0,0.0,0.0,0.0,0.0,0.0,0.0,0.0,0.0,0.0,0.0,0.0,0.0,0.0,0.0,0.0,0.0,0.0,0.0,0.0,0.0,0.0,-5.3715,-5.4121,-5.4243,-5.4895,-5.4769,-5.4093,-5.4398,-5.3381,-5.1758,-5.3584,0.0,0.0,0.0,0.0,0.0,0.0,0.0,0.0,0.0,0.0,0.0,0.0,0.0,0.0,0.0,0.0,0.0,0.0,0.0,0.0,0.0,0.0,0.0,0.0,-5.0676,-5.0879,-4.9661,0.0,0.0,0.0,0.0,0.0,0.0,0.0,0.0,0.0,0.0,0.0,-4.8849,-4.9018,-4.9289,-4.9999,-5.0091,-4.9814,-4.9202,-4.9252,-4.8588,-4.6865,-4.7371,-4.6743,0.0,0.0,0.0,0.0,0.0,0.0,0.0,0.0,0.0,0.0,0.0,0.0,0.0,0.0,0.0,0.0,0.0,0.0,0.0,0.0,0.0,0.0,0.0,0.0,0.0,0.0,0.0,0.0,0.0,0.0,0.0,0.0,-4.6853,-4.7428,0.0,0.0,0.0,0.0,0.0,0.0,0.0,0.0,0.0,0.0,0.0,0.0,0.0,-5.1642,-5.3229,-5.5164,-5.6351,-5.6843,-5.747,-5.7975,-5.8241,-5.7673,-5.707,-5.6464,-5.7775,0.0,-5.3246,-5.3484,0.0,0.0,0.0,0.0,0.0,0.0,0.0,0.0,0.0,0.0,0.0,0.0,0.0,0.0,0.0,0.0,0.0,0.0,0.0,0.0,0.0,0.0,-5.0913,-5.0236,-5.0676,-5.1183,0.0,-5.1014,-5.0676,-4.9289,-4.8409,-4.7665,0.0,0.0,0.0,0.0,0.0,0.0,-4.8883,-4.9018,-4.9289,-4.9999,-5.0035,-4.9965,-4.9896,-5.0484,-4.9886,-4.766,-4.7652,-4.724,-4.6165,-4.6247,0.0,0.0,0.0,0.0,0.0,0.0,0.0,0.0,0.0,0.0,0.0,0.0,0.0,0.0,0.0,0.0,0.0,0.0,0.0,0.0,0.0,0.0,0.0,0.0,0.0,0.0,0.0,0.0,0.0,-4.6481,-4.7394,-4.7293,-4.8003,-4.8071,0.0,0.0,0.0,0.0,0.0,0.0,0.0,0.0,0.0,-5.3648,-5.4727,-5.5928,-5.7233,-5.8885,-5.9944,-6.0315,-6.0537,-6.0815,-6.1036,-6.0693,-6.0151,-5.9586,-6.0194,-5.9109,-5.6732,-5.6239,-5.5974,-5.5883,0.0,0.0,0.0,0.0,-5.5553,-5.5168,-5.4817,-5.4475,-5.44,-5.5424,0.0,0.0,0.0,0.0,0.0,0.0,0.0,0.0,0.0,0.0,-5.23,-5.1522,-5.1928,-5.2503,-5.2503,-5.2486,-5.2027,-5.0503,-4.9661,-4.9006,-4.8665,-4.8243,0.0,0.0,0.0,-5.048,-5.0771,-5.1153,-5.1454,-5.1292,-5.1263,-5.1099,-5.0643,-5.1241,-5.1034,-4.9578,-4.9469,-4.8851,-4.7506,-4.7907,-4.7809,0.0,0.0,0.0,0.0,0.0,0.0,0.0,0.0,0.0,0.0,0.0,0.0,0.0,0.0,0.0,0.0,0.0,0.0,0.0,0.0,0.0,0.0,0.0,0.0,0.0,0.0,0.0,0.0,-4.7597,-4.8477,-4.7733,-4.9173,-4.955,0.0,0.0,0.0,0.0,0.0,0.0,-5.245,-5.3472,-5.5131,-5.7572,-5.895,-6.0247,-6.1283,-6.2564,-6.3276,-6.3553,-6.3452,-6.3353,-6.345,-6.3067,-6.2533,-6.1876,-6.1884,-6.1152,-5.9834,-5.8779,-5.8032,-5.7469,-5.7273,-5.6933,-5.6582,-5.6783,-5.6489,-5.6004,-5.6004,-5.5893,-5.5759,-5.6184,-5.6354,-5.6364,-5.6541,0.0,0.0,0.0,0.0,-5.4042,-5.4102,-5.3977,-5.3713,-5.3528,-5.3639,-5.3815,-5.4011,-5.4067,-5.3524,0.0,-5.1042,-5.0686,-5.0641,-5.016,0.0,-5.0555,-5.1598,-5.2183,-5.1971,-5.2467,-5.2573,-5.1953,-5.2076,-5.1932,-5.1378,-5.197,-5.2055,-5.1221,-5.1104,-5.0362,-4.871,-4.904,-4.8379,-4.6544,0.0,0.0,0.0,0.0,0.0,0.0,0.0,0.0,0.0,0.0,0.0,0.0,0.0,0.0,0.0,0.0,0.0,0.0,0.0,0.0,0.0,0.0,0.0,0.0,0.0,0.0,0.0,0.0,0.0,-4.9999,-5.2191,0.0,0.0,0.0,0.0,-5.254,-5.3437,-5.5193,-5.7997,-5.8027,-5.9015,-6.1546,-6.3,-6.4228,-6.5377,-6.6279,-6.6712,-6.6754,-6.6215,-6.5893,-6.5855,-6.4407,-6.3341,-6.2655,-6.2677,-6.2176,-6.1368,-5.9817,-5.9168,-5.9095,-5.8263,-5.838,-5.8857,-5.7317,-5.6794,-5.6861,-5.6861,-5.6367,-5.6028,-5.7552,-5.8009,-5.769,-5.6227,-5.6299,0.0,0.0,-5.5186,-5.5653,-5.5653,-5.5168,-5.4992,-5.6341,-5.5574,-5.4757,-5.5437,-5.5574,-5.4944,0.0,-5.2327,-5.2254,-5.2272,0.0,-5.2254,-5.2254,-5.2272,-5.2059,-5.1367,-5.1244,-5.1192,-5.1157,-5.1714,-5.2101,-5.2065,-5.2725,-5.2815,-5.2009,-5.194,-5.1206,-4.9591,-4.8783,-4.8306,-4.8196,-4.6764,0.0,0.0,0.0,0.0,0.0,0.0,0.0,0.0,0.0,0.0,0.0,0.0,0.0,0.0,0.0,0.0,0.0,0.0,0.0,0.0,0.0,0.0,0.0,0.0,0.0,0.0,0.0,0.0,-5.3937,-5.7096,0.0,-5.47,-5.5435,-5.6084,-5.5886,-5.6727,-5.8293,-6.0588,-6.1435,-6.3012,-6.5697,-6.6844,-6.7373,-6.7284,-6.8224,-6.7936,-6.6426,-6.6211,-6.6185,-6.6236,-6.5125,-6.4531,-6.4327,-6.3838,-6.3142,-6.2303,-6.1208,-6.077,-6.0711,-5.9846,-5.9115,-5.8391,-5.7847,-5.7005,-5.6114,-5.6114,-5.5948,-5.5901,-5.6998,-5.7668,-5.7911,-5.7377,-5.7388,-5.7582,-5.7598,-5.7081,-5.6725,-5.7783,-5.6695,-5.5613,-5.668,-5.6082,-5.5379,-5.5667,-5.615,-5.6224,-5.5437,-5.4491,-5.3958,-5.4414,-5.4122,-5.395,-5.4386,-5.447,-5.4132,-5.338,-5.3225,-5.3044,-5.2536,-5.268,-5.2813,-5.2813,-5.2547,-5.2307,-5.2013,-5.1022,-5.0178,-4.9591,-4.8269,-4.7535,-4.7535,-4.5957,-4.5589,0.0,0.0,0.0,0.0,0.0,0.0,0.0,0.0,0.0,0.0,0.0,0.0,0.0,0.0,0.0,0.0,0.0,0.0,0.0,0.0,0.0,0.0,0.0,0.0,0.0,-5.4871,-5.7386,-5.6989,-6.0478,-6.1714,-5.856,-5.9581,-6.0192,-5.9729,-6.0877,-6.2332,-6.3815,-6.4781,-6.6268,-6.8334,-6.9038,-6.9072,-6.8334,-6.8965,-6.8418,-6.6566,-6.6638,-6.6607,-6.6417,-6.5581,-6.5041,-6.4824,-6.3723,-6.2815,-6.1989,-6.1185,-6.0668,-6.0404,-5.9844,-5.8797,-5.7676,-5.7424,-5.6633,-5.5759,-5.6007,-5.6082,-5.6164,-5.6726,-5.7253,-5.7614,-5.7614,-5.7765,-5.8159,-5.897,-5.8681,-5.8336,-5.9393,-5.8322,-5.7025,-5.755,-5.6849,-5.6169,-5.6385,-5.6876,-5.7302,-5.7302,-5.6443,-5.5893,-5.6369,-5.6067,-5.5884,-5.6337,-5.5941,-5.539,-5.4876,-5.4326,-5.3812,-5.3261,-5.3225,-5.3115,-5.2821,-5.2564,-5.205,-5.1206,-5.0435,-4.9627,-4.8783,-4.7682,-4.7131,-4.7131,-4.5626,-4.4802,-4.4804,0.0,0.0,0.0,0.0,0.0,0.0,0.0,0.0,0.0,0.0,0.0,0.0,0.0,0.0,0.0,0.0,0.0,0.0,0.0,0.0,0.0,0.0,0.0,-5.3653,-5.6833,-5.9201,-5.9194,-6.2132,-6.3384,-6.1099,-6.2868,-6.4145,-6.4112,-6.5832,-6.7201,-6.7912,-6.7946,-6.8383,-6.9402,-6.9445,-6.9107,-6.8504,-6.8629,-6.8316,-6.7522,-6.7651,-6.7283,-6.6476,-6.5668,-6.4861,-6.3943,-6.2291,-6.112,-6.0341,-5.9547,-5.8805,-5.8107,-5.8125,-5.7603,-5.675,-5.595,-5.5667,-5.5773,-5.6516,-5.6816,-5.6824,-5.6859,-5.6794,-5.6794,-5.6829,-5.7402,-5.819,-5.9078,-5.9835,-6.0431,-6.0408,-5.9866,-5.9305,-5.9249,-5.8032,-5.7116,-5.7821,-5.7997,-5.7997,-5.7997,-5.7997,-5.7997,-5.7997,-5.7997,-5.7997,-5.796,-5.6602,0.0,-5.5574,-5.4179,-5.3225,-5.3225,-5.3261,-5.2931,-5.2087,-5.2711,-5.2087,-4.9627,-5.0215,-4.9591,-4.7168,-4.702,-4.6984,-4.6947,-4.5718,-4.4064,-4.2085,0.0,0.0,0.0,0.0,0.0,0.0,0.0,0.0,0.0,0.0,0.0,0.0,0.0,0.0,0.0,0.0,0.0,0.0,0.0,0.0,0.0,-5.3822,-5.6089,-5.6596,-6.0351,-6.3309,-6.3889,-6.6644,-6.7814,-6.6212,-6.7035,-6.743,-6.6858,-6.7428,-6.7856,-6.8062,-6.8844,-6.9372,-6.9593,-6.967,-6.9399,-6.8658,-6.8777,-6.8418,-6.7615,-6.7652,-6.7283,-6.6476,-6.5668,-6.4197,-6.2313,-6.1243,-6.0034,-5.8752,-5.7932,-5.7152,-5.6563,-5.7694,-5.7306,-5.6055,-5.5846,-5.5092,-5.4141,-5.4346,-5.4798,-5.5349,-5.5894,-5.5996,-5.6304,-5.7976,-5.8689,-5.923,-6.0552,-6.1115,-6.1236,-6.1251,-6.0237,-5.9189,-5.9197,-5.8443,-5.7774,-5.795,-5.7997,-5.7997,-5.7997,-5.7997,-5.7997,-5.7997,-5.7997,-5.7813,-5.7226,-5.6271,0.0,-5.4803,-5.3849,-5.3445,-5.3995,-5.4069,-5.3739,-5.2931,-5.2013,-5.0655,-4.8746,-4.7755,-4.6948,-4.625,-4.5663,-4.4894,-4.3937,-4.3819,-4.3243,0.0,0.0,0.0,0.0,0.0,0.0,0.0,0.0,0.0,0.0,0.0,0.0,0.0,0.0,0.0,0.0,0.0,0.0,0.0,0.0,0.0,0.0,-5.6934,-5.9268,-6.0926,-6.3666,-6.5851,-6.6668,-6.9043,-7.0097,-6.8669,-6.911,-6.9252,-6.8603,-6.859,-6.8586,-6.8343,-6.921,-6.9777,-6.9765,-6.9865,-6.9668,-6.9309,-6.9043,-6.8348,-6.7173,-6.7173,-6.6586,-6.5448,-6.4307,-6.2803,-6.1118,-5.9598,-5.8281,-5.7113,-5.6245,-5.5689,0.0,0.0,0.0,0.0,0.0,-5.4256,-5.3518,-5.3518,-5.3991,-5.4668,-5.5108,-5.5689,-5.6371,-5.77,-5.8654,-5.9515,-6.0732,-6.1352,-6.1536,-6.1215,-6.0419,-5.9538,-5.8877,-5.8327,-5.7997,-5.7997,-5.7997,-5.7997,-5.7997,-5.7997,0.0,-5.7997,-5.7703,-5.7336,-5.6859,-5.5831,-5.4913,-5.4473,-5.3702,-5.3408,-5.3849,-5.3592,-5.3078,-5.227,-5.1353,0.0,0.0,0.0,-4.6104,-4.5443,-4.4748,0.0,0.0,0.0,-4.2486,-4.1728,0.0,0.0,0.0,-4.3124,-4.3403,0.0,0.0,0.0,0.0,0.0,0.0,0.0,0.0,0.0,0.0,0.0,0.0,0.0,0.0,0.0,0.0,-6.0114,-6.2651,-6.5425,-6.6474,-6.7184,-6.7827,-6.9688,-7.0466,-6.9214,-6.9674,-6.9885,-6.9323,-6.935,-6.9188,-6.8538,0.0,0.0,0.0,0.0,-6.989,-7.011,-6.9229,-6.8054,-6.6623,-6.6459,-6.5563,-6.4061,-6.2422,-6.1132,-6.0084,-5.7868,-5.643,-5.5617,-5.4918,-5.4606,-5.4606,-5.4606,-5.4171,-5.3518,-5.3518,-5.3518,-5.3518,-5.3518,0.0,0.0,-5.4669,-5.5549,-5.6616,-5.6982,-5.8,-5.9218,-6.0159,-6.0919,-6.1299,-6.0494,-6.0272,-5.9869,-5.8364,-5.7997,-5.7997,-5.7997,-5.7997,-5.7997,-5.7997,-5.7997,-5.796,-5.7886,-5.7262,-5.6785,-5.6675,-5.539,-5.4363,-5.4289,-5.3665,-5.3225,-5.3335,0.0,0.0,-5.0986,-5.0765,-4.9334,-4.6214,-4.6617,-4.6324,-4.4892,-4.4155,-4.3601,-4.3129,-4.2358,-4.1724,-4.1204,-4.046,-4.1544,-4.4262,-4.3663,-4.3905,0.0,0.0,0.0,0.0,0.0,0.0,0.0,0.0,0.0,0.0,0.0,0.0,0.0,0.0,0.0,-5.9235,-6.2076,-6.458,-6.6339,-6.7218,-6.7726,-6.7895,-6.8301,-6.8707,-6.9079,-6.9419,-6.9267,-6.8492,-6.9248,-6.949,-6.8686,-6.9515,-7.0296,-7.1019,-6.9775,-6.9392,-7.0073,-6.8641,-6.776,-6.743,0.0,0.0,-6.3961,-6.2344,-6.0477,-5.845,-5.7381,-5.6111,-5.4805,-5.4667,-5.4606,-5.4606,-5.4606,-5.4171,-5.3518,-5.3518,-5.3518,-5.3518,-5.3518,-5.3585,-5.3923,-5.5098,-5.5312,-5.5479,-5.7961,-5.8537,0.0,-5.999,-6.0518,-6.0457,-5.9637,-5.9428,-5.9208,-5.8217,-5.7997,-5.7997,-5.7997,-5.7997,-5.7997,-5.7997,-5.7997,-5.7776,-5.7152,-5.6895,-5.6602,-5.5941,-5.5023,-5.4179,-5.3518,-5.3298,-5.3445,-5.4106,-5.3445,-5.2637,-5.183,-5.0582,-4.8967,-4.7021,-4.6397,-4.5993,-4.5663,-4.4057,-4.3393,-4.3864,-4.1643,-4.0747,-4.1204,-4.046,-4.1271,-4.3499,-4.3385,-4.4277,0.0,0.0,0.0,0.0,0.0,0.0,0.0,0.0,0.0,0.0,0.0,-5.2807,-5.4296,0.0,-5.9539,-6.2922,-6.4715,-6.637,-6.8378,-6.8665,-6.8528,-6.8117,-6.8734,-6.9069,-6.8838,-6.9199,-6.9235,-6.847,-6.8994,-6.9126,-6.8822,-6.9628,-7.011,-7.011,-6.9339,-6.8898,-6.8898,-6.7687,-6.6499,-6.5204,-6.4396,-6.3379,-6.2141,-6.0564,-5.9155,-5.7933,-5.6366,-5.5514,-5.5169,-5.5553,-5.5297,-5.4668,-5.4999,-5.4482,-5.3518,-5.3518,-5.3518,-5.3518,-5.3518,-5.3717,-5.4175,-5.4931,-5.5434,-5.607,-5.7603,-5.8362,-5.8773,-5.959,-6.0089,-6.0236,-5.9428,-5.9208,-5.9024,-5.818,-5.7997,-5.7997,-5.7997,-5.7997,-5.7997,-5.7997,-5.7997,-5.7886,-5.7483,-5.7079,-5.6381,-5.517,-5.4656,-5.4106,-5.3298,-5.3225,-5.3371,-5.3775,-5.3078,-5.227,-5.1463,-4.9517,-4.8012,-4.713,-4.6361,-4.5883,-4.5883,-4.4007,-4.3164,-4.351,-4.1257,-4.046,-4.1204,-4.046,-4.1523,-4.426,-4.391,-4.4683,0.0,0.0,0.0,0.0,0.0,0.0,0.0,-5.0659,-5.098,-5.2604,-5.416,-5.5987,-5.8524,-6.0182,-6.2527,-6.6704,-6.7316,-6.8022,-7.0288,-6.9958,-6.9304,-6.8793,-6.9687,-6.9882,-6.8646,-6.9246,-6.9305,-6.8516,-6.8656,-6.8727,-6.866,-6.9265,-6.9412,-6.8935,-6.8605,-6.8147,-6.7488,-6.6482,-6.4949,-6.2781,-6.2485,-6.164,-6.036,-5.8689,-5.7978,-5.7909,-5.5928,-5.5341,-5.5993,-5.647,-5.5928,-5.4878,-5.532,-5.4668,-5.3518,-5.3518,-5.3618,-5.3717,-5.3717,-5.4235,-5.4818,-5.4999,-5.5872,-5.6912,-5.7065,-5.7972,-5.8988,-5.8988,-5.9428,-5.9795,-5.9134,-5.8988,-5.8804,-5.8143,-5.7997,-5.7997,-5.7997,-5.7997,-5.796,-5.7813,-5.7776,-5.7703,-5.7556,-5.7116,-5.6308,-5.484,-5.4509,-5.4106,-5.3298,-5.3225,-5.3225,-5.3225,-5.2344,-5.1426,-5.0655,-4.8893,-4.7829,-4.7829,-4.7058,-4.6617,-4.6617,-4.4705,-4.3693,-4.3835,-4.167,-4.0832,-4.1614,-4.0765,-4.196,-4.5078,-4.4582,-4.5285,-5.3153,-5.1587,-5.0733,-5.2509,-5.1546,-5.1546,0.0,-5.685,-5.6528,-5.866,-6.0317,-6.1704,-6.2685,-6.4072,-6.5956,-6.8784,-6.914,-6.9489,-7.0655,-7.0166,-6.992,-7.0668,-7.02,-6.9424,-6.861,-6.9292,-6.9273,-6.775,-6.8429,-6.8568,-6.7871,-6.7907,-6.8238,-6.8898,-6.7504,-6.672,-6.651,-6.5026,-6.3752,-6.2809,-6.1371,-6.0558,-6.0354,-5.8697,-5.7891,-5.7861,-5.6984,-5.6655,-5.674,-5.6099,-5.5724,-5.5552,-5.4939,-5.42,-5.3518,-5.3518,-5.3881,-5.4482,-5.4482,-5.4999,-5.5724,-5.6421,-5.6757,-5.7015,-5.7679,-5.7987,-5.8143,-5.8143,-5.8217,-5.8253,-5.8143,-5.8143,-5.8107,-5.8033,-5.7997,-5.7997,-5.7997,-5.7997,-5.7776,-5.7079,-5.6932,-5.6712,-5.5978,-5.6381,-5.6492,-5.5574,-5.484,-5.4106,-5.3298,-5.3225,-5.3225,-5.3225,-5.183,-5.0618,-4.9774,-5.0141,-5.0398,-5.0398,-4.9627,-4.9187,-4.9187,-4.7098,-4.6224,-4.6866,-4.3652,-4.2327,-4.3054,-4.1716,-4.2201,-4.4343,-4.4901,-4.6227,-5.3088,-5.2498,-5.2426,-5.312,-5.3672,-5.4828,-5.7741,-5.8239,-5.8727,-6.096,-6.2956,-6.4546,-6.529,-6.7155,-6.8888,-6.9911,-7.0574,-7.1078,-7.1616,-7.0933,-7.0476,-7.0519,-7.0193,-6.9803,-6.9441,-6.9345,-6.883,-6.7664,-6.8,-6.8054,-6.7724,-6.7687,-6.7834,-6.8201,-6.7028,-6.6178,-6.561,-6.4076,-6.2577,-6.1313,-6.018,-5.9426,-5.8937,-5.8235,-5.7645,-5.7277,-5.6916,-5.6536,-5.6143,-5.5812,-5.5437,-5.5024,-5.4695,-5.4419,-5.4171,-5.4171,-5.4328,-5.4634,-5.5084,-5.5724,-5.6421,-5.6809,-5.7166,-5.7631,-5.7904,-5.7997,-5.7997,-5.7997,-5.7997,-5.7997,-5.7997,-5.7997,-5.7997,-5.7997,-5.7997,-5.7997,-5.7997,-5.7629,-5.7189,-5.6859,-5.6418,-5.6124,-5.6271,-5.6198,-5.5978,-5.5647,-5.5317,-5.462,-5.3371,-5.3225,-5.3225,-5.3225,-5.2197,-5.1353,-5.1022,-5.0875,-5.0618,-5.0105,-4.9774,-4.937,-4.8857,-4.7211,-4.6452,-4.6741,-4.4166,-4.2978,-4.3291,-4.2684,-4.3284,-4.4875,-4.5543,-4.688,-5.2136,-5.2532,-5.3282,-5.3331,-5.5179,-5.7089,-5.7993,-5.9268,-6.0791,-6.2618,-6.4788,-6.6664,-6.7331,-6.9267,-7.0818,-7.1224,-7.1582,-7.1866,-7.2227,-7.1231,-7.0145,-6.954,-6.9045,-6.8788,-6.8788,-6.8862,-6.8568,-6.776,-6.7687,-6.7687,-6.7687,-6.7687,-6.7633,-6.7378,-6.6482,-6.543,-6.4117,-6.2769,-6.1247,-5.9667,-5.9013,-5.8424,-5.7881,-5.7881,-5.7476,-5.6836,-5.6778,-5.6379,-5.5681,-5.5695,-5.5379,-5.4939,-5.4939,-5.4939,-5.4939,-5.5179,-5.5238,-5.5297,-5.5836,-5.6527,-5.7166,-5.7166,-5.7546,-5.7997,-5.7997,-5.7997,-5.7997,-5.7997,-5.7997,-5.7997,-5.7997,-5.7997,-5.7997,-5.7997,-5.7997,-5.7997,-5.7997,-5.7556,-5.7079,-5.6859,-5.6345,-5.6124,-5.6712,-5.6308,-5.5868,-5.5611,-5.5574,-5.5023,-5.3408,-5.3225,-5.3115,-5.2894,-5.2564,-5.2234,-5.2013,-5.1683,-5.1206,-5.0618,-5.0362,-4.9884,-4.904,-4.7846,-4.7098,-4.688,-4.5036,-4.4144,-4.4144,-4.3955,-4.4472,-4.5597,-4.6374,-4.7534,-4.9433,-5.0326,-5.1592,-5.2995,-5.5039,-5.7137,-5.866,-6.1264,-6.3599,-6.4377,-6.6484,-6.8353,-6.9149,-7.0138,-7.1339,-7.3029,-7.2011,-7.1359,-7.2321,-7.0421,-6.866,-6.7871,-6.6402,-6.5448,-6.5448,-6.754,-6.8568,-6.776,-6.7687,-6.7687,-6.7687,-6.7687,-6.7286,-6.6464,-6.5574,-6.4019,-6.1606,-6.0773,-5.9563,-5.7988,-5.7954,-5.7954,-5.7881,-5.7881,-5.7476,-5.6836,-5.6778,-5.6379,-5.5681,-5.5695,-5.5724,-5.5667,-5.5667,-5.5667,-5.578,-5.6563,-5.6861,-5.6861,-5.6861,-5.7351,-5.795,-5.795,-5.7997,-5.7997,-5.7997,-5.7997,-5.7997,-5.7997,-5.7997,-5.7997,-5.7997,-5.7997,-5.7997,-5.7997,-5.7997,-5.7997,-5.7997,-5.796,-5.774,-5.6969,-5.6785,-5.6785,-5.6822,-5.6785,-5.6492,-5.5721,-5.5574,-5.5023,-5.3408,-5.3225,-5.2894,-5.2123,-5.2711,-5.2858,-5.205,-5.2711,-5.3115,-5.3115,-5.2344,-5.1573,-5.0765,-4.9958,-4.9114,-4.8231,-4.6916,-4.6194,-4.6194,-4.5561,-4.5561,-4.6308,-4.7451,-4.831,-4.9046,-5.046,-5.2384,-5.4362,-5.6265,-5.8186,-6.0689,-6.2042,-6.3249,-6.5113,-6.5627,-6.6041,-6.6983,-6.8359,-6.9346,-6.9417,-7.0386,-7.0939,-7.0201,-6.8935,-6.7393,-6.5521,-6.5301,-6.4861,-6.3759,-6.5375,-6.6623,-6.688,-6.7393,-6.7433,-6.6852,-6.6852,-6.6427,-6.549,-6.4654,-6.3798,-6.2957,-6.1101,-5.9871,-5.9336,-5.8355,-5.7881,-5.7881,-5.7374,-5.7036,-5.6803,-5.6263,-5.5606,-5.5005,-5.4981,-5.4999,-5.4999,-5.4999,-5.561,-5.6563,-5.6809,-5.7202,-5.7631,-5.7631,-5.7774,-5.7997,-5.7997,-5.7997,-5.7886,-5.7373,-5.7593,-5.7886,-5.7336,-5.7593,-5.7997,-5.7997,-5.7997,-5.7997,-5.7997,-5.7997,-5.7997,-5.7997,-5.7593,-5.7116,-5.6859,-5.6381,-5.6161,-5.6712,-5.6345,-5.5721,-5.4913,-5.4363,-5.3812,-5.3298,-5.3225,-5.3115,-5.2821,-5.3041,-5.3115,-5.2821,-5.3041,-5.2968,-5.2454,-5.216,-5.1646,-5.0839,-5.0031,-4.9444,-4.915,-4.7793,-4.703,-4.703,-4.678,-4.6958,-4.7451,-4.8237,-4.8968,-4.9791,-5.1395,-5.3281,-5.5547,-5.7205,-5.8795,-6.0757,-6.1877,-6.2768,-6.4019,-6.4286,-6.4388,-6.4741,-6.6017,-6.6809,-6.6265,-6.7395,-6.8128,-6.7687,-6.5896,-6.4363,-6.3325,-6.293,-6.2404,-6.1606,-6.2767,-6.4111,-6.5515,-6.6058,-6.6089,-6.5571,-6.5761,-6.549,-6.4564,-6.3971,-6.347,-6.2861,-6.0993,-5.9844,-5.9302,-5.8355,-5.7746,-5.7476,-5.7036,-5.6528,-5.5953,-5.5516,-5.4903,-5.4228,-5.4814,-5.4964,-5.5059,-5.561,-5.6421,-5.7302,-5.7302,-5.7594,-5.7997,-5.7997,-5.7997,-5.7997,-5.7997,-5.7997,-5.7886,-5.7409,-5.7593,-5.7886,-5.7373,-5.7593,-5.7923,-5.7666,-5.7556,-5.7556,-5.7556,-5.7556,-5.7666,-5.7923,-5.7593,-5.7226,-5.7226,-5.6822,-5.6602,-5.7152,-5.6308,-5.5427,-5.4913,-5.3922,-5.3225,-5.3225,-5.3225,-5.3225,-5.3225,-5.3225,-5.3225,-5.3225,-5.3225,-5.3004,-5.2454,-5.2417,-5.2087,-5.1242,-5.0729,-5.0178,-4.9554,-4.8648,-4.8047,-4.7715,-4.7882,-4.8084,-4.8347,-4.9001,-4.9617,-5.1352,-5.2976,-5.416,-5.6292,-5.7881,-5.8964,-5.8998,-6.0647,-6.2053,-6.1361,-6.2358,-6.3141,-6.2386,-6.3111,-6.3731,-6.3768,-6.3181,-6.3291,-6.4904,-6.1822,-5.9944,-6.1296,-5.9559,-5.852,-5.9168,-5.9946,-6.1351,-6.3761,0.0,-6.3866,-6.3937,-6.4544,-6.4529,-6.3647,-6.3647,-6.2896,-6.1298,-6.0452,-5.9302,-5.7814,-5.7814,-5.7442,-5.6731,-5.6697,-5.5919,-5.46,-5.4601,-5.4195,-5.3685,-5.5119,-5.5724,-5.5893,-5.7328,-5.7914,-5.7997,-5.796,-5.796,-5.7997,-5.7997,-5.7997,-5.7997,-5.7997,-5.7997,-5.7997,-5.796,-5.796,-5.7997,-5.796,-5.796,-5.7813,-5.7079,-5.6822,-5.6822,-5.6822,-5.6822,-5.7005,-5.7776,-5.796,-5.7997,-5.7997,-5.7997,-5.7997,-5.796,-5.6675,-5.5611,-5.5537,-5.4252,-5.3261,-5.3225,-5.3225,-5.3225,-5.3225,-5.3225,-5.3225,-5.3225,-5.3225,-5.3225,-5.3225,-5.3225,-5.2858,-5.2087,-5.2013,-5.1206,-4.9591,-4.9591,-4.915,-4.8306,-4.8674,-4.8911,-4.8945,-4.9728,-5.0111,-5.2029,-5.4093,-5.6089,-5.6664,-5.7509,-5.8321,-5.8896,-5.9084,-5.9208,-5.9633,-5.8676,-5.771,-5.764,-5.8279,-5.902,-5.9609,-6.1006,-6.2093,-6.2487,-6.1664,-6.0665,-5.9918,-5.981,-5.984,-6.0017,-6.0188,-6.1008,0.0,-6.3498,-6.3851,-6.3799,-6.3938,-6.3647,-6.2779,-6.2736,-6.2319,-6.1298,-5.9979,-5.8558,-5.707,-5.707,-5.6697,-5.5987,-5.5412,-5.4938,-5.4635,-5.4621,-5.45,-5.4356,-5.532,-5.6059,-5.6544,-5.6364,-5.6988,-5.7923,-5.7336,-5.7483,-5.7997,-5.7997,-5.7997,-5.7997,-5.7997,-5.7997,-5.7886,-5.7299,-5.7519,-5.7886,-5.7262,-5.7556,-5.796,-5.774,-5.7262,-5.6822,-5.6822,-5.6822,-5.6859,-5.7079,-5.7593,-5.7997,-5.7997,-5.7997,-5.7813,-5.7226,-5.6785,-5.6088,-5.4876,-5.4363,-5.3885,-5.3298,-5.3225,-5.3225,-5.3225,-5.3225,-5.3225,-5.3225,-5.3225,-5.3225,-5.3225,-5.3225,-5.3115,-5.2894,-5.2307,-5.1499,-5.0508,-4.9884,-4.915,-4.8306,-4.8674,-4.9043,-4.9356,-4.9872,-5.0252,-5.4025,-5.5513,-5.6867,-5.7205,-5.734,-5.7442,-5.7543,-5.7219,-5.6815,-5.6339,-5.5401,-5.4559,-5.3937,-5.4701,-5.5674,-5.6432,-5.7919,-5.9395,-6.0397,-5.9628,-5.9026,-5.9166,-5.8985,-5.9036,-5.9663,-5.9736,-6.0347,-6.189,-6.2468,-6.2851,-6.3165,-6.3124,-6.2931,-6.2381,-6.2076,-6.14,-6.0317,-5.9438,-5.8254,-5.6799,-5.6799,-5.6258,-5.5209,-5.4769,-5.4397,-5.4093,0.0,-5.4328,-5.4634,-5.5379,-5.6169,-5.6876,-5.6744,-5.701,-5.7409,-5.6969,-5.7079,-5.7483,-5.7483,-5.7703,-5.7997,-5.7997,-5.7997,-5.7923,-5.7446,-5.7629,-5.7923,-5.7446,-5.7666,-5.7923,-5.7556,-5.6895,-5.6345,-5.6712,-5.6528,-5.6455,-5.7189,-5.7666,-5.7997,-5.7997,-5.7997,-5.774,-5.6932,-5.6528,-5.5868,-5.4583,-5.4106,-5.3702,-5.3261,-5.3225,-5.3225,-5.3225,-5.3225,-5.3225,-5.3225,-5.3225,-5.3225,-5.3225,-5.3225,-5.3225,-5.3225,-5.2417,-5.1793,-5.1353,-5.0141,-4.9334,-4.8857,-4.8895,-4.9011,-4.9234,-4.9645,-4.9949,-5.6427,-5.6934,-5.7103,-5.7712,-5.734,-5.6596,-5.5886,-5.5482,-5.4724,-5.265,-5.2577,-5.2463,-5.1123,-5.2021,-5.3288,-5.4218,-5.4899,-5.6164,-5.8686,-5.7121,-5.6564,-5.8701,-5.7839,-5.7645,-5.9032,-5.9268,-5.9945,-6.1501,-6.1501,-6.1738,-6.2347,-6.2381,-6.2347,-6.2245,-6.1535,-6.0452,-5.9032,-5.893,-5.8186,-5.6799,-5.6697,-5.5919,-5.46,-5.4499,-5.4093,-5.3518,-5.3618,-5.4042,-5.4818,-5.5552,-5.6313,-5.7116,-5.7617,-5.7483,-5.6932,-5.6712,-5.6785,-5.6932,-5.6859,-5.7336,-5.7997,-5.7997,-5.7997,-5.7997,-5.7997,-5.7997,-5.7997,-5.7997,-5.7997,-5.785,-5.7152,-5.6345,-5.5941,-5.6638,-5.6271,-5.6124,-5.7519,-5.7923,-5.796,-5.785,-5.785,-5.7556,-5.6638,-5.5904,-5.517,-5.4363,-5.3665,-5.3225,-5.3225,-5.3225,-5.3225,-5.3225,-5.3225,-5.3225,-5.3225,-5.3225,-5.3225,-5.3225,-5.3225,-5.3151,-5.3078,-5.238,-5.1903,-5.1683,-5.0251,-4.9481,-4.9407,-4.8969,-4.8729,-4.8762,-4.9175,-4.9353,-5.7577,-5.7712,-5.7712,-5.7848,-5.734,-5.6596,-5.5886,-5.4262,-5.2629,-5.1579,-5.0577,-4.9684,-4.9411,-5.0093,-5.1322,-5.3369,-5.3813,-5.487,-5.7737,-5.7255,-5.6978,-5.8035,-5.8395,-5.8964,-5.9844,-6.052,-6.1535,-6.3024,-6.255,-6.2245,-6.2381,-6.2381,-6.211,-6.1501,-6.0723,-5.9911,-5.9032,-5.8389,-5.7645,-5.6799,-5.619,-5.5446,-5.4566,-5.3957,-5.3619,-5.3551,-5.4171,0.0,-5.5552,-5.6367,-5.7116,-5.7784,-5.7217,-5.7336,-5.7629,-5.6308,-5.6638,-5.7703,-5.7042,-5.7336,-5.7997,-5.7997,-5.7997,-5.7997,-5.7997,-5.7997,-5.7997,-5.7997,-5.7997,-5.796,-5.7813,-5.7189,-5.6638,-5.6785,-5.6712,-5.6675,-5.6969,-5.7519,-5.7813,-5.7152,-5.7005,-5.6565,-5.506,-5.4693,-5.4326,-5.3555,-5.3298,-5.3225,-5.3225,-5.3225,-5.3225,-5.3225,-5.3225,-5.3225,-5.3225,-5.3225,-5.3225,-5.3225,-5.3225,-5.2894,-5.2234,-5.205,-5.1353,-5.0031,-4.9701,-4.9224,-4.8526,-4.8116,-4.7909,-4.7942,-4.834,-4.8513,-5.7881,-5.7881,-5.7814,-5.7408,-5.6765,-5.5716,-5.3822,-5.2232,-5.071,-4.9221,-4.8646,-4.8308,-4.7936,-4.8781,-4.9999,-5.1488,-5.2063,-5.3348,-5.6325,-5.6461,-5.6799,-5.8287,-5.8795,-5.9471,-6.0622,-6.1061,-6.1738,-6.2854,-6.2584,-6.255,-6.2956,-6.2618,-6.1873,-6.0723,-6.0723,-5.9979,-5.8457,-5.8457,-5.7915,-5.6799,-5.6055,-5.531,-5.4566,-5.4222,-5.4042,-5.4106,-5.4878,-5.561,-5.6367,-5.6721,-5.7351,-5.796,-5.7593,-5.7409,-5.7299,-5.6528,-5.6455,-5.6748,-5.6785,-5.7042,-5.7446,-5.785,-5.7997,-5.7997,-5.7997,-5.7997,-5.7997,-5.7997,-5.7997,-5.7997,-5.7997,-5.7409,-5.6932,-5.7336,-5.7409,-5.7409,-5.7409,-5.774,-5.7776,-5.6969,-5.7152,-5.6895,-5.528,-5.5354,-5.5244,-5.3995,-5.4179,-5.4142,-5.3335,-5.3592,-5.3665,-5.3261,-5.3225,-5.3225,-5.3225,-5.3225,-5.3225,-5.3225,-5.3225,-5.2858,-5.2013,-5.161,-5.1022,-5.0251,-4.937,-4.893,-4.8967,-4.8311,-4.7827,-4.742,-4.7999,-4.8062,-5.8084,-5.8017,-5.7712,-5.6968,-5.6258,-5.4938,-5.1894,-5.0507,-4.9323,-4.7428,-4.7361,-4.7564,-4.7124,-4.8105,-4.9255,0.0,-5.071,-5.2266,-5.531,-5.5852,-5.6731,-5.8761,-5.9438,-6.0216,-6.1434,-6.1839,-6.2167,-6.2468,-6.2367,-6.2548,-6.326,-6.2719,-6.167,-6.0148,-6.0723,-6.0013,-5.7915,-5.849,-5.8186,-5.7036,-5.6292,-5.5617,-5.5077,-5.472,-5.4592,-5.4634,-5.5203,-5.5893,-5.6668,-5.6861,-5.7351,-5.7997,-5.7997,-5.7593,-5.7042,-5.6859,-5.6528,-5.6161,-5.6638,-5.6932,-5.7152,-5.7776,-5.7997,-5.7997,-5.7997,-5.7997,-5.7997,-5.7997,-5.7997,-5.7997,-5.7997,-5.7519,-5.7226,-5.785,-5.7997,-5.7997,-5.7997,-5.7997,-5.7776,-5.6969,-5.7299,-5.7299,-5.5831,-5.6124,-5.6124,-5.484,-5.506,-5.4876,-5.3628,-5.3849,-5.3922,-5.3298,-5.3225,-5.3225,-5.3225,-5.3225,-5.3225,-5.3225,-5.3225,-5.2858,-5.2013,-5.1242,-5.0729,-5.0545,-4.9077,-4.8598,-4.9139,-4.8414,-4.7642,-4.6905,-4.7679,-4.7719,-5.8727,-5.8423,-5.7712,-5.6968,-5.6258,-5.4938,-5.1894,-5.0135,-4.8849,-4.8003,-4.7327,-4.709,-4.7699,-4.8477,0.0,0.0,0.0,-5.2266,-5.531,-5.6292,-5.7273,-5.8829,-6.0825,-6.2144,-6.2279,-6.3497,-6.3867,-6.2736,-6.2055,-6.1966,-6.2437,-6.2415,-6.167,-6.0148,-6.0182,-5.9471,-5.7915,-5.7949,-5.7915,-5.778,-5.7036,-5.6644,-5.656,-5.5212,-5.4561,-5.4572,-5.4634,-5.5084,0.0,-5.6616,-5.7351,-5.7997,-5.7997,-5.796,-5.7813,-5.7079,-5.7226,-5.7703,-5.7042,-5.7299,-5.7886,-5.796,-5.7997,-5.7997,-5.7997,-5.7997,-5.7997,-5.7997,-5.7997,-5.7997,-5.7997,-5.796,-5.7923,-5.796,-5.7997,-5.7997,-5.7997,-5.7997,-5.7776,-5.6969,-5.6859,-5.6638,-5.5757,-5.5647,-5.5647,-5.55,-5.4913,-5.4473,-5.4326,-5.3739,-5.3298,-5.3225,-5.3225,-5.3225,-5.3225,-5.3225,-5.3225,-5.3225,-5.3225,-5.2858,-5.2013,-5.1242,-5.0472,-4.9701,-4.8783,-4.8072,-4.7578,-4.7341,-4.6864,-4.6313,-4.6939,-4.7205,-5.7476,-5.778,-5.7712,-5.6968,-5.5919,-5.4363,-5.1792,-5.0067,-4.8815,-4.8071,-4.7665,-4.7564,-4.7868,-4.8173,0.0,0.0,0.0,0.0,-5.3247,-5.3375,-5.4773,-5.916,-5.9259,-5.9876,-6.2365,-6.3064,-6.36,-6.3852,-6.3182,-6.2844,-6.3091,-6.2618,-6.1907,-6.0858,-6.0825,-6.008,-5.8592,-5.8558,-5.8355,-5.7881,-5.7137,-5.6843,-5.6782,-5.572,-5.5292,-5.5265,-5.5234,-5.5437,0.0,-5.6059,-5.6668,-5.7351,-5.7351,-5.7631,-5.796,-5.7629,-5.7409,-5.7299,-5.7483,-5.7409,-5.7373,-5.785,-5.7997,-5.7997,-5.7997,-5.7997,-5.7997,-5.7997,-5.7997,-5.7886,-5.7409,-5.7299,-5.7299,-5.7299,-5.7666,-5.7997,-5.7997,-5.7997,-5.7776,-5.6969,-5.7189,-5.7262,-5.6455,-5.6712,-5.6712,-5.5721,-5.5721,-5.5317,-5.3885,-5.3812,-5.3739,-5.3261,-5.3225,-5.3225,-5.3225,-5.3225,-5.3225,-5.3225,-5.3225,-5.2858,-5.2013,-5.1242,-5.02,-4.8992,-4.8156,-4.7428,-4.6819,-4.7102,-4.6907,-4.623,-4.7302,-4.7572,-5.5794,-5.674,-5.7245,-5.6626,-5.5513,-5.3957,-5.1454,-4.9898,-4.8815,-4.8071,-4.7936,-4.7936,-4.7936,-4.8105,0.0,0.0,0.0,-4.9569,-5.1597,-5.1818,-5.3353,-5.773,-5.7216,-5.784,-6.1229,-6.2329,-6.3298,-6.4606,-6.4019,-6.3515,-6.3314,-6.2932,-6.2279,-6.1332,-6.1061,-6.0317,-5.9032,-5.8795,-5.8423,-5.7881,-5.7137,-5.6908,-5.7121,-5.6129,-5.5736,-5.5715,-5.5436,-5.5354,0.0,-5.5379,-5.5836,-5.6563,-5.6809,-5.7252,-5.7726,-5.795,-5.7629,-5.7262,-5.7813,-5.7629,-5.7262,-5.7813,-5.7997,-5.7997,-5.7997,-5.7813,-5.7666,-5.7666,-5.7308,-5.6959,-5.6583,-5.6473,-5.6593,-5.7033,-5.7593,-5.7997,-5.7997,-5.7997,-5.7813,-5.7262,-5.7409,-5.7483,-5.6895,-5.7079,-5.6895,-5.5757,-5.5868,-5.55,-5.3775,-5.3849,-5.3849,-5.3261,-5.3225,-5.3225,-5.3225,-5.3225,-5.3225,-5.3225,-5.3225,-5.2968,-5.238,-5.137,-5.0241,-4.8981,-4.8143,-4.7295,-4.6365,-4.7219,-4.7301,-4.6591,-4.7779,-4.8012,-5.3823,-5.5226,-5.6106,-5.577,-5.5141,-5.3788,-5.0777,-4.9526,-4.8815,-4.8071,-4.7936,-4.7936,-4.7936,-4.8511,0.0,0.0,0.0,0.0,-5.0876,-5.2679,-5.3989,0.0,-5.5031,-5.6702,-5.8767,-6.1434,-6.3544,-6.4778,-6.421,0.0,-6.2706,-6.3182,-6.2821,-6.1366,-6.052,-5.9742,-5.9032,-5.8287,-5.7881,-5.7881,-5.7137,-5.7155,-5.7835,-5.6405,-5.5723,-5.5686,-5.494,-5.4629,0.0,-5.4606,-5.5059,-5.578,-5.6616,-5.6912,-5.7015,-5.7726,-5.7997,-5.7997,-5.7997,-5.7997,-5.7997,-5.7997,-5.7997,-5.7997,-5.7997,-5.7446,-5.6822,-5.6822,-5.5749,-5.4796,-5.5641,-5.5822,-5.6187,-5.7637,-5.7997,-5.7997,-5.7997,-5.7997,-5.7997,-5.7997,-5.7336,-5.6822,-5.6822,-5.6161,-5.5611,-5.5574,-5.4913,-5.4436,-5.4399,-5.3702,-5.3225,-5.3225,-5.3225,-5.3225,-5.3225,-5.3225,-5.3225,-5.3225,-5.3225,-5.3225,-5.3188,-5.171,-5.0525,-4.9812,-4.8928,-4.7787,-4.6413,-4.7679,-4.7995,-4.7428,-4.8035,-4.8306,-5.0746,-5.2146,-5.3287,-5.318,-5.2739,-5.2029,-5.1082,-4.9898,-4.8951,-4.8714,-4.8178,-4.7666,-4.7666,-4.7375,0.0,0.0,0.0,0.0,0.0,0.0,0.0,-5.6303,-5.9153,-6.1017,0.0,0.0,-6.4811,-6.6115,-6.553,-6.4825,-6.4003,-6.366,-6.3057,-6.2076,-6.0791,-5.9979,-5.9742,-5.8524,-5.7881,-5.7881,-5.7137,-5.7179,-5.7871,-5.6399,-5.5992,-5.6405,-5.5144,-5.4568,-5.4531,-5.402,-5.4264,-5.5024,-5.578,-5.6421,-5.6964,-5.7726,-5.7997,-5.7997,-5.7997,-5.7997,-5.7997,-5.7997,-5.7679,-5.7252,-5.7252,-5.6721,-5.5861,-5.4849,-5.4168,-5.3868,-5.4082,-5.4948,-5.5699,-5.5644,-5.6828,-5.785,-5.7299,-5.7593,-5.7997,-5.7997,-5.7336,-5.6822,-5.6822,-5.6124,-5.539,-5.484,-5.4546,-5.4216,-5.3665,-5.3371,-5.3225,-5.3225,-5.3225,-5.3225,-5.3225,-5.3225,-5.3225,-5.3225,-5.3225,-5.3225,-5.3225,-5.2212,-5.1333,-5.0652,-4.9812,-4.8703,-4.731,-4.8127,-4.8343,-4.8035,-4.8229,-4.8306,0.0,-4.993,-5.1459,-5.1559,-5.1361,-5.115,0.0,0.0,0.0,-4.8513,-4.7737,-4.7104,-4.7104,0.0,0.0,0.0,0.0,0.0,0.0,0.0,0.0,-5.6488,-5.9433,0.0,0.0,-6.4014,-6.547,-6.6728,-6.6102,-6.5493,-6.5019,-6.4072,-6.3294,-6.2821,-6.1332,-6.0419,-6.0114,-5.8896,-5.8051,-5.7476,-5.7036,-5.7036,-5.7442,-5.6528,-5.6393,-5.6731,-5.5547,-5.4871,0.0,-5.3788,-5.3783,-5.4264,-5.4999,-5.561,-5.6095,-5.6876,-5.7315,-5.7546,-5.7546,-5.7546,-5.7558,-5.7266,-5.6645,-5.5991,-5.5722,-5.5294,-5.4577,-5.3047,-5.2368,-5.2298,-5.286,-5.3939,-5.4948,-5.5296,-5.6503,-5.7483,-5.7299,-5.7152,-5.7189,-5.7483,-5.6895,-5.6345,-5.6345,-5.5684,-5.4987,-5.4473,-5.4142,-5.3775,-5.3261,-5.3225,-5.3225,-5.3225,-5.3225,-5.3225,-5.3225,-5.3225,-5.3225,-5.3225,-5.3225,-5.3225,-5.3225,-5.2462,-5.169,-5.1013,-5.0498,-4.9667,-4.8508,-4.8844,-4.8758,-4.8306,-4.8306,-4.8306,0.0,-4.8324,-5.0101,-5.038,-5.0659,-5.0652,-4.9944,0.0,0.0,0.0,0.0,0.0,0.0,0.0,0.0,0.0,0.0,0.0,0.0,-5.0297,0.0,0.0,-5.715,-5.9348,-6.1673,-6.376,-6.5459,-6.6559,-6.6,-6.5595,-6.5527,-6.4241,-6.3463,-6.3362,-6.2009,-6.0926,-6.0114,-5.9336,-5.822,-5.6799,-5.6799,-5.6799,-5.6799,-5.6799,-5.6833,0.0,-5.6055,-5.531,0.0,-5.3822,-5.3518,-5.3551,-5.4328,-5.4606,-5.4695,-5.5437,-5.6204,-5.6912,-5.6861,-5.6861,-5.6768,-5.5923,-5.5133,-5.4388,-5.3644,-5.3416,-5.3097,-5.1605,-5.0645,-5.0437,-5.1949,-5.2993,-5.4118,-5.6237,-5.6782,-5.7079,-5.7776,-5.6748,-5.5904,-5.6638,-5.6161,-5.5574,-5.5574,-5.4987,-5.4473,-5.4399,-5.3775,-5.3261,-5.3225,-5.3225,-5.3225,-5.3225,-5.3225,-5.3225,-5.3225,-5.3225,-5.3225,-5.3225,-5.3225,-5.3225,-5.3225,-5.2554,-5.1881,-5.1167,-5.1004,-5.0642,-4.9928,-4.9715,-4.9187,-4.8379,-4.8343,-4.8343,-4.4007,0.0,-4.6166,-4.6202,-4.6813,-4.7322,0.0,0.0,0.0,0.0,0.0,-4.5309,-4.5734,-4.4939,-4.4588,0.0,0.0,-4.6933,-4.8758,-5.2574,0.0,-5.6991,-5.9915,-6.1816,-6.1632,-6.4051,-6.5446,-6.5155,-6.4952,-6.4613,-6.4072,-6.37,-6.299,-6.1873,-6.1501,-6.0926,-6.0114,-5.8795,-5.7712,-5.6799,-5.6799,-5.6799,-5.6799,-5.6799,-5.7103,-5.7577,-5.6292,0.0,-5.5344,-5.4059,-5.3518,-5.3551,-5.4328,-5.4606,-5.4695,-5.5437,-5.6204,-5.6809,-5.6204,-5.6367,-5.6613,-5.467,-5.3906,-5.3644,-5.2814,-5.2991,-5.3167,-5.1623,-5.1031,-5.1099,-5.2081,-5.3331,-5.4488,-5.4934,-5.64,-5.7593,-5.7189,-5.6785,-5.6565,-5.6748,-5.6161,-5.5574,-5.5574,-5.5427,-5.5097,-5.4473,-5.4252,-5.3922,-5.3298,-5.3225,-5.3225,-5.3225,-5.3225,-5.3225,-5.3225,-5.3225,-5.3225,-5.3225,-5.3225,-5.3225,-5.3225,-5.3023,-5.2864,-5.2724,-5.206,-5.1658,-5.148,-5.0211,-4.9481,-4.926,-4.86,-4.8673,-4.3329,-4.4004,-4.4812,-4.4812,-4.5488,-4.6173,-4.6173,0.0,0.0,0.0,0.0,0.0,0.0,-4.4461,-4.4673,0.0,-4.6739,0.0,0.0,0.0,-5.6949,-5.9688,-6.1423,-6.2656,0.0,-6.4555,-6.5019,-6.4647,-6.4309,-6.4072,-6.4005,-6.3362,-6.2618,-6.1839,-6.1129,-6.0385,-5.9607,-5.8795,-5.7848,-5.6799,-5.6799,-5.663,-5.6292,-5.6644,-5.7056,-5.7363,-5.6567,0.0,-5.6111,-5.4651,-5.3977,-5.3977,-5.4042,-5.4106,-5.4136,-5.4939,-5.5667,-5.6313,-5.5836,-5.5319,-5.4641,-5.3376,-5.2495,-5.1919,-5.182,-5.2575,-5.3272,-5.2051,-5.1488,-5.1349,-5.2106,-5.3206,-5.4205,-5.4866,-5.5752,-5.6418,-5.6748,-5.5941,-5.539,-5.6124,-5.5611,-5.517,-5.5537,-5.4984,-5.4401,-5.3964,-5.3563,-5.3198,-5.2761,-5.298,-5.3225,-5.3225,-5.3225,-5.3225,-5.3225,-5.3225,-5.3225,-5.3225,-5.3225,-5.3225,-5.3225,-5.3225,-5.3225,-5.3225,-5.2784,-5.238,-5.1977,-5.0765,-5.0141,-5.0105,-4.9297,-4.9334,-4.3329,-4.3988,-4.4709,-4.4617,-4.5122,-4.5746,-4.5746,0.0,0.0,0.0,0.0,0.0,0.0,-4.48,-4.5758,-4.5928,0.0,0.0,-5.5613,-5.6274,-5.7926,-6.2191,-6.2212,0.0,-6.5005,-6.4715,-6.4377,-6.4275,-6.37,-6.3599,-6.4241,-6.2956,-6.2178,-6.2042,-6.0655,-5.9573,-5.8863,-5.8829,-5.8152,-5.6799,-5.69,-5.6599,-5.5892,-5.6638,-5.6963,-5.6982,0.0,0.0,-5.6623,-5.5192,-5.4544,-5.4391,-5.3717,-5.3518,-5.3618,-5.4328,-5.5084,-5.5688,-5.5582,-5.4173,-5.2364,-5.2081,-5.1116,-5.0265,-5.0973,-5.2289,-5.3376,-5.2814,-5.2179,-5.1925,-5.2631,-5.3212,-5.3958,-5.5497,-5.5301,-5.5133,-5.6528,-5.5082,-5.3939,-5.5038,-5.4692,-5.4428,-5.4976,-5.4121,-5.3315,-5.3207,-5.2642,-5.2257,-5.2112,-5.2769,-5.3225,-5.3225,-5.3225,-5.3225,-5.3225,-5.3225,-5.3225,-5.3225,-5.3225,-5.3225,-5.3225,-5.3225,-5.3225,-5.3225,-5.3225,-5.2858,-5.216,-5.1389,-5.0912,-5.0765,-5.0105,-5.0141,-4.3329,-4.3798,-4.4258,-4.3687,-4.3615,-4.3771,-4.3771,-4.3615,0.0,0.0,0.0,0.0,0.0,-4.544,-4.5943,-4.6199,-4.9703,-5.376,0.0,0.0,-6.1185,-6.2541,0.0,-6.3325,-6.2944,-6.3362,-6.3429,-6.2787,-6.2618,-6.2618,-6.2719,-6.1941,-6.1163,-6.0452,-5.9641,-5.8829,-5.8084,-5.8051,-5.7645,-5.6799,-5.7442,-5.736,-5.6633,-5.742,-5.777,-5.7822,0.0,-5.648,-5.5807,-5.4981,-5.42,-5.3685,-5.3551,-5.3518,-5.3618,-5.4328,-5.5084,-5.5617,-5.5001,-5.3717,-5.2191,-5.089,-5.027,-5.0227,-5.097,-5.2269,-5.3584,-5.4022,-5.4147,-5.4239,-5.4966,-5.4795,-5.4792,-5.632,-5.6576,-5.6492,-5.6748,-5.6041,-5.5003,-5.3892,-5.3584,-5.3388,-5.2905,-5.321,-5.3211,-5.2571,-5.2817,-5.287,-5.2185,-5.2769,-5.3225,-5.3225,-5.3225,-5.3225,-5.3225,-5.3225,-5.3225,-5.3225,-5.3225,-5.3225,-5.3225,-5.3225,-5.3225,-5.3225,-5.3225,-5.3151,-5.3004,-5.2197,-5.1463,-5.0802,-5.0655,-5.0692,-4.3329,-4.3539,-4.3808,-4.3838,-4.4206,-4.4478,-4.4143,-4.4479,0.0,0.0,0.0,0.0,0.0,0.0,-4.8263,-5.1429,0.0,-5.7198,-6.0324,-6.0802,-6.1513,0.0,0.0,-6.2762,-6.3485,-6.3159,-6.2584,-6.1873,-6.1806,-6.1603,-6.1163,-6.0825,-6.0317,-5.9539,-5.9201,-5.866,-5.7881,-5.7881,-5.7712,-5.7374,-5.7737,-5.7774,-5.7448,-5.7842,-5.801,-5.8049,0.0,-5.7012,-5.6255,-5.5519,-5.4757,-5.4042,-5.3685,-5.3518,-5.3618,-5.4757,-5.5667,-5.6206,-5.5005,-5.3612,-5.2156,-5.0618,-5.0073,-5.012,-5.0472,-5.2201,-5.4153,-5.4473,-5.4884,-5.5162,-5.5062,-5.482,-5.4737,-5.54,-5.4901,-5.4345,-5.4828,-5.4337,-5.3616,-5.2916,-5.3069,-5.3227,-5.2927,-5.2846,-5.2621,-5.1794,-5.2254,-5.2437,-5.1651,-5.2509,-5.3225,-5.3225,-5.3225,-5.3225,-5.3225,-5.3225,-5.3225,-5.3225,-5.3225,-5.3225,-5.3225,-5.3225,-5.3225,-5.3225,-5.3225,-5.3225,-5.3225,-5.238,-5.2013,-5.2087,-5.1646,-5.1683,-4.3329,-4.3578,-4.3916,-4.4068,-4.4576,-4.5187,-4.5232,-4.5719,-4.6398,-4.7257,0.0,0.0,0.0,-4.8973,0.0,-5.6182,-5.8416,-6.0189,-6.2381,-6.1941,-6.2212,-6.4343,-6.2956,-6.2482,-6.4174,-6.3159,-6.2076,-6.1366,-6.1298,-6.096,-6.0148,-5.9945,-5.9573,-5.9032,-5.8829,-5.8457,-5.7881,-5.7881,-5.8027,-5.8174,-5.822,-5.8268,-5.8297,-5.8315,-5.8139,-5.7831,-5.7753,-5.7216,-5.6313,-5.5667,-5.4999,-5.4264,-5.3717,-5.3717,-5.4171,-5.5262,-5.6313,-5.6906,-5.5223,-5.3831,-5.2601,-5.0714,-5.0093,-5.008,-5.0446,-5.2325,-5.4467,-5.4979,-5.5641,-5.6134,-5.5446,-5.5062,-5.4773,-5.4748,-5.3686,-5.2736,-5.3037,-5.2749,-5.2443,-5.211,-5.2453,-5.2796,-5.2901,-5.259,-5.2136,-5.1546,-5.2216,-5.2536,-5.1983,-5.3007,-5.3702,-5.3518,-5.3482,-5.3408,-5.3225,-5.3225,-5.3225,-5.3225,-5.3225,-5.3225,-5.3225,-5.3225,-5.3225,-5.3225,-5.3225,-5.3225,-5.3225,-5.2564,-5.2491,-5.2931,-5.2491,-5.2527,-4.3329,-4.443,-4.5172,-4.3747,-4.3389,-4.4086,-4.6237,-4.633,-4.6236,-4.7463,-4.7663,-4.788,-4.8612,-5.0704,-5.3485,-5.7197,-5.9443,-6.1317,-6.3134,0.0,-6.5121,-6.4647,-6.3869,-6.3429,-6.3565,-6.2854,-6.2076,-6.1366,-6.1298,-6.096,-6.0148,-5.9471,-5.9066,-5.9032,-5.8355,-5.7949,-5.7881,-5.7881,-5.8246,-5.8976,-5.9009,-5.9018,-5.9132,-5.9132,-5.8356,-5.6984,-5.7,-5.615,-5.4757,-5.4695,-5.4264,-5.3551,-5.3484,-5.4328,-5.5552,-5.5667,-5.6632,-5.758,-5.5383,-5.452,-5.3922,-5.1035,-5.0096,-5.0339,-5.1696,-5.2803,-5.3992,-5.6051,-5.7244,-5.7784,-5.7757,-5.6673,-5.5613,-5.5677,-5.5007,-5.3954,-5.2679,-5.2923,-5.2934,-5.1546,-5.1329,-5.1327,-5.136,-5.1928,-5.2335,-5.2235,-5.3504,-5.4409,-5.4337,-5.4994,-5.5133,-5.4399,-5.4326,-5.3995,-5.3261,-5.3225,-5.3225,-5.3225,-5.3225,-5.3225,-5.3225,-5.3225,-5.3225,-5.3225,-5.3225,-5.3225,-5.3225,-5.3151,-5.2747,-5.2087,-5.2784,-5.2747,-4.3329,-4.4018,-4.4679,-4.4068,-4.4758,-4.5616,-4.6067,-4.7042,-4.8117,-4.9095,-4.9759,-5.0406,-5.1172,0.0,-5.5562,-5.7752,-6.0224,-6.2186,-6.3316,-6.4005,-6.441,-6.458,-6.3531,-6.299,-6.3463,-6.2821,-6.1873,-6.0655,-6.0554,-6.0013,-5.8795,-5.8017,-5.7848,-5.8287,-5.7611,-5.7442,-5.7881,-5.7442,-5.7878,-5.9159,-5.9159,-5.9455,-5.9889,-5.8969,-5.8211,-5.7598,-5.6582,-5.5552,-5.4606,-5.4606,-5.4171,-5.3518,-5.3518,-5.4391,-5.5724,-5.5724,-5.6421,-5.7057,-5.5223,-5.4275,-5.3554,-5.1464,-5.106,-5.1546,-5.2103,-5.3141,-5.4311,-5.5167,-5.5969,-5.6577,-5.655,-5.6138,-5.5332,-5.3917,-5.2976,-5.2136,-5.1109,-5.1139,-5.1213,-5.0666,-5.124,-5.2017,-5.2546,-5.3255,-5.3763,-5.3722,-5.4629,-5.5108,-5.4688,-5.5176,-5.5464,-5.517,-5.4693,-5.4069,-5.3298,-5.3225,-5.3225,-5.3225,-5.3225,-5.3225,-5.3225,-5.3225,-5.3225,-5.3225,-5.3225,-5.3225,-5.3225,-5.3225,-5.3041,-5.2747,-5.3078,-5.3041,-4.4128,-4.4742,-4.5372,-4.5278,0.0,0.0,-4.678,-4.8309,-5.0006,-5.0532,-5.1476,-5.2442,-5.3215,-5.4972,-5.6768,0.0,-6.036,-6.2212,-6.2753,-6.2821,-6.299,-6.3497,-6.2448,-6.1873,-6.2381,-6.2212,-6.14,-5.9877,-5.9979,-5.9471,-5.7983,-5.7205,-5.7036,-5.7543,-5.6833,-5.6697,-5.7205,-5.6697,-5.7124,-5.851,-5.8202,-5.8662,-5.9655,-5.8322,-5.7459,-5.6898,-5.5857,-5.4939,-5.4264,-5.4264,-5.3946,-5.3518,-5.3518,-5.4391,-5.5667,-5.5437,-5.6039,-5.6649,-5.5122,-5.4255,-5.3583,-5.2017,-5.1907,-5.2337,-5.2581,-5.3369,-5.4288,-5.4762,-5.5242,-5.5638,-5.5418,-5.533,-5.483,-5.278,-5.1906,-5.1176,-4.9939,-5.0103,-5.0441,-5.0441,-5.1645,-5.2934,-5.3672,-5.4688,-5.5305,-5.5293,-5.5952,-5.62,-5.5741,-5.6081,-5.6161,-5.5647,-5.5097,-5.4436,-5.3665,-5.3592,-5.3592,-5.3592,-5.3127,-5.2813,-5.2813,-5.268,-5.2635,-5.285,-5.2813,-5.298,-5.3225,-5.3225,-5.3225,-5.3225,-5.3225,-5.3225,-4.5961,-4.6867,-4.7537,-4.7355,0.0,0.0,-4.8747,-5.0151,-5.147,-5.1747,-5.2596,-5.3509,-5.4262,-5.5721,-5.7036,-5.7746,-5.981,-6.1298,-6.1298,-6.1298,-6.1298,-6.1298,-6.0588,-6.0114,-6.0114,-6.0825,-6.0655,-5.9133,-5.9674,-5.9438,-5.7983,-5.7171,-5.6799,-5.6799,-5.6089,-5.5716,-5.5716,-5.5716,-5.6099,-5.6888,-5.6096,-5.654,-5.8067,-5.7255,-5.6023,-5.4606,-5.4606,-5.4171,-5.3518,-5.3518,-5.3518,-5.3518,-5.3518,-5.4391,-5.561,-5.4878,-5.5588,-5.6668,-5.5119,-5.4606,-5.4344,-5.2799,-5.23,-5.2431,-5.3253,-5.3498,-5.3818,-5.5283,-5.5667,-5.5495,-5.4757,-5.4572,-5.4191,-5.2761,-5.233,-5.1691,-4.9492,-5.0138,-5.1211,-5.1211,-5.2397,-5.3638,-5.4381,-5.5866,-5.6862,-5.6841,-5.7483,-5.7997,-5.7997,-5.7997,-5.7373,-5.5757,-5.5611,-5.528,-5.4473,-5.4399,-5.4399,-5.4399,-5.2944,-5.2112,-5.2112,-5.1444,-5.1444,-5.2112,-5.2112,-5.2472,-5.3225,-5.3225,-5.3225,-5.3225,-5.3225,-5.3225,-4.6262,-4.6314,-4.6615,-4.7141,-4.8111,-4.9042,0.0,-4.9926,0.0,-5.3548,-5.4317,-5.49,-5.6107,-5.683,-5.7196,-5.7094,-5.8558,-5.9708,-5.9708,-6.0148,-6.0452,-6.0452,-6.025,-6.0114,-6.0114,-6.0317,-6.0047,-5.9099,-5.9201,-5.893,-5.7949,-5.6697,-5.6258,-5.6799,-5.5581,-5.5175,-5.5716,-5.5209,-5.5348,-5.6062,-5.4727,-5.523,-5.7199,-5.5918,-5.5026,-5.4606,-5.4042,-5.3717,-5.3518,-5.3518,-5.3518,-5.3518,-5.3518,-5.4391,-5.5667,-5.5437,-5.5667,-5.6004,-5.5552,-5.4695,-5.3749,-5.328,-5.3145,-5.3212,-5.3443,-5.3508,-5.3608,-5.4072,-5.4171,-5.3969,-5.3198,-5.2963,-5.2725,-5.177,-5.1545,-5.1082,-4.9357,-4.9692,-5.0691,-5.1859,-5.2783,-5.3993,-5.5857,-5.6587,-5.7043,-5.7574,-5.785,-5.7997,-5.7997,-5.7997,-5.7593,-5.6565,-5.6455,-5.6124,-5.5317,-5.5244,-5.4987,-5.4436,-5.3499,-5.2915,-5.2893,-5.2159,-5.2112,-5.2893,-5.2893,-5.298,-5.3225,-5.3225,-5.3225,-5.3225,-5.3775,-5.4032,-4.8057,-4.7929,-4.7959,-4.944,-5.0549,-5.1434,-5.1853,-5.1937,-5.2529,-5.4884,-5.561,-5.6125,-5.7069,-5.721,-5.7214,-5.7268,-5.7746,-5.8254,-5.8524,-5.8457,-5.8457,-5.8761,-5.8524,-5.849,-5.8761,-5.9066,-5.9032,-5.8592,-5.8829,-5.8693,-5.7915,-5.6494,-5.5919,-5.6359,-5.4938,-5.4397,-5.4837,-5.4397,-5.4397,-5.4857,-5.3955,-5.4251,-5.5479,-5.4598,-5.4136,-5.4171,-5.3651,-5.3518,-5.3518,-5.3518,-5.3651,-5.3946,-5.3946,-5.4852,-5.6059,-5.5495,-5.5437,-5.561,-5.5059,-5.42,-5.3518,-5.3518,-5.3518,-5.3518,-5.3518,-5.3717,-5.3946,-5.3946,-5.3741,-5.34,-5.2887,-5.2323,-5.1691,-5.0947,-5.1014,-5.0811,-4.9323,-5.0263,-5.1459,-5.1773,-5.346,-5.513,-5.6164,-5.6915,-5.7498,-5.795,-5.7997,-5.7997,-5.7997,-5.7997,-5.7703,-5.6895,-5.7079,-5.6969,-5.6161,-5.6088,-5.5721,-5.4913,-5.3899,-5.3261,-5.3182,-5.2242,-5.2018,-5.2769,-5.2769,-5.2893,-5.3225,-5.3225,-5.3225,-5.3225,-5.3702,-5.4106,-5.0555,-5.0646,-5.0676,-5.3112,-5.4328,-5.506,-5.5336,-5.5409,-5.5436,-5.5875,-5.6563,-5.7211,-5.7258,-5.7014,-5.7002,-5.7577,-5.7137,-5.6934,-5.7611,-5.6562,-5.5953,-5.663,-5.6122,-5.5987,-5.663,-5.7306,-5.7679,-5.7679,-5.8321,-5.8423,-5.7712,-5.6359,-5.5615,-5.5615,-5.4228,-5.3518,-5.3518,-5.3518,-5.3518,-5.3518,-5.3518,-5.3551,-5.3618,-5.3484,-5.3518,-5.3518,-5.3518,-5.3551,-5.3618,-5.3618,-5.4042,-5.4695,-5.4695,-5.5588,-5.6721,-5.5355,-5.5203,-5.5495,-5.4171,-5.3618,-5.3518,-5.3518,-5.3518,-5.3484,-5.3551,-5.4042,-5.4572,-5.4695,-5.4113,-5.3463,-5.3394,-5.2295,-5.1014,-5.027,-5.0608,-5.0744,-4.9514,-5.1327,-5.2945,-5.1651,-5.4279,-5.6492,-5.5794,-5.6932,-5.7923,-5.7997,-5.7997,-5.7997,-5.7997,-5.7997,-5.7703,-5.7005,-5.7556,-5.7703,-5.6969,-5.6932,-5.6528,-5.5647,-5.4272,-5.3426,-5.3219,-5.1922,-5.1494,-5.2159,-5.2206,-5.2554,-5.3225,-5.3225,-5.3225,-5.3225,-5.3298,-5.3702,-5.0582,-5.0526,0.0,-5.4363,-5.6345,-5.7324,-5.6556,-5.7029,-5.7344,-5.6483,-5.6807,-5.7318,-5.7666,-5.7229,-5.6664,-5.6258,-5.6055,-5.6021,-5.6156,-5.5919,-5.5784,-5.5919,-5.5818,-5.5784,-5.5919,-5.6089,-5.619,-5.619,-5.6325,-5.6359,-5.619,-5.531,-5.4837,-5.4837,-5.3957,-5.3518,-5.3518,-5.3518,-5.3518,0.0,-5.3518,-5.3783,-5.4328,-5.3783,-5.3518,-5.3518,-5.3518,-5.3815,-5.4391,-5.4391,-5.4818,-5.5495,-5.5495,-5.6059,-5.6861,-5.651,-5.6095,-5.5667,-5.532,-5.4454,-5.3518,-5.3518,-5.3518,-5.3618,-5.4235,-5.4482,-5.4695,-5.532,-5.45,-5.3359,-5.2795,-5.1884,-5.1014,-5.027,-5.0202,-5.0425,-5.072,-5.1689,-5.282,-5.3706,-5.4927,-5.5978,-5.6455,-5.6822,-5.7262,-5.7886,-5.7997,-5.7997,-5.7997,-5.7997,-5.7923,-5.7776,-5.7886,-5.7923,-5.7776,-5.774,-5.7116,-5.5684,-5.5302,-5.4525,-5.3261,-5.2335,-5.2242,-5.2937,-5.2937,-5.306,-5.3225,-5.3225,-5.3225,-5.3225,-5.3849,-5.4216,-5.0505,0.0,0.0,-5.6359,0.0,-5.9438,-5.8558,-5.8469,-5.823,-5.6838,-5.6763,-5.698,-5.6896,-5.6528,-5.6156,-5.5784,-5.5412,-5.5175,-5.5175,-5.4871,-5.4668,-5.4668,-5.4668,-5.4803,-5.5141,-5.5175,-5.5344,-5.5683,-5.5716,-5.5716,-5.5716,-5.5006,-5.46,-5.46,-5.389,-5.3518,-5.3518,-5.3518,-5.3518,-5.3518,-5.3815,-5.4419,-5.5084,-5.4011,-5.3685,-5.3929,-5.3244,-5.3349,-5.3999,-5.3999,-5.467,-5.5687,-5.5687,-5.6204,-5.6861,-5.6474,-5.5836,-5.5084,-5.4791,-5.4171,-5.3551,-5.3881,-5.4042,-5.4171,-5.4878,-5.5379,-5.5816,-5.615,-5.4909,-5.3519,-5.3484,-5.208,-5.0574,-5.0168,-5.0642,-5.1176,-5.1206,-5.2358,-5.3495,-5.3901,-5.5196,-5.6308,-5.6748,-5.7116,-5.7519,-5.7923,-5.7997,-5.7997,-5.7997,-5.7997,-5.7997,-5.7997,-5.7997,-5.7997,-5.7997,-5.7997,-5.7299,-5.5684,-5.5574,-5.4876,-5.3298,-5.2813,-5.2813,-5.3225,-5.3225,-5.3225,-5.3225,-5.3225,-5.3225,-5.3225,-5.3628,-5.4032,-5.0523,0.0,-5.5175,-5.8254,-6.0283,0.0,-6.0317,-5.9539,-5.8558,-5.6934,-5.6528,-5.6224,-5.5649,-5.5412,-5.5344,-5.5344,-5.4803,-5.4397,-5.4397,-5.389,-5.3518,-5.3518,-5.3518,-5.3754,-5.4329,-5.4397,-5.4668,-5.5277,-5.5344,-5.5344,-5.5344,-5.4735,-5.4397,-5.4397,-5.3822,-5.3518,-5.3518,-5.3518,-5.345,-5.3281,-5.4046,-5.4758,-5.5466,-5.4103,-5.3835,-5.4409,-5.3241,-5.2971,-5.3531,-5.3531,-5.4346,-5.569,-5.5699,-5.6118,-5.6593,-5.5968,-5.5203,-5.4544,-5.3881,-5.3618,-5.3618,-5.4391,-5.4606,-5.4757,-5.5667,-5.6367,-5.6912,-5.7065,-5.5434,-5.385,-5.4434,-5.2552,-5.0473,-5.0473,-5.1522,-5.2298,-5.141,-5.2716,-5.4024,-5.3655,-5.5328,-5.6748,-5.6638,-5.7373,-5.7997,-5.7997,-5.7997,-5.7997,-5.7997,-5.7997,-5.7997,-5.7997,-5.7997,-5.7997,-5.7997,-5.7997,-5.7373,-5.5904,-5.5684,-5.495,-5.3482,-5.3298,-5.3225,-5.3225,-5.3225,-5.3225,-5.3225,-5.3225,-5.3225,-5.3225,-5.3225,-5.3555,-5.0589,0.0,-5.8389,0.0,-6.0655,-6.1873,0.0,0.0,-5.8423,0.0,-5.5344,-5.4871,-5.4769,-5.4228,-5.3788,-5.3788,-5.3721,-5.3653,-5.3653,-5.3551,-5.3518,-5.3518,-5.3518,-5.3551,-5.3653,-5.3653,-5.3687,-5.3788,-5.3788,-5.3788,-5.3788,-5.3687,-5.3653,-5.3653,-5.3551,-5.3518,-5.3518,-5.3518,-5.3145,-5.2435,-5.3206,-5.3958,-5.4619,-5.3706,-5.3758,-5.45,-5.4282,-5.4278,-5.4331,-5.4331,-5.4846,-5.5615,-5.5667,-5.5794,-5.5836,-5.5755,-5.5203,-5.4606,-5.4482,-5.4042,-5.3618,-5.4391,-5.4606,-5.4878,-5.6313,-5.6809,-5.7015,-5.7679,-5.6191,-5.4469,-5.4575,-5.3316,-5.1995,-5.1995,-5.2706,-5.2938,-5.1597,-5.199,-5.2962,-5.4223,-5.5738,-5.6602,-5.5868,-5.7005,-5.7997,-5.7997,-5.7997,-5.7997,-5.7997,-5.7997,-5.7997,-5.7997,-5.7997,-5.7997,-5.7997,-5.7997,-5.7593,-5.6712,-5.5978,-5.517,-5.4289,-5.3592,-5.3225,-5.3225,-5.3225,-5.3225,-5.3225,-5.3225,-5.3225,-5.3225,-5.3225,-5.3261,-5.1415,-5.4409,-5.6934,0.0,-5.9776,-6.0317,-5.9641,-5.893,-5.7983,-5.6596,-5.5412,-5.4465,-5.4059,-5.3721,-5.3518,-5.3518,-5.3518,-5.3518,-5.3518,-5.3518,-5.3518,-5.3518,-5.3518,-5.3518,-5.3518,-5.3518,-5.3518,-5.3518,-5.3518,-5.3518,-5.3518,-5.3518,-5.3518,-5.3518,-5.3078,-5.2841,-5.2841,-5.2823,-5.3065,-5.3528,-5.3869,-5.4395,-5.5093,-5.4363,-5.4182,-5.4399,-5.3498,-5.3387,-5.3736,-5.3338,-5.3592,-5.4335,-5.4374,-5.442,-5.4529,-5.4922,-5.4606,-5.3943,-5.3464,-5.3409,-5.355,-5.3908,-5.426,-5.4818,-5.5928,-5.6563,-5.6964,-5.7302,-5.6057,-5.4682,-5.5142,-5.374,-5.23,-5.23,-5.2929,-5.3204,-5.2146,-5.2783,-5.3993,-5.5523,-5.6347,-5.6822,-5.6932,-5.7519,-5.7997,-5.7997,-5.7997,-5.7997,-5.7997,-5.7997,-5.7997,-5.7997,-5.7997,-5.7997,-5.7997,-5.7997,-5.7666,-5.6859,-5.6455,-5.5721,-5.4436,-5.4069,-5.3665,-5.3225,-5.3225,-5.3225,-5.3225,-5.3225,-5.3225,-5.3225,-5.3665,-5.3628,0.0,0.0,-5.4405,-5.6908,-5.8051,-5.8631,0.0,0.0,-5.7645,0.0,-5.5513,-5.4363,-5.3653,-5.3518,-5.3518,-5.3518,-5.328,-5.311,-5.311,-5.311,-5.311,-5.311,-5.3348,-5.3518,-5.3518,-5.3518,-5.3518,-5.3518,-5.3518,-5.3518,-5.3518,-5.3315,-5.3213,-5.3213,-5.2435,-5.2094,-5.232,-5.2304,-5.2921,-5.4157,-5.3976,-5.4194,-5.4692,-5.4194,-5.382,-5.3518,-5.2534,-5.2376,-5.2635,-5.2065,-5.2197,-5.2759,-5.2785,-5.3019,-5.329,-5.3804,-5.3806,-5.3416,-5.2807,-5.301,-5.3516,-5.3736,-5.4121,-5.4757,-5.5495,-5.6114,-5.6616,-5.6616,-5.5667,-5.4754,-5.5296,-5.4033,-5.267,-5.2799,-5.3341,-5.3619,-5.3112,-5.3914,-5.5167,-5.6264,-5.6822,-5.7226,-5.7629,-5.7711,-5.7726,-5.7726,-5.7726,-5.7726,-5.7726,-5.7867,-5.7997,-5.7997,-5.7997,-5.7997,-5.7997,-5.7997,-5.774,-5.7152,-5.6932,-5.6271,-5.506,-5.462,-5.4106,-5.3518,-5.3298,-5.3225,-5.3225,-5.3225,-5.3225,-5.3225,-5.3812,-5.3763,0.0,-4.8948,0.0,-5.3206,-5.5544,0.0,0.0,0.0,-5.7476,-5.6055,-5.5141,-5.4363,-5.3653,-5.3518,-5.3518,-5.3518,-5.2627,-5.1993,-5.1993,-5.1993,-5.1993,-5.1993,-5.287,-5.3518,-5.3518,-5.3518,-5.3518,-5.3518,-5.3518,-5.3518,-5.3518,-5.2773,-5.2367,-5.2367,-5.1657,-5.16,-5.2269,-5.2222,-5.2552,-5.3255,-5.2534,-5.2221,-5.2268,-5.2221,-5.1848,-5.1296,-5.2005,-5.1899,-5.1189,-5.1189,-5.1173,-5.1228,-5.1276,-5.1731,-5.2373,-5.2452,-5.2907,-5.3484,-5.345,-5.345,-5.3618,-5.4322,-5.4572,-5.4757,-5.5495,-5.5724,-5.578,-5.578,-5.5168,-5.4599,-5.4634,-5.4072,-5.3583,-5.4322,-5.4537,-5.451,-5.4502,-5.5144,-5.5703,-5.5705,-5.6895,-5.7703,-5.7005,-5.6928,-5.6964,-5.6964,-5.6964,-5.6964,-5.6964,-5.7546,-5.7997,-5.7997,-5.7997,-5.7997,-5.7997,-5.7997,-5.796,-5.7923,-5.7226,-5.6785,-5.6675,-5.5207,-5.4363,-5.4326,-5.3592,-5.3225,-5.3225,-5.3225,-5.3225,-5.3225,-5.3261,-5.3251,-4.8306,0.0,0.0,-5.2474,-5.3585,-5.4435,-5.6078,-5.6494,-5.6359,-5.5818,-5.5108,-5.4499,-5.4262,-5.3274,-5.2454,-5.2454,-5.1631,-5.093,-5.093,-5.1451,-5.1921,-5.1921,-5.287,-5.3518,-5.3518,-5.3518,-5.3518,-5.3518,-5.3518,-5.3518,-5.3518,-5.2739,-5.23,-5.23,-5.1116,-5.0823,-5.1505,-5.1963,-5.2269,-5.2462,-5.2257,-5.1838,-5.1444,-5.0981,-5.0608,-5.0369,-5.023,-5.0502,-5.1034,-5.0608,-5.039,-5.0439,-5.0463,-5.0946,-5.1634,-5.216,-5.2807,-5.345,-5.2909,-5.3078,-5.3483,-5.3236,-5.3471,-5.3946,-5.4235,-5.4606,-5.4964,-5.4964,-5.4818,-5.4606,-5.4606,-5.4042,-5.3783,-5.5059,-5.5667,-5.6224,-5.6673,-5.6572,-5.6593,-5.7033,-5.7189,-5.7161,-5.6879,-5.7267,-5.7449,-5.6964,-5.7302,-5.7631,-5.7631,-5.7821,-5.7997,-5.7997,-5.7997,-5.7997,-5.7997,-5.7997,-5.7997,-5.7997,-5.774,-5.7336,-5.6822,-5.6271,-5.5212,-5.3717,-5.3925,-5.3781,-5.3225,-5.3225,-5.3482,-5.3995,-5.3991,-5.4037,-4.8441,-4.7846,0.0,0.0,0.0,-5.2065,-5.3878,0.0,-5.441,-5.4322,-5.3933,-5.3676,-5.3676,-5.2715,-5.1993,-5.2383,-5.1557,-5.093,-5.093,-5.1451,-5.1921,-5.1921,-5.287,-5.3518,-5.3518,-5.3518,-5.3518,-5.3518,-5.3247,0.0,-5.3112,-5.2131,-5.1549,-5.1532,-5.0815,-5.0667,-5.1086,-5.1741,-5.2018,-5.1741,-5.149,-5.1144,-5.0716,-4.998,-4.962,-4.9605,-4.9195,-4.9521,-5.0369,-4.9896,-4.9664,-4.9674,-4.9678,-5.0168,-5.0913,-5.1386,-5.2063,-5.2706,-5.2401,-5.2638,-5.3044,-5.2807,-5.2875,-5.3145,-5.3416,-5.3645,-5.3857,-5.4132,-5.42,-5.42,-5.42,-5.42,-5.4544,-5.578,-5.6721,-5.7401,-5.7867,-5.7593,-5.7373,-5.7886,-5.7556,-5.7198,-5.7242,-5.7449,-5.7449,-5.6964,-5.7351,-5.7631,-5.7631,-5.7821,-5.7997,-5.7997,-5.7997,-5.7997,-5.7997,-5.7997,-5.7997,-5.7997,-5.7997,-5.7776,-5.7226,-5.6749,-5.5691,-5.4133,-5.4101,-5.3792,-5.3215,-5.3481,-5.3908,-5.4456,-5.446,-5.4374,0.0,0.0,0.0,-4.8093,0.0,0.0,-5.1315,0.0,-5.1762,-5.154,-5.1685,-5.1888,-5.1921,-5.1921,-5.2312,-5.3348,-5.2557,-5.1849,-5.1849,-5.1921,-5.1921,-5.1921,-5.287,-5.3518,-5.3518,-5.3518,-5.3518,-5.3518,-5.2739,-5.23,-5.23,-5.0879,-5.0066,-5.0011,-5.0681,-5.1051,-5.1051,-5.1705,-5.1669,-5.1015,-5.0307,-4.9978,-4.9872,-4.9236,-4.8918,-4.8984,-4.8984,-4.9018,-4.9018,-4.9018,-4.9018,-4.9018,-4.9018,-4.9458,-5.0101,-5.0101,-5.0574,-5.1319,-5.2029,-5.2266,-5.2401,-5.3179,-5.2909,-5.2401,-5.3213,-5.2909,-5.2469,-5.3247,-5.3484,-5.3518,-5.3518,-5.4606,-5.5893,-5.6721,-5.7449,-5.7997,-5.7997,-5.7997,-5.7997,-5.7997,-5.7997,-5.7997,-5.7997,-5.7401,-5.6912,-5.6912,-5.6912,-5.6912,-5.6912,-5.7583,-5.7997,-5.7997,-5.7997,-5.7997,-5.7997,-5.7997,-5.7997,-5.7997,-5.7997,-5.7997,-5.7997,-5.6539,-5.5721,-5.5671,-5.4118,-5.3349,-5.3313,-5.4092,-5.4467,-5.4467,-5.4553,-5.4135,-4.8158,0.0,0.0,0.0,0.0,0.0,-4.9981,0.0,-4.9718,-5.0798,-5.1086,-5.1578,-5.2838,-5.3041,-5.3179,-5.3416,-5.2026,-5.0779,-5.0779,-5.1451,-5.1921,-5.1921,-5.287,-5.3518,-5.3518,-5.3518,-5.3518,0.0,-5.2739,-5.23,-5.23,-5.1412,-5.0631,-5.0011,-5.0189,-5.0323,-5.0323,-4.9955,-4.9422,-4.8695,-4.9044,-4.8661,-4.7749,-4.8601,-4.8659,-4.824,-4.8781,-4.9018,-4.9018,-4.9018,-4.9018,-4.9018,-4.9018,-4.9458,-5.0101,-5.0101,-5.0574,-5.1251,-5.1454,-5.1522,-5.1555,-5.1792,-5.1691,-5.1555,-5.1792,-5.2063,-5.2367,-5.257,-5.3044,-5.3618,-5.4171,-5.4999,-5.5893,-5.6721,-5.7449,-5.7821,-5.7351,-5.7166,-5.7351,-5.7904,-5.7546,-5.7166,-5.7166,-5.7449,-5.7498,-5.6964,-5.7351,-5.7679,-5.7679,-5.7867,-5.7997,-5.7997,-5.7997,-5.7997,-5.7997,-5.7997,-5.7997,-5.7997,-5.7997,-5.7997,-5.7997,-5.7084,-5.6057,-5.4919,-5.4454,-5.3973,-5.3415,-5.3596,-5.3922,-5.4491,-5.5114,-5.4966,-4.8893,-4.8134,-4.757,-4.8427,0.0,0.0,-4.8393,-4.8175,-4.8102,0.0,-4.9523,-5.0293,-5.166,-5.2505,-5.301,-5.301,-5.1988,-5.1343,-5.1671,-5.217,-5.2557,-5.2557,-5.311,-5.3518,-5.3518,-5.3518,-5.3382,-5.301,-5.23,-5.1685,-5.1384,-5.1234,-5.0934,-5.048,-5.0136,-4.9851,-4.9504,-4.8818,-4.8067,-4.7374,-4.7511,-4.7318,-4.6819,-4.7361,-4.7733,-4.7936,-4.8376,-4.8714,-4.9018,-4.9018,-4.9018,-4.9018,-4.9018,-4.9255,-4.9627,-4.9627,-4.9898,-5.0338,-5.0642,-5.0744,-5.0811,-5.1116,-5.1014,-5.0879,-5.1488,-5.1758,-5.1995,-5.2638,-5.3145,-5.3717,-5.4757,-5.5379,-5.6004,-5.7116,-5.7449,-5.7401,-5.6964,-5.6367,-5.615,-5.6927,-5.6927,-5.6912,-5.6912,-5.7498,-5.7821,-5.7401,-5.7726,-5.7997,-5.7997,-5.7997,-5.7997,-5.7997,-5.7997,-5.7997,-5.7997,-5.7997,-5.7997,-5.7997,-5.7997,-5.7867,-5.7546,-5.6825,-5.579,-5.4595,-5.4337,-5.4121,-5.3948,-5.3882,-5.4253,-5.4995,-5.5168,-5.5144,-4.9187,-4.9052,-4.9068,-4.8696,-4.889,0.0,-4.7032,-4.6831,-4.6982,0.0,-4.7486,-4.8554,-4.9678,-5.1162,-5.2198,-5.2198,-5.2266,-5.257,-5.3382,-5.3416,-5.3416,-5.3484,-5.3518,-5.3518,-5.3518,-5.3416,-5.3078,-5.2367,-5.162,-5.0905,-5.0159,-5.0823,-5.1154,-5.098,-5.0287,-4.9468,-4.8667,-4.783,-4.7133,-4.6549,-4.5974,-4.6007,-4.6515,-4.6041,-4.6515,-4.7665,-4.7767,-4.8206,-4.8883,-4.8883,-4.8951,-4.9018,-4.9018,-4.9018,-4.9018,-4.9018,-4.9018,-4.9086,-4.9729,-4.9965,-5.0067,-5.0744,-5.0507,-5.0202,-5.1522,-5.1589,-5.1522,-5.3078,-5.3551,-5.3946,-5.532,-5.578,-5.6169,-5.7642,-5.7449,-5.6861,-5.6809,-5.5645,-5.4757,-5.532,-5.615,-5.6809,-5.6912,-5.7498,-5.7997,-5.7997,-5.7997,-5.7997,-5.7997,-5.7997,-5.7997,-5.7997,-5.7997,-5.7997,-5.7997,-5.7997,-5.7997,-5.7997,-5.7997,-5.7679,-5.6912,-5.615,-5.5379,-5.4757,-5.4042,-5.4042,-5.4695,-5.4695,-5.5024,-5.5724,-5.5084,-5.5203,-4.9052,-4.9424,-4.97,-4.9039,-4.9291,0.0,-4.6781,-4.6213,-4.6335,0.0,-4.7381,-4.8188,-5.046,-5.1189,-5.142,-5.142,-5.1928,-5.257,-5.3382,-5.2942,-5.2773,-5.3416,-5.3518,-5.3518,-5.3518,-5.2909,-5.2469,-5.23,-5.1645,-5.1118,-5.0893,-5.1544,-5.1357,-5.0252,-4.9522,-4.8463,-4.7159,-4.5857,-4.5162,-4.5026,-4.55,-4.5466,-4.5026,-4.6109,-4.6413,-4.6177,-4.6752,-4.7428,-4.8139,-4.8139,-4.8477,-4.9018,-4.9018,-4.9018,-4.9018,-4.9018,-4.9018,-4.9018,-4.9154,-4.9221,-4.9255,-4.939,-4.9323,-4.9255,-4.956,-5.0371,-5.1522,-5.3078,-5.3946,-5.4606,-5.5495,-5.6204,-5.6876,-5.7774,-5.7449,-5.6721,-5.6059,-5.5203,-5.4482,-5.4011,-5.4999,-5.6114,-5.6809,-5.7498,-5.7997,-5.7997,-5.7997,-5.7997,-5.7997,-5.7997,-5.7997,-5.7997,-5.7997,-5.7997,-5.7997,-5.7997,-5.7997,-5.7997,-5.7997,-5.7679,-5.6912,-5.615,-5.5667,-5.5495,-5.532,-5.532,-5.5495,-5.5495,-5.5552,-5.5724,-5.6204,-5.651,-5.0202,-5.0371,-5.0574,-5.0202,-5.0018,0.0,0.0,-4.6717,-4.6285,-4.7281,-4.6781,-4.686,-4.9144,-4.9864,-5.0101,-5.0101,-5.071,-5.1488,-5.2266,-5.2672,-5.3044,-5.345,-5.3518,-5.3518,-5.3518,-5.2773,-5.1995,-5.1251,-5.0841,-5.0619,-5.0535,-5.1241,-5.0936,-4.9486,-4.8714,-4.7666,-4.622,-4.515,-4.4587,-4.4587,-4.4959,-4.4959,-4.4621,-4.5365,-4.5703,-4.5737,-4.6075,-4.6887,-4.7936,-4.7936,-4.8342,-4.9018,-4.9018,-4.9018,-4.9018,-4.9018,-4.9018,-4.9018,-4.9018,-4.9018,-4.9018,-4.9018,-4.9018,-4.9154,-4.9898,-5.115,-5.2569,-5.3741,-5.4328,-5.4878,-5.6004,-5.6616,-5.6964,-5.7351,-5.6876,-5.6095,-5.532,-5.4878,-5.4482,-5.4106,-5.5297,-5.6313,-5.6313,-5.7266,-5.7997,-5.7997,-5.7997,-5.7997,-5.7997,-5.7997,-5.7997,-5.7997,-5.7997,-5.7997,-5.7997,-5.7997,-5.7997,-5.7997,-5.7997,-5.7679,-5.6912,-5.6474,-5.6114,-5.5724,-5.6059,-5.6313,-5.6313,-5.6685,-5.6632,-5.6313,-5.6721,-5.7065,-5.1386,-5.1319,-5.1352,-5.1082,-5.0744,-5.018,0.0,0.0,0.0,-4.7473,-4.6513,-4.6123,-4.7799,0.0,0.0,0.0,0.0,0.0,0.0,-5.2198,0.0,-5.3247,-5.3145,-5.3179,-5.3484,-5.2638,-5.1519,-5.0215,-5.0007,-5.009,-5.0167,-5.077,-5.0418,-4.8945,-4.8216,-4.7107,-4.5703,-4.4959,-4.4587,-4.4587,-4.4587,-4.4587,-4.4587,-4.4587,-4.4925,-4.55,-4.55,-4.6346,-4.7699,-4.7699,-4.8206,-4.9018,-4.9018,-4.9018,-4.9018,-4.9018,-4.9018,-4.9018,-4.9018,-4.9018,-4.9018,-4.9018,-4.9086,-4.9492,-5.098,-5.23,-5.3481,-5.4322,-5.4695,-5.5119,-5.6563,-5.6912,-5.6912,-5.7065,-5.6421,-5.561,-5.5179,-5.4939,-5.4818,-5.4818,-5.5928,-5.6668,-5.6059,-5.708,-5.7997,-5.7997,-5.7997,-5.7997,-5.7997,-5.7997,-5.7997,-5.7997,-5.7997,-5.7997,-5.7997,-5.7997,-5.7997,-5.7997,-5.7997,-5.7679,-5.6912,-5.6912,-5.6616,-5.5948,-5.6721,-5.7116,-5.7116,-5.7726,-5.7679,-5.7116,-5.7116,-5.7449,-5.1251,-5.1691,-5.186,-5.0541,-5.115,-5.1326,-4.8365,0.0,-4.8228,-4.7737,0.0,-4.7605,-4.8664,0.0,0.0,-4.8883,0.0,0.0,-5.0101,-5.0947,-5.1725,-5.2367,-5.186,-5.1995,-5.3382,-5.2198,-5.0929,-5.0045,-5.0011,-5.0279,-5.0929,-5.1034,-5.0418,-4.8945,-4.8216,-4.7107,-4.5703,-4.4959,-4.4587,-4.4587,-4.4587,-4.4587,-4.4587,-4.4587,-4.4621,-4.4688,-4.4688,-4.5534,-4.6921,-4.6921,-4.7733,-4.9018,-4.9018,-4.9018,-4.9018,-4.9018,-4.9018,-4.9018,-4.9018,-4.9018,-4.9018,-4.9018,-4.9424,-5.0236,-5.1725,-5.23,-5.2768,-5.4149,-5.5084,-5.578,-5.6668,-5.6912,-5.7065,-5.7726,-5.6737,-5.5893,-5.651,-5.6095,-5.561,-5.561,-5.6313,-5.6861,-5.6773,-5.7449,-5.7997,-5.7997,-5.7997,-5.7997,-5.7997,-5.7997,-5.7997,-5.7997,-5.7997,-5.7997,-5.7997,-5.7997,-5.7997,-5.7997,-5.7997,-5.7679,-5.6912,-5.6912,-5.6861,-5.6809,-5.7498,-5.7904,-5.7904,-5.795,-5.795,-5.7904,-5.7904,-5.795,-5.0575,-5.1593,-5.2471,-5.046,-5.0759,-5.1155,-4.9452,-4.8563,-4.8101,-4.8356,0.0,0.0,0.0,0.0,0.0,0.0,-4.8714,-4.8951,0.0,0.0,-4.9898,-5.1488,0.0,0.0,-5.0879,-5.0676,-5.0227,-4.9505,-4.9402,-4.958,-4.9838,-4.9896,-4.9378,-4.8367,-4.8001,-4.7169,-4.5703,-4.5399,-4.5026,-4.4587,-4.4587,-4.4587,-4.4587,-4.4587,-4.4587,-4.4587,-4.4587,-4.5432,-4.6786,-4.6786,-4.7902,-4.9593,-4.9187,-4.9255,-4.9627,-4.9627,-4.9627,-4.9627,-4.9627,-4.9357,-4.9086,-4.9492,-5.0135,-5.0947,-5.1995,-5.2638,-5.3243,-5.4287,-5.4818,-5.5203,-5.6004,-5.6204,-5.6169,-5.6059,-5.5552,-5.5144,-5.553,-5.561,-5.5836,-5.6313,-5.6978,-5.7546,-5.7546,-5.7774,-5.7997,-5.7997,-5.7997,-5.7997,-5.7997,-5.7997,-5.7997,-5.7997,-5.7997,-5.7997,-5.7997,-5.7997,-5.7997,-5.7997,-5.7631,-5.7401,-5.7498,-5.7116,-5.7116,-5.7498,-5.7401,-5.7351,-5.7351,-5.6927,-5.6685,-5.6685,-5.7594,-5.7997,-5.0386,-5.1144,-5.2101,-5.0359,-5.0391,-5.071,-4.9965,-4.8882,-4.8161,-4.8861,-4.8015,0.0,0.0,0.0,-4.8003,-4.8173,0.0,-4.8578,-4.8274,-4.8037,-4.8511,-5.0135,-5.0168,0.0,0.0,-4.9661,-4.9695,-4.8781,-4.8883,-4.8917,-4.8714,-4.8883,-4.8748,-4.824,-4.8037,-4.7394,-4.6312,-4.5906,-4.5432,-4.4891,-4.4688,-4.4587,-4.4587,-4.4587,-4.4587,-4.4587,-4.4587,-4.5432,-4.6786,-4.6786,-4.8105,-5.0033,-4.9289,-4.956,-5.0371,-5.0168,-5.0101,-5.0135,-5.0338,-5.0067,-4.9729,-5.0473,-5.1082,-5.1657,-5.2401,-5.3044,-5.3685,-5.4356,-5.4606,-5.4757,-5.5495,-5.5552,-5.532,-5.4999,-5.4757,-5.4634,-5.4878,-5.532,-5.5893,-5.6421,-5.6978,-5.7364,-5.7364,-5.7546,-5.7774,-5.7997,-5.7821,-5.7774,-5.7997,-5.7997,-5.7997,-5.7997,-5.7997,-5.7997,-5.7997,-5.7997,-5.7904,-5.7726,-5.7015,-5.6825,-5.7364,-5.6876,-5.6825,-5.7364,-5.6825,-5.6563,-5.6563,-5.6004,-5.5724,-5.5724,-5.708,-5.7679,-5.0892,-5.0527,-4.9922,-5.0015,-5.0135,-4.9932,-4.9187,-4.9018,-4.8923,-4.8984,-4.8984,-4.8889,-4.8984,-4.8376,-4.8139,-4.8849,-4.8409,0.0,0.0,-4.8376,-4.7936,-4.8037,-4.9255,-4.9796,0.0,-4.9661,-4.9492,-4.8071,-4.8612,-4.8714,-4.8003,-4.8612,-4.8984,-4.8984,-4.8274,-4.7902,-4.7834,-4.6413,-4.5703,-4.5669,-4.4925,-4.4587,-4.4587,-4.4587,-4.4587,-4.4587,-4.4587,-4.5432,-4.6786,-4.6786,-4.8105,-5.0033,-4.9289,-4.9898,-5.1082,-5.0371,-5.0101,-5.0202,-5.0913,-5.1183,-5.1251,-5.1995,-5.2266,-5.2401,-5.3213,-5.3484,-5.3685,-5.4356,-5.4606,-5.4757,-5.5495,-5.5144,-5.4818,-5.5495,-5.5084,-5.4818,-5.5495,-5.5667,-5.5724,-5.5724,-5.578,-5.578,-5.578,-5.6421,-5.7202,-5.7867,-5.7401,-5.7166,-5.7904,-5.7997,-5.7997,-5.7997,-5.7997,-5.7997,-5.7997,-5.7997,-5.7679,-5.6964,-5.6169,-5.578,-5.578,-5.578,-5.578,-5.578,-5.578,-5.5724,-5.5724,-5.5724,-5.5724,-5.5724,-5.6563,-5.6912,0.0,0.0,-5.0325,-4.8827,-4.9281,-4.9898,-4.9187,-4.9018,-4.9018,-4.9018,-4.9018,-4.9018,-4.9018,-4.8815,-4.8714,-4.8951,-4.8815,-4.8376,0.0,-4.6481,-4.6075,-4.7056,-4.8037,-4.8342,-4.7597,0.0,0.0,-4.7259,-4.7394,-4.7428,-4.7192,-4.7868,-4.8274,-4.8274,-4.8511,-4.8409,-4.7936,-4.6921,-4.6177,-4.5703,-4.4925,-4.4587,-4.4587,-4.4587,-4.4587,-4.4621,-4.5128,-4.5872,-4.6819,-4.7327,-4.8849,-5.071,-4.9492,-4.9898,-5.1183,-5.0913,-5.0845,-5.0879,-5.1116,-5.1217,-5.1352,-5.2063,-5.23,-5.2469,-5.3281,-5.3518,-5.3551,-5.3783,-5.3881,-5.3946,-5.4171,-5.4042,-5.3946,-5.4171,-5.4042,-5.4042,-5.4818,-5.4999,-5.5084,-5.561,-5.5724,-5.5724,-5.5724,-5.5495,-5.561,-5.6331,-5.6313,-5.6169,-5.6474,-5.6438,-5.6685,-5.7252,-5.7302,-5.7449,-5.795,-5.7546,-5.6927,-5.615,-5.5379,-5.5203,-5.5667,-5.5203,-5.5203,-5.5724,-5.5203,-5.4999,-5.4999,-5.4482,-5.42,-5.4264,-5.5495,-5.6367,-4.8057,-4.8861,0.0,-4.8394,-4.8912,-4.9593,-4.912,-4.9018,-4.9018,-4.9018,-4.9018,-4.9018,-4.9018,-4.9018,-4.8917,-4.8646,-4.8612,-4.8105,0.0,-4.5568,-4.5331,-4.6278,-4.7056,-4.7428,-4.7225,-4.7631,-4.7496,-4.6481,-4.665,-4.6786,0.0,0.0,-4.8037,-4.8308,-4.8748,-4.8781,-4.8308,-4.7564,-4.6819,-4.6075,-4.5331,-4.4823,-4.4587,-4.4857,-4.4993,-4.5026,-4.5771,-4.6515,-4.7225,-4.7733,-4.9052,-5.071,-4.9492,-4.9898,-5.1217,-5.1217,-5.1555,-5.2029,-5.2029,-5.2029,-5.2097,-5.257,-5.2739,-5.2841,-5.3348,-5.3518,-5.3551,-5.3822,-5.3687,-5.3551,-5.3822,-5.3687,-5.3518,-5.3518,-5.3518,-5.3618,-5.4106,-5.42,-5.4328,-5.4818,-5.4939,-5.4939,-5.4939,-5.4544,-5.4544,-5.5552,-5.5495,-5.5379,-5.5667,-5.5724,-5.5999,-5.6815,-5.6653,-5.6668,-5.713,-5.6773,-5.615,-5.5379,-5.4606,-5.4419,-5.4878,-5.4419,-5.4695,-5.568,-5.4695,-5.4475,-5.5025,-5.3989,-5.3518,-5.3484,-5.4695,-5.5724]}]]